<?xml version="1.0" encoding="UTF-8" standalone="no" ?>
<gpx xmlns="http://www.topografix.com/GPX/1/1" xmlns:xsi="http://www.w3.org/2001/XMLSchema-instance" xsi:schemaLocation="http://www.topografix.com/GPX/1/1 http://www.topografix.com/GPX/1/1/gpx.xsd" version="1.1" creator="VisuGPX - https://www.visugpx.com">
  <metadata>
    <name>LE BOIS JO à ST HERBLAIN</name>
    <desc><![CDATA[Parcours découverte entre le bourg et la Loire]]></desc>
  </metadata>
  <trk>
    <name><![CDATA[Bois Jo - 2013-09-27-01]]></name>
    <trkseg>
      <trkpt lat="47.23079" lon="-1.60655">
        <ele>86.479721</ele>
        <time>2013-09-27T16:01:56Z</time>
      </trkpt>
      <trkpt lat="47.23079" lon="-1.60655">
        <ele>68.503814</ele>
        <time>2013-09-27T16:01:57Z</time>
      </trkpt>
      <trkpt lat="47.23079" lon="-1.60655">
        <ele>68.5</ele>
        <time>2013-09-27T16:01:57Z</time>
      </trkpt>
      <trkpt lat="47.23069" lon="-1.60655">
        <ele>38.4</ele>
        <time>2013-09-27T16:06:46Z</time>
      </trkpt>
      <trkpt lat="47.23069" lon="-1.60655">
        <ele>38.4</ele>
        <time>2013-09-27T16:06:46Z</time>
      </trkpt>
      <trkpt lat="47.23074" lon="-1.60666">
        <ele>38.5</ele>
        <time>2013-09-27T16:06:54Z</time>
      </trkpt>
      <trkpt lat="47.23071" lon="-1.60681">
        <ele>38.6</ele>
        <time>2013-09-27T16:06:59Z</time>
      </trkpt>
      <trkpt lat="47.23071" lon="-1.60696">
        <ele>38.7</ele>
        <time>2013-09-27T16:07:02Z</time>
      </trkpt>
      <trkpt lat="47.23073" lon="-1.60713">
        <ele>38.6</ele>
        <time>2013-09-27T16:07:05Z</time>
      </trkpt>
      <trkpt lat="47.23076" lon="-1.60729">
        <ele>38.6</ele>
        <time>2013-09-27T16:07:09Z</time>
      </trkpt>
      <trkpt lat="47.23078" lon="-1.60745">
        <ele>38.7</ele>
        <time>2013-09-27T16:07:12Z</time>
      </trkpt>
      <trkpt lat="47.23074" lon="-1.6076">
        <ele>38.4</ele>
        <time>2013-09-27T16:07:15Z</time>
      </trkpt>
      <trkpt lat="47.23067" lon="-1.6077">
        <ele>38.1</ele>
        <time>2013-09-27T16:07:18Z</time>
      </trkpt>
      <trkpt lat="47.23057" lon="-1.60776">
        <ele>37.8</ele>
        <time>2013-09-27T16:07:21Z</time>
      </trkpt>
      <trkpt lat="47.23046" lon="-1.60778">
        <ele>37.8</ele>
        <time>2013-09-27T16:07:24Z</time>
      </trkpt>
      <trkpt lat="47.23033" lon="-1.60774">
        <ele>37.8</ele>
        <time>2013-09-27T16:07:27Z</time>
      </trkpt>
      <trkpt lat="47.23021" lon="-1.60774">
        <ele>37.9</ele>
        <time>2013-09-27T16:07:30Z</time>
      </trkpt>
      <trkpt lat="47.23013" lon="-1.60779">
        <ele>37.8</ele>
        <time>2013-09-27T16:07:33Z</time>
      </trkpt>
      <trkpt lat="47.23004" lon="-1.60782">
        <ele>37.7</ele>
        <time>2013-09-27T16:07:36Z</time>
      </trkpt>
      <trkpt lat="47.22994" lon="-1.60787">
        <ele>37.6</ele>
        <time>2013-09-27T16:07:39Z</time>
      </trkpt>
      <trkpt lat="47.22983" lon="-1.60794">
        <ele>37.5</ele>
        <time>2013-09-27T16:07:42Z</time>
      </trkpt>
      <trkpt lat="47.22975" lon="-1.608">
        <ele>37.5</ele>
        <time>2013-09-27T16:07:44Z</time>
      </trkpt>
      <trkpt lat="47.22964" lon="-1.60807">
        <ele>37.6</ele>
        <time>2013-09-27T16:07:47Z</time>
      </trkpt>
      <trkpt lat="47.22964" lon="-1.60807">
        <ele>37.6</ele>
        <time>2013-09-27T16:07:47Z</time>
      </trkpt>
      <trkpt lat="47.22953" lon="-1.60811">
        <ele>37.6</ele>
        <time>2013-09-27T16:07:50Z</time>
      </trkpt>
      <trkpt lat="47.22944" lon="-1.60816">
        <ele>37.8</ele>
        <time>2013-09-27T16:07:53Z</time>
      </trkpt>
      <trkpt lat="47.22938" lon="-1.60826">
        <ele>38</ele>
        <time>2013-09-27T16:07:56Z</time>
      </trkpt>
      <trkpt lat="47.2293" lon="-1.60834">
        <ele>38.2</ele>
        <time>2013-09-27T16:07:59Z</time>
      </trkpt>
      <trkpt lat="47.22922" lon="-1.6084">
        <ele>38.4</ele>
        <time>2013-09-27T16:08:01Z</time>
      </trkpt>
      <trkpt lat="47.22911" lon="-1.60851">
        <ele>39.4</ele>
        <time>2013-09-27T16:08:04Z</time>
      </trkpt>
      <trkpt lat="47.22901" lon="-1.60862">
        <ele>40</ele>
        <time>2013-09-27T16:08:07Z</time>
      </trkpt>
      <trkpt lat="47.22892" lon="-1.60871">
        <ele>40.9</ele>
        <time>2013-09-27T16:08:10Z</time>
      </trkpt>
      <trkpt lat="47.22882" lon="-1.60882">
        <ele>40.9</ele>
        <time>2013-09-27T16:08:13Z</time>
      </trkpt>
      <trkpt lat="47.22872" lon="-1.60892">
        <ele>41.1</ele>
        <time>2013-09-27T16:08:16Z</time>
      </trkpt>
      <trkpt lat="47.22861" lon="-1.60903">
        <ele>41.3</ele>
        <time>2013-09-27T16:08:19Z</time>
      </trkpt>
      <trkpt lat="47.22851" lon="-1.60913">
        <ele>40.9</ele>
        <time>2013-09-27T16:08:22Z</time>
      </trkpt>
      <trkpt lat="47.2284" lon="-1.60925">
        <ele>40</ele>
        <time>2013-09-27T16:08:25Z</time>
      </trkpt>
      <trkpt lat="47.2283" lon="-1.60935">
        <ele>39.9</ele>
        <time>2013-09-27T16:08:28Z</time>
      </trkpt>
      <trkpt lat="47.22818" lon="-1.60937">
        <ele>39.9</ele>
        <time>2013-09-27T16:08:31Z</time>
      </trkpt>
      <trkpt lat="47.22808" lon="-1.60926">
        <ele>40.5</ele>
        <time>2013-09-27T16:08:34Z</time>
      </trkpt>
      <trkpt lat="47.228" lon="-1.60917">
        <ele>39.9</ele>
        <time>2013-09-27T16:08:36Z</time>
      </trkpt>
      <trkpt lat="47.22792" lon="-1.60909">
        <ele>40.2</ele>
        <time>2013-09-27T16:08:38Z</time>
      </trkpt>
      <trkpt lat="47.22781" lon="-1.60902">
        <ele>40.8</ele>
        <time>2013-09-27T16:08:41Z</time>
      </trkpt>
      <trkpt lat="47.22769" lon="-1.60897">
        <ele>41.7</ele>
        <time>2013-09-27T16:08:44Z</time>
      </trkpt>
      <trkpt lat="47.22757" lon="-1.60894">
        <ele>42</ele>
        <time>2013-09-27T16:08:47Z</time>
      </trkpt>
      <trkpt lat="47.22745" lon="-1.6089">
        <ele>41.4</ele>
        <time>2013-09-27T16:08:50Z</time>
      </trkpt>
      <trkpt lat="47.22733" lon="-1.60886">
        <ele>41</ele>
        <time>2013-09-27T16:08:53Z</time>
      </trkpt>
      <trkpt lat="47.22722" lon="-1.6088">
        <ele>40.8</ele>
        <time>2013-09-27T16:08:56Z</time>
      </trkpt>
      <trkpt lat="47.2271" lon="-1.60873">
        <ele>41.2</ele>
        <time>2013-09-27T16:08:59Z</time>
      </trkpt>
      <trkpt lat="47.22698" lon="-1.60866">
        <ele>41.6</ele>
        <time>2013-09-27T16:09:02Z</time>
      </trkpt>
      <trkpt lat="47.22686" lon="-1.60861">
        <ele>41.7</ele>
        <time>2013-09-27T16:09:05Z</time>
      </trkpt>
      <trkpt lat="47.22677" lon="-1.60857">
        <ele>41.9</ele>
        <time>2013-09-27T16:09:07Z</time>
      </trkpt>
      <trkpt lat="47.22668" lon="-1.60853">
        <ele>41.9</ele>
        <time>2013-09-27T16:09:09Z</time>
      </trkpt>
      <trkpt lat="47.22658" lon="-1.6085">
        <ele>41.7</ele>
        <time>2013-09-27T16:09:11Z</time>
      </trkpt>
      <trkpt lat="47.22649" lon="-1.60845">
        <ele>41.9</ele>
        <time>2013-09-27T16:09:13Z</time>
      </trkpt>
      <trkpt lat="47.22639" lon="-1.6084">
        <ele>42.1</ele>
        <time>2013-09-27T16:09:15Z</time>
      </trkpt>
      <trkpt lat="47.22628" lon="-1.60835">
        <ele>42.4</ele>
        <time>2013-09-27T16:09:17Z</time>
      </trkpt>
      <trkpt lat="47.22615" lon="-1.60829">
        <ele>42.7</ele>
        <time>2013-09-27T16:09:19Z</time>
      </trkpt>
      <trkpt lat="47.22603" lon="-1.60823">
        <ele>42.9</ele>
        <time>2013-09-27T16:09:21Z</time>
      </trkpt>
      <trkpt lat="47.22594" lon="-1.60813">
        <ele>42.2</ele>
        <time>2013-09-27T16:09:23Z</time>
      </trkpt>
      <trkpt lat="47.22589" lon="-1.60795">
        <ele>42.2</ele>
        <time>2013-09-27T16:09:25Z</time>
      </trkpt>
      <trkpt lat="47.22581" lon="-1.60777">
        <ele>41.2</ele>
        <time>2013-09-27T16:09:27Z</time>
      </trkpt>
      <trkpt lat="47.22575" lon="-1.60758">
        <ele>39.9</ele>
        <time>2013-09-27T16:09:29Z</time>
      </trkpt>
      <trkpt lat="47.22569" lon="-1.60738">
        <ele>38.7</ele>
        <time>2013-09-27T16:09:31Z</time>
      </trkpt>
      <trkpt lat="47.22563" lon="-1.60719">
        <ele>37.6</ele>
        <time>2013-09-27T16:09:33Z</time>
      </trkpt>
      <trkpt lat="47.22557" lon="-1.60698">
        <ele>36.5</ele>
        <time>2013-09-27T16:09:35Z</time>
      </trkpt>
      <trkpt lat="47.22548" lon="-1.60678">
        <ele>36.1</ele>
        <time>2013-09-27T16:09:37Z</time>
      </trkpt>
      <trkpt lat="47.22535" lon="-1.60665">
        <ele>36.8</ele>
        <time>2013-09-27T16:09:39Z</time>
      </trkpt>
      <trkpt lat="47.22523" lon="-1.60657">
        <ele>37</ele>
        <time>2013-09-27T16:09:41Z</time>
      </trkpt>
      <trkpt lat="47.22511" lon="-1.60656">
        <ele>37.1</ele>
        <time>2013-09-27T16:09:43Z</time>
      </trkpt>
      <trkpt lat="47.22501" lon="-1.6066">
        <ele>36.6</ele>
        <time>2013-09-27T16:09:45Z</time>
      </trkpt>
      <trkpt lat="47.2249" lon="-1.60664">
        <ele>37.2</ele>
        <time>2013-09-27T16:09:47Z</time>
      </trkpt>
      <trkpt lat="47.22479" lon="-1.60672">
        <ele>38</ele>
        <time>2013-09-27T16:09:50Z</time>
      </trkpt>
      <trkpt lat="47.22469" lon="-1.6068">
        <ele>38.7</ele>
        <time>2013-09-27T16:09:53Z</time>
      </trkpt>
      <trkpt lat="47.22457" lon="-1.60687">
        <ele>39.3</ele>
        <time>2013-09-27T16:09:56Z</time>
      </trkpt>
      <trkpt lat="47.22447" lon="-1.60693">
        <ele>39</ele>
        <time>2013-09-27T16:09:58Z</time>
      </trkpt>
      <trkpt lat="47.22436" lon="-1.60699">
        <ele>38.5</ele>
        <time>2013-09-27T16:10:00Z</time>
      </trkpt>
      <trkpt lat="47.22426" lon="-1.60703">
        <ele>38.7</ele>
        <time>2013-09-27T16:10:02Z</time>
      </trkpt>
      <trkpt lat="47.22416" lon="-1.60708">
        <ele>38.9</ele>
        <time>2013-09-27T16:10:04Z</time>
      </trkpt>
      <trkpt lat="47.22405" lon="-1.60712">
        <ele>38.8</ele>
        <time>2013-09-27T16:10:06Z</time>
      </trkpt>
      <trkpt lat="47.22395" lon="-1.60715">
        <ele>39.5</ele>
        <time>2013-09-27T16:10:08Z</time>
      </trkpt>
      <trkpt lat="47.22386" lon="-1.60719">
        <ele>39.3</ele>
        <time>2013-09-27T16:10:10Z</time>
      </trkpt>
      <trkpt lat="47.22374" lon="-1.60721">
        <ele>39</ele>
        <time>2013-09-27T16:10:13Z</time>
      </trkpt>
      <trkpt lat="47.22364" lon="-1.60722">
        <ele>38.2</ele>
        <time>2013-09-27T16:10:15Z</time>
      </trkpt>
      <trkpt lat="47.22351" lon="-1.6072">
        <ele>37.4</ele>
        <time>2013-09-27T16:10:18Z</time>
      </trkpt>
      <trkpt lat="47.22339" lon="-1.60715">
        <ele>36.9</ele>
        <time>2013-09-27T16:10:20Z</time>
      </trkpt>
      <trkpt lat="47.2233" lon="-1.60711">
        <ele>37.3</ele>
        <time>2013-09-27T16:10:22Z</time>
      </trkpt>
      <trkpt lat="47.2232" lon="-1.60706">
        <ele>37.2</ele>
        <time>2013-09-27T16:10:24Z</time>
      </trkpt>
      <trkpt lat="47.22309" lon="-1.60699">
        <ele>37.2</ele>
        <time>2013-09-27T16:10:26Z</time>
      </trkpt>
      <trkpt lat="47.22299" lon="-1.60693">
        <ele>37.2</ele>
        <time>2013-09-27T16:10:28Z</time>
      </trkpt>
      <trkpt lat="47.22287" lon="-1.60688">
        <ele>37.3</ele>
        <time>2013-09-27T16:10:30Z</time>
      </trkpt>
      <trkpt lat="47.22276" lon="-1.60683">
        <ele>37.8</ele>
        <time>2013-09-27T16:10:32Z</time>
      </trkpt>
      <trkpt lat="47.22266" lon="-1.60682">
        <ele>37.9</ele>
        <time>2013-09-27T16:10:34Z</time>
      </trkpt>
      <trkpt lat="47.22255" lon="-1.60692">
        <ele>39.1</ele>
        <time>2013-09-27T16:10:37Z</time>
      </trkpt>
      <trkpt lat="47.22249" lon="-1.60705">
        <ele>40.4</ele>
        <time>2013-09-27T16:10:39Z</time>
      </trkpt>
      <trkpt lat="47.22244" lon="-1.60717">
        <ele>40.4</ele>
        <time>2013-09-27T16:10:41Z</time>
      </trkpt>
      <trkpt lat="47.22237" lon="-1.6073">
        <ele>40.1</ele>
        <time>2013-09-27T16:10:44Z</time>
      </trkpt>
      <trkpt lat="47.22229" lon="-1.60741">
        <ele>39.9</ele>
        <time>2013-09-27T16:10:49Z</time>
      </trkpt>
      <trkpt lat="47.22221" lon="-1.60749">
        <ele>39.9</ele>
        <time>2013-09-27T16:10:52Z</time>
      </trkpt>
      <trkpt lat="47.22209" lon="-1.60756">
        <ele>39.9</ele>
        <time>2013-09-27T16:10:55Z</time>
      </trkpt>
      <trkpt lat="47.222" lon="-1.60762">
        <ele>39.9</ele>
        <time>2013-09-27T16:10:58Z</time>
      </trkpt>
      <trkpt lat="47.22189" lon="-1.60768">
        <ele>40</ele>
        <time>2013-09-27T16:11:02Z</time>
      </trkpt>
      <trkpt lat="47.22182" lon="-1.60778">
        <ele>40</ele>
        <time>2013-09-27T16:11:05Z</time>
      </trkpt>
      <trkpt lat="47.22179" lon="-1.60792">
        <ele>40.2</ele>
        <time>2013-09-27T16:11:08Z</time>
      </trkpt>
      <trkpt lat="47.22173" lon="-1.60803">
        <ele>40.3</ele>
        <time>2013-09-27T16:11:11Z</time>
      </trkpt>
      <trkpt lat="47.22167" lon="-1.60814">
        <ele>40.5</ele>
        <time>2013-09-27T16:11:14Z</time>
      </trkpt>
      <trkpt lat="47.22158" lon="-1.60825">
        <ele>40.8</ele>
        <time>2013-09-27T16:11:17Z</time>
      </trkpt>
      <trkpt lat="47.22149" lon="-1.60837">
        <ele>40.8</ele>
        <time>2013-09-27T16:11:20Z</time>
      </trkpt>
      <trkpt lat="47.22141" lon="-1.60848">
        <ele>40.6</ele>
        <time>2013-09-27T16:11:22Z</time>
      </trkpt>
      <trkpt lat="47.22134" lon="-1.60861">
        <ele>41.4</ele>
        <time>2013-09-27T16:11:24Z</time>
      </trkpt>
      <trkpt lat="47.22121" lon="-1.60878">
        <ele>41.6</ele>
        <time>2013-09-27T16:11:26Z</time>
      </trkpt>
      <trkpt lat="47.2211" lon="-1.60885">
        <ele>40.9</ele>
        <time>2013-09-27T16:11:28Z</time>
      </trkpt>
      <trkpt lat="47.22098" lon="-1.60889">
        <ele>40.7</ele>
        <time>2013-09-27T16:11:30Z</time>
      </trkpt>
      <trkpt lat="47.22085" lon="-1.60892">
        <ele>40.2</ele>
        <time>2013-09-27T16:11:32Z</time>
      </trkpt>
      <trkpt lat="47.22071" lon="-1.60892">
        <ele>39.9</ele>
        <time>2013-09-27T16:11:34Z</time>
      </trkpt>
      <trkpt lat="47.22058" lon="-1.60891">
        <ele>39.8</ele>
        <time>2013-09-27T16:11:36Z</time>
      </trkpt>
      <trkpt lat="47.22047" lon="-1.6089">
        <ele>39.7</ele>
        <time>2013-09-27T16:11:38Z</time>
      </trkpt>
      <trkpt lat="47.22037" lon="-1.60889">
        <ele>40.3</ele>
        <time>2013-09-27T16:11:40Z</time>
      </trkpt>
      <trkpt lat="47.22028" lon="-1.60889">
        <ele>40.6</ele>
        <time>2013-09-27T16:11:42Z</time>
      </trkpt>
      <trkpt lat="47.22018" lon="-1.6089">
        <ele>40.9</ele>
        <time>2013-09-27T16:11:44Z</time>
      </trkpt>
      <trkpt lat="47.22007" lon="-1.6089">
        <ele>41.9</ele>
        <time>2013-09-27T16:11:46Z</time>
      </trkpt>
      <trkpt lat="47.21998" lon="-1.60892">
        <ele>42.3</ele>
        <time>2013-09-27T16:11:48Z</time>
      </trkpt>
      <trkpt lat="47.21988" lon="-1.60896">
        <ele>41.8</ele>
        <time>2013-09-27T16:11:50Z</time>
      </trkpt>
      <trkpt lat="47.21978" lon="-1.609">
        <ele>42</ele>
        <time>2013-09-27T16:11:52Z</time>
      </trkpt>
      <trkpt lat="47.21969" lon="-1.60905">
        <ele>42.3</ele>
        <time>2013-09-27T16:11:54Z</time>
      </trkpt>
      <trkpt lat="47.2196" lon="-1.60911">
        <ele>42.5</ele>
        <time>2013-09-27T16:11:56Z</time>
      </trkpt>
      <trkpt lat="47.21951" lon="-1.60917">
        <ele>42.5</ele>
        <time>2013-09-27T16:11:58Z</time>
      </trkpt>
      <trkpt lat="47.21942" lon="-1.60924">
        <ele>42.3</ele>
        <time>2013-09-27T16:12:00Z</time>
      </trkpt>
      <trkpt lat="47.21933" lon="-1.60931">
        <ele>42</ele>
        <time>2013-09-27T16:12:02Z</time>
      </trkpt>
      <trkpt lat="47.21923" lon="-1.60938">
        <ele>42.4</ele>
        <time>2013-09-27T16:12:04Z</time>
      </trkpt>
      <trkpt lat="47.21913" lon="-1.60944">
        <ele>42.5</ele>
        <time>2013-09-27T16:12:06Z</time>
      </trkpt>
      <trkpt lat="47.21903" lon="-1.60951">
        <ele>42.9</ele>
        <time>2013-09-27T16:12:08Z</time>
      </trkpt>
      <trkpt lat="47.21894" lon="-1.60956">
        <ele>43.1</ele>
        <time>2013-09-27T16:12:10Z</time>
      </trkpt>
      <trkpt lat="47.21884" lon="-1.6096">
        <ele>43.2</ele>
        <time>2013-09-27T16:12:12Z</time>
      </trkpt>
      <trkpt lat="47.21874" lon="-1.60957">
        <ele>42.8</ele>
        <time>2013-09-27T16:12:14Z</time>
      </trkpt>
      <trkpt lat="47.21865" lon="-1.6095">
        <ele>41.9</ele>
        <time>2013-09-27T16:12:16Z</time>
      </trkpt>
      <trkpt lat="47.21857" lon="-1.60942">
        <ele>41.4</ele>
        <time>2013-09-27T16:12:18Z</time>
      </trkpt>
      <trkpt lat="47.21849" lon="-1.60932">
        <ele>41.3</ele>
        <time>2013-09-27T16:12:20Z</time>
      </trkpt>
      <trkpt lat="47.21839" lon="-1.60922">
        <ele>42</ele>
        <time>2013-09-27T16:12:22Z</time>
      </trkpt>
      <trkpt lat="47.21829" lon="-1.60917">
        <ele>42.6</ele>
        <time>2013-09-27T16:12:24Z</time>
      </trkpt>
      <trkpt lat="47.2182" lon="-1.60926">
        <ele>43.8</ele>
        <time>2013-09-27T16:12:26Z</time>
      </trkpt>
      <trkpt lat="47.21817" lon="-1.60945">
        <ele>44.3</ele>
        <time>2013-09-27T16:12:28Z</time>
      </trkpt>
      <trkpt lat="47.21817" lon="-1.60966">
        <ele>44.7</ele>
        <time>2013-09-27T16:12:30Z</time>
      </trkpt>
      <trkpt lat="47.21818" lon="-1.60982">
        <ele>44.8</ele>
        <time>2013-09-27T16:12:32Z</time>
      </trkpt>
      <trkpt lat="47.21818" lon="-1.60999">
        <ele>45.3</ele>
        <time>2013-09-27T16:12:34Z</time>
      </trkpt>
      <trkpt lat="47.21818" lon="-1.61019">
        <ele>45.5</ele>
        <time>2013-09-27T16:12:37Z</time>
      </trkpt>
      <trkpt lat="47.21817" lon="-1.61035">
        <ele>45.7</ele>
        <time>2013-09-27T16:12:39Z</time>
      </trkpt>
      <trkpt lat="47.21814" lon="-1.61049">
        <ele>45.9</ele>
        <time>2013-09-27T16:12:41Z</time>
      </trkpt>
      <trkpt lat="47.21808" lon="-1.6106">
        <ele>45</ele>
        <time>2013-09-27T16:12:43Z</time>
      </trkpt>
      <trkpt lat="47.21802" lon="-1.61071">
        <ele>44.5</ele>
        <time>2013-09-27T16:12:45Z</time>
      </trkpt>
      <trkpt lat="47.21798" lon="-1.61083">
        <ele>44.5</ele>
        <time>2013-09-27T16:12:48Z</time>
      </trkpt>
      <trkpt lat="47.21792" lon="-1.61095">
        <ele>44.5</ele>
        <time>2013-09-27T16:12:51Z</time>
      </trkpt>
      <trkpt lat="47.21786" lon="-1.61105">
        <ele>43.9</ele>
        <time>2013-09-27T16:12:53Z</time>
      </trkpt>
      <trkpt lat="47.21777" lon="-1.61119">
        <ele>44</ele>
        <time>2013-09-27T16:12:56Z</time>
      </trkpt>
      <trkpt lat="47.21769" lon="-1.61133">
        <ele>44.1</ele>
        <time>2013-09-27T16:12:59Z</time>
      </trkpt>
      <trkpt lat="47.21763" lon="-1.61146">
        <ele>44.3</ele>
        <time>2013-09-27T16:13:02Z</time>
      </trkpt>
      <trkpt lat="47.21756" lon="-1.61161">
        <ele>44.5</ele>
        <time>2013-09-27T16:13:05Z</time>
      </trkpt>
      <trkpt lat="47.21748" lon="-1.61173">
        <ele>45.1</ele>
        <time>2013-09-27T16:13:08Z</time>
      </trkpt>
      <trkpt lat="47.21739" lon="-1.61188">
        <ele>46.4</ele>
        <time>2013-09-27T16:13:11Z</time>
      </trkpt>
      <trkpt lat="47.21734" lon="-1.61201">
        <ele>46.4</ele>
        <time>2013-09-27T16:13:13Z</time>
      </trkpt>
      <trkpt lat="47.2173" lon="-1.61214">
        <ele>46.8</ele>
        <time>2013-09-27T16:13:15Z</time>
      </trkpt>
      <trkpt lat="47.21727" lon="-1.61228">
        <ele>46.8</ele>
        <time>2013-09-27T16:13:17Z</time>
      </trkpt>
      <trkpt lat="47.21725" lon="-1.61244">
        <ele>46.8</ele>
        <time>2013-09-27T16:13:20Z</time>
      </trkpt>
      <trkpt lat="47.21714" lon="-1.6125">
        <ele>46.4</ele>
        <time>2013-09-27T16:13:23Z</time>
      </trkpt>
      <trkpt lat="47.21704" lon="-1.61254">
        <ele>45.7</ele>
        <time>2013-09-27T16:13:25Z</time>
      </trkpt>
      <trkpt lat="47.21693" lon="-1.61261">
        <ele>44.5</ele>
        <time>2013-09-27T16:13:27Z</time>
      </trkpt>
      <trkpt lat="47.2168" lon="-1.6127">
        <ele>41.8</ele>
        <time>2013-09-27T16:13:29Z</time>
      </trkpt>
      <trkpt lat="47.21669" lon="-1.61275">
        <ele>39.6</ele>
        <time>2013-09-27T16:13:31Z</time>
      </trkpt>
      <trkpt lat="47.21655" lon="-1.61276">
        <ele>38.3</ele>
        <time>2013-09-27T16:13:33Z</time>
      </trkpt>
      <trkpt lat="47.21641" lon="-1.61277">
        <ele>38.9</ele>
        <time>2013-09-27T16:13:35Z</time>
      </trkpt>
      <trkpt lat="47.21632" lon="-1.61282">
        <ele>39.2</ele>
        <time>2013-09-27T16:13:37Z</time>
      </trkpt>
      <trkpt lat="47.21627" lon="-1.61296">
        <ele>39.5</ele>
        <time>2013-09-27T16:13:39Z</time>
      </trkpt>
      <trkpt lat="47.21625" lon="-1.61314">
        <ele>40.2</ele>
        <time>2013-09-27T16:13:41Z</time>
      </trkpt>
      <trkpt lat="47.21626" lon="-1.61334">
        <ele>41.4</ele>
        <time>2013-09-27T16:13:43Z</time>
      </trkpt>
      <trkpt lat="47.21627" lon="-1.61353">
        <ele>41.8</ele>
        <time>2013-09-27T16:13:45Z</time>
      </trkpt>
      <trkpt lat="47.21626" lon="-1.61369">
        <ele>41.9</ele>
        <time>2013-09-27T16:13:47Z</time>
      </trkpt>
      <trkpt lat="47.2162" lon="-1.61381">
        <ele>42.6</ele>
        <time>2013-09-27T16:13:49Z</time>
      </trkpt>
      <trkpt lat="47.2161" lon="-1.61389">
        <ele>43</ele>
        <time>2013-09-27T16:13:51Z</time>
      </trkpt>
      <trkpt lat="47.21598" lon="-1.61398">
        <ele>43.5</ele>
        <time>2013-09-27T16:13:53Z</time>
      </trkpt>
      <trkpt lat="47.21585" lon="-1.61406">
        <ele>44.1</ele>
        <time>2013-09-27T16:13:55Z</time>
      </trkpt>
      <trkpt lat="47.21574" lon="-1.61415">
        <ele>44.5</ele>
        <time>2013-09-27T16:13:57Z</time>
      </trkpt>
      <trkpt lat="47.21562" lon="-1.61424">
        <ele>44.1</ele>
        <time>2013-09-27T16:13:59Z</time>
      </trkpt>
      <trkpt lat="47.21549" lon="-1.61433">
        <ele>41.4</ele>
        <time>2013-09-27T16:14:01Z</time>
      </trkpt>
      <trkpt lat="47.21537" lon="-1.61443">
        <ele>40.7</ele>
        <time>2013-09-27T16:14:03Z</time>
      </trkpt>
      <trkpt lat="47.21527" lon="-1.61454">
        <ele>41.1</ele>
        <time>2013-09-27T16:14:05Z</time>
      </trkpt>
      <trkpt lat="47.21515" lon="-1.61465">
        <ele>40.8</ele>
        <time>2013-09-27T16:14:07Z</time>
      </trkpt>
      <trkpt lat="47.21505" lon="-1.61475">
        <ele>40.1</ele>
        <time>2013-09-27T16:14:09Z</time>
      </trkpt>
      <trkpt lat="47.21494" lon="-1.61485">
        <ele>39</ele>
        <time>2013-09-27T16:14:11Z</time>
      </trkpt>
      <trkpt lat="47.21483" lon="-1.61494">
        <ele>38.2</ele>
        <time>2013-09-27T16:14:13Z</time>
      </trkpt>
      <trkpt lat="47.21472" lon="-1.61502">
        <ele>38.5</ele>
        <time>2013-09-27T16:14:15Z</time>
      </trkpt>
      <trkpt lat="47.21462" lon="-1.6151">
        <ele>37.5</ele>
        <time>2013-09-27T16:14:17Z</time>
      </trkpt>
      <trkpt lat="47.21453" lon="-1.61518">
        <ele>36.5</ele>
        <time>2013-09-27T16:14:19Z</time>
      </trkpt>
      <trkpt lat="47.21442" lon="-1.61526">
        <ele>36.4</ele>
        <time>2013-09-27T16:14:21Z</time>
      </trkpt>
      <trkpt lat="47.21434" lon="-1.61533">
        <ele>36.6</ele>
        <time>2013-09-27T16:14:23Z</time>
      </trkpt>
      <trkpt lat="47.21424" lon="-1.61542">
        <ele>36.6</ele>
        <time>2013-09-27T16:14:25Z</time>
      </trkpt>
      <trkpt lat="47.21415" lon="-1.6155">
        <ele>35.6</ele>
        <time>2013-09-27T16:14:27Z</time>
      </trkpt>
      <trkpt lat="47.21404" lon="-1.61559">
        <ele>33.9</ele>
        <time>2013-09-27T16:14:29Z</time>
      </trkpt>
      <trkpt lat="47.21394" lon="-1.61568">
        <ele>32.3</ele>
        <time>2013-09-27T16:14:31Z</time>
      </trkpt>
      <trkpt lat="47.21383" lon="-1.61577">
        <ele>31.3</ele>
        <time>2013-09-27T16:14:33Z</time>
      </trkpt>
      <trkpt lat="47.21373" lon="-1.61585">
        <ele>30.6</ele>
        <time>2013-09-27T16:14:35Z</time>
      </trkpt>
      <trkpt lat="47.21364" lon="-1.61592">
        <ele>30.8</ele>
        <time>2013-09-27T16:14:37Z</time>
      </trkpt>
      <trkpt lat="47.21355" lon="-1.61602">
        <ele>30.2</ele>
        <time>2013-09-27T16:14:40Z</time>
      </trkpt>
      <trkpt lat="47.21348" lon="-1.61612">
        <ele>30.1</ele>
        <time>2013-09-27T16:14:43Z</time>
      </trkpt>
      <trkpt lat="47.2134" lon="-1.6162">
        <ele>30.1</ele>
        <time>2013-09-27T16:14:46Z</time>
      </trkpt>
      <trkpt lat="47.21332" lon="-1.61626">
        <ele>30</ele>
        <time>2013-09-27T16:14:48Z</time>
      </trkpt>
      <trkpt lat="47.21322" lon="-1.61635">
        <ele>30.2</ele>
        <time>2013-09-27T16:14:50Z</time>
      </trkpt>
      <trkpt lat="47.21312" lon="-1.61643">
        <ele>29.6</ele>
        <time>2013-09-27T16:14:52Z</time>
      </trkpt>
      <trkpt lat="47.21303" lon="-1.61651">
        <ele>29</ele>
        <time>2013-09-27T16:14:54Z</time>
      </trkpt>
      <trkpt lat="47.21294" lon="-1.61659">
        <ele>28.1</ele>
        <time>2013-09-27T16:14:56Z</time>
      </trkpt>
      <trkpt lat="47.21284" lon="-1.61669">
        <ele>28.2</ele>
        <time>2013-09-27T16:14:58Z</time>
      </trkpt>
      <trkpt lat="47.21276" lon="-1.61678">
        <ele>30.3</ele>
        <time>2013-09-27T16:15:00Z</time>
      </trkpt>
      <trkpt lat="47.21268" lon="-1.61687">
        <ele>32.5</ele>
        <time>2013-09-27T16:15:02Z</time>
      </trkpt>
      <trkpt lat="47.2126" lon="-1.61697">
        <ele>33.8</ele>
        <time>2013-09-27T16:15:04Z</time>
      </trkpt>
      <trkpt lat="47.2125" lon="-1.61707">
        <ele>33.2</ele>
        <time>2013-09-27T16:15:06Z</time>
      </trkpt>
      <trkpt lat="47.21241" lon="-1.61716">
        <ele>32.1</ele>
        <time>2013-09-27T16:15:08Z</time>
      </trkpt>
      <trkpt lat="47.2123" lon="-1.61725">
        <ele>32.3</ele>
        <time>2013-09-27T16:15:10Z</time>
      </trkpt>
      <trkpt lat="47.21219" lon="-1.61734">
        <ele>32.2</ele>
        <time>2013-09-27T16:15:12Z</time>
      </trkpt>
      <trkpt lat="47.21208" lon="-1.61741">
        <ele>32.3</ele>
        <time>2013-09-27T16:15:14Z</time>
      </trkpt>
      <trkpt lat="47.21199" lon="-1.61749">
        <ele>33.2</ele>
        <time>2013-09-27T16:15:16Z</time>
      </trkpt>
      <trkpt lat="47.2119" lon="-1.61758">
        <ele>34</ele>
        <time>2013-09-27T16:15:18Z</time>
      </trkpt>
      <trkpt lat="47.2118" lon="-1.61766">
        <ele>33.4</ele>
        <time>2013-09-27T16:15:20Z</time>
      </trkpt>
      <trkpt lat="47.2117" lon="-1.61773">
        <ele>33</ele>
        <time>2013-09-27T16:15:22Z</time>
      </trkpt>
      <trkpt lat="47.2116" lon="-1.61777">
        <ele>31.8</ele>
        <time>2013-09-27T16:15:24Z</time>
      </trkpt>
      <trkpt lat="47.21151" lon="-1.61775">
        <ele>31.4</ele>
        <time>2013-09-27T16:15:26Z</time>
      </trkpt>
      <trkpt lat="47.21142" lon="-1.61773">
        <ele>31.2</ele>
        <time>2013-09-27T16:15:28Z</time>
      </trkpt>
      <trkpt lat="47.21132" lon="-1.61778">
        <ele>31.5</ele>
        <time>2013-09-27T16:15:30Z</time>
      </trkpt>
      <trkpt lat="47.21125" lon="-1.6179">
        <ele>32.5</ele>
        <time>2013-09-27T16:15:32Z</time>
      </trkpt>
      <trkpt lat="47.2112" lon="-1.61805">
        <ele>33.8</ele>
        <time>2013-09-27T16:15:34Z</time>
      </trkpt>
      <trkpt lat="47.21114" lon="-1.61823">
        <ele>34.3</ele>
        <time>2013-09-27T16:15:36Z</time>
      </trkpt>
      <trkpt lat="47.21109" lon="-1.6184">
        <ele>33.9</ele>
        <time>2013-09-27T16:15:38Z</time>
      </trkpt>
      <trkpt lat="47.21104" lon="-1.61857">
        <ele>34.4</ele>
        <time>2013-09-27T16:15:40Z</time>
      </trkpt>
      <trkpt lat="47.211" lon="-1.61874">
        <ele>34.6</ele>
        <time>2013-09-27T16:15:42Z</time>
      </trkpt>
      <trkpt lat="47.21096" lon="-1.61891">
        <ele>34.6</ele>
        <time>2013-09-27T16:15:44Z</time>
      </trkpt>
      <trkpt lat="47.21091" lon="-1.61909">
        <ele>35.4</ele>
        <time>2013-09-27T16:15:46Z</time>
      </trkpt>
      <trkpt lat="47.21087" lon="-1.61925">
        <ele>35.7</ele>
        <time>2013-09-27T16:15:48Z</time>
      </trkpt>
      <trkpt lat="47.21083" lon="-1.6194">
        <ele>36.4</ele>
        <time>2013-09-27T16:15:50Z</time>
      </trkpt>
      <trkpt lat="47.2108" lon="-1.61955">
        <ele>37.7</ele>
        <time>2013-09-27T16:15:52Z</time>
      </trkpt>
      <trkpt lat="47.21076" lon="-1.6197">
        <ele>38.1</ele>
        <time>2013-09-27T16:15:54Z</time>
      </trkpt>
      <trkpt lat="47.21074" lon="-1.61984">
        <ele>37.7</ele>
        <time>2013-09-27T16:15:56Z</time>
      </trkpt>
      <trkpt lat="47.21072" lon="-1.61998">
        <ele>37.2</ele>
        <time>2013-09-27T16:15:58Z</time>
      </trkpt>
      <trkpt lat="47.21069" lon="-1.62013">
        <ele>37.1</ele>
        <time>2013-09-27T16:16:00Z</time>
      </trkpt>
      <trkpt lat="47.21068" lon="-1.6203">
        <ele>36.6</ele>
        <time>2013-09-27T16:16:02Z</time>
      </trkpt>
      <trkpt lat="47.21067" lon="-1.62045">
        <ele>36.2</ele>
        <time>2013-09-27T16:16:04Z</time>
      </trkpt>
      <trkpt lat="47.21067" lon="-1.62061">
        <ele>36</ele>
        <time>2013-09-27T16:16:06Z</time>
      </trkpt>
      <trkpt lat="47.21068" lon="-1.62075">
        <ele>36.3</ele>
        <time>2013-09-27T16:16:08Z</time>
      </trkpt>
      <trkpt lat="47.21069" lon="-1.62091">
        <ele>36.7</ele>
        <time>2013-09-27T16:16:10Z</time>
      </trkpt>
      <trkpt lat="47.2107" lon="-1.62106">
        <ele>37.5</ele>
        <time>2013-09-27T16:16:12Z</time>
      </trkpt>
      <trkpt lat="47.21071" lon="-1.62121">
        <ele>38.3</ele>
        <time>2013-09-27T16:16:14Z</time>
      </trkpt>
      <trkpt lat="47.21071" lon="-1.62136">
        <ele>38.6</ele>
        <time>2013-09-27T16:16:16Z</time>
      </trkpt>
      <trkpt lat="47.21072" lon="-1.62152">
        <ele>38.7</ele>
        <time>2013-09-27T16:16:18Z</time>
      </trkpt>
      <trkpt lat="47.21072" lon="-1.62171">
        <ele>38.2</ele>
        <time>2013-09-27T16:16:20Z</time>
      </trkpt>
      <trkpt lat="47.21073" lon="-1.62189">
        <ele>38.2</ele>
        <time>2013-09-27T16:16:22Z</time>
      </trkpt>
      <trkpt lat="47.21073" lon="-1.62203">
        <ele>37.9</ele>
        <time>2013-09-27T16:16:24Z</time>
      </trkpt>
      <trkpt lat="47.21074" lon="-1.62219">
        <ele>37.6</ele>
        <time>2013-09-27T16:16:26Z</time>
      </trkpt>
      <trkpt lat="47.21075" lon="-1.62235">
        <ele>37.5</ele>
        <time>2013-09-27T16:16:28Z</time>
      </trkpt>
      <trkpt lat="47.21075" lon="-1.62252">
        <ele>37.5</ele>
        <time>2013-09-27T16:16:30Z</time>
      </trkpt>
      <trkpt lat="47.21076" lon="-1.62268">
        <ele>38</ele>
        <time>2013-09-27T16:16:32Z</time>
      </trkpt>
      <trkpt lat="47.21076" lon="-1.62284">
        <ele>38.6</ele>
        <time>2013-09-27T16:16:34Z</time>
      </trkpt>
      <trkpt lat="47.21077" lon="-1.62303">
        <ele>39.4</ele>
        <time>2013-09-27T16:16:36Z</time>
      </trkpt>
      <trkpt lat="47.21077" lon="-1.62319">
        <ele>39.7</ele>
        <time>2013-09-27T16:16:38Z</time>
      </trkpt>
      <trkpt lat="47.21078" lon="-1.62336">
        <ele>39.4</ele>
        <time>2013-09-27T16:16:40Z</time>
      </trkpt>
      <trkpt lat="47.21078" lon="-1.62354">
        <ele>38.8</ele>
        <time>2013-09-27T16:16:42Z</time>
      </trkpt>
      <trkpt lat="47.21079" lon="-1.62372">
        <ele>38.5</ele>
        <time>2013-09-27T16:16:44Z</time>
      </trkpt>
      <trkpt lat="47.2108" lon="-1.62391">
        <ele>38.3</ele>
        <time>2013-09-27T16:16:46Z</time>
      </trkpt>
      <trkpt lat="47.2108" lon="-1.62409">
        <ele>38.2</ele>
        <time>2013-09-27T16:16:48Z</time>
      </trkpt>
      <trkpt lat="47.21081" lon="-1.62427">
        <ele>38.2</ele>
        <time>2013-09-27T16:16:50Z</time>
      </trkpt>
      <trkpt lat="47.21082" lon="-1.62445">
        <ele>37.8</ele>
        <time>2013-09-27T16:16:52Z</time>
      </trkpt>
      <trkpt lat="47.21083" lon="-1.62464">
        <ele>37.5</ele>
        <time>2013-09-27T16:16:54Z</time>
      </trkpt>
      <trkpt lat="47.21084" lon="-1.62482">
        <ele>37.2</ele>
        <time>2013-09-27T16:16:56Z</time>
      </trkpt>
      <trkpt lat="47.21085" lon="-1.625">
        <ele>37.2</ele>
        <time>2013-09-27T16:16:58Z</time>
      </trkpt>
      <trkpt lat="47.21086" lon="-1.62519">
        <ele>37.4</ele>
        <time>2013-09-27T16:17:00Z</time>
      </trkpt>
      <trkpt lat="47.21087" lon="-1.62536">
        <ele>37.1</ele>
        <time>2013-09-27T16:17:02Z</time>
      </trkpt>
      <trkpt lat="47.21087" lon="-1.62555">
        <ele>37</ele>
        <time>2013-09-27T16:17:04Z</time>
      </trkpt>
      <trkpt lat="47.21087" lon="-1.62573">
        <ele>36.7</ele>
        <time>2013-09-27T16:17:06Z</time>
      </trkpt>
      <trkpt lat="47.21089" lon="-1.62591">
        <ele>37.1</ele>
        <time>2013-09-27T16:17:08Z</time>
      </trkpt>
      <trkpt lat="47.21093" lon="-1.62608">
        <ele>37.3</ele>
        <time>2013-09-27T16:17:10Z</time>
      </trkpt>
      <trkpt lat="47.21096" lon="-1.62623">
        <ele>37.4</ele>
        <time>2013-09-27T16:17:12Z</time>
      </trkpt>
      <trkpt lat="47.21093" lon="-1.62642">
        <ele>37.6</ele>
        <time>2013-09-27T16:17:14Z</time>
      </trkpt>
      <trkpt lat="47.21088" lon="-1.62658">
        <ele>37.5</ele>
        <time>2013-09-27T16:17:16Z</time>
      </trkpt>
      <trkpt lat="47.21085" lon="-1.62675">
        <ele>37.3</ele>
        <time>2013-09-27T16:17:18Z</time>
      </trkpt>
      <trkpt lat="47.21085" lon="-1.62693">
        <ele>36.8</ele>
        <time>2013-09-27T16:17:20Z</time>
      </trkpt>
      <trkpt lat="47.21085" lon="-1.62711">
        <ele>36.6</ele>
        <time>2013-09-27T16:17:22Z</time>
      </trkpt>
      <trkpt lat="47.21085" lon="-1.6273">
        <ele>36.2</ele>
        <time>2013-09-27T16:17:24Z</time>
      </trkpt>
      <trkpt lat="47.21086" lon="-1.62748">
        <ele>35.8</ele>
        <time>2013-09-27T16:17:26Z</time>
      </trkpt>
      <trkpt lat="47.21088" lon="-1.62766">
        <ele>35.1</ele>
        <time>2013-09-27T16:17:28Z</time>
      </trkpt>
      <trkpt lat="47.21094" lon="-1.62784">
        <ele>34.4</ele>
        <time>2013-09-27T16:17:30Z</time>
      </trkpt>
      <trkpt lat="47.21104" lon="-1.62801">
        <ele>34.6</ele>
        <time>2013-09-27T16:17:32Z</time>
      </trkpt>
      <trkpt lat="47.21112" lon="-1.62815">
        <ele>34.7</ele>
        <time>2013-09-27T16:17:34Z</time>
      </trkpt>
      <trkpt lat="47.21114" lon="-1.62835">
        <ele>35</ele>
        <time>2013-09-27T16:17:36Z</time>
      </trkpt>
      <trkpt lat="47.21108" lon="-1.62855">
        <ele>35.6</ele>
        <time>2013-09-27T16:17:38Z</time>
      </trkpt>
      <trkpt lat="47.21093" lon="-1.62863">
        <ele>35.3</ele>
        <time>2013-09-27T16:17:40Z</time>
      </trkpt>
      <trkpt lat="47.21077" lon="-1.6286">
        <ele>34.7</ele>
        <time>2013-09-27T16:17:42Z</time>
      </trkpt>
      <trkpt lat="47.21062" lon="-1.62855">
        <ele>33.4</ele>
        <time>2013-09-27T16:17:44Z</time>
      </trkpt>
      <trkpt lat="47.21048" lon="-1.62854">
        <ele>32.1</ele>
        <time>2013-09-27T16:17:46Z</time>
      </trkpt>
      <trkpt lat="47.21035" lon="-1.62859">
        <ele>31.2</ele>
        <time>2013-09-27T16:17:48Z</time>
      </trkpt>
      <trkpt lat="47.21022" lon="-1.62866">
        <ele>30.3</ele>
        <time>2013-09-27T16:17:50Z</time>
      </trkpt>
      <trkpt lat="47.2101" lon="-1.62873">
        <ele>30.4</ele>
        <time>2013-09-27T16:17:52Z</time>
      </trkpt>
      <trkpt lat="47.21002" lon="-1.62888">
        <ele>30.6</ele>
        <time>2013-09-27T16:17:54Z</time>
      </trkpt>
      <trkpt lat="47.20995" lon="-1.6291">
        <ele>30.5</ele>
        <time>2013-09-27T16:17:56Z</time>
      </trkpt>
      <trkpt lat="47.20989" lon="-1.6293">
        <ele>30.1</ele>
        <time>2013-09-27T16:17:58Z</time>
      </trkpt>
      <trkpt lat="47.20983" lon="-1.62949">
        <ele>29.8</ele>
        <time>2013-09-27T16:18:00Z</time>
      </trkpt>
      <trkpt lat="47.20977" lon="-1.62969">
        <ele>30.2</ele>
        <time>2013-09-27T16:18:02Z</time>
      </trkpt>
      <trkpt lat="47.20973" lon="-1.62989">
        <ele>30.2</ele>
        <time>2013-09-27T16:18:04Z</time>
      </trkpt>
      <trkpt lat="47.20969" lon="-1.6301">
        <ele>30</ele>
        <time>2013-09-27T16:18:06Z</time>
      </trkpt>
      <trkpt lat="47.20965" lon="-1.6303">
        <ele>30</ele>
        <time>2013-09-27T16:18:08Z</time>
      </trkpt>
      <trkpt lat="47.20963" lon="-1.63051">
        <ele>29.5</ele>
        <time>2013-09-27T16:18:10Z</time>
      </trkpt>
      <trkpt lat="47.20959" lon="-1.63071">
        <ele>29</ele>
        <time>2013-09-27T16:18:12Z</time>
      </trkpt>
      <trkpt lat="47.20955" lon="-1.63092">
        <ele>28.7</ele>
        <time>2013-09-27T16:18:14Z</time>
      </trkpt>
      <trkpt lat="47.20952" lon="-1.63113">
        <ele>28.2</ele>
        <time>2013-09-27T16:18:16Z</time>
      </trkpt>
      <trkpt lat="47.20948" lon="-1.63134">
        <ele>28.1</ele>
        <time>2013-09-27T16:18:18Z</time>
      </trkpt>
      <trkpt lat="47.20944" lon="-1.63154">
        <ele>28</ele>
        <time>2013-09-27T16:18:20Z</time>
      </trkpt>
      <trkpt lat="47.2094" lon="-1.63174">
        <ele>28.3</ele>
        <time>2013-09-27T16:18:22Z</time>
      </trkpt>
      <trkpt lat="47.20937" lon="-1.63195">
        <ele>28.9</ele>
        <time>2013-09-27T16:18:24Z</time>
      </trkpt>
      <trkpt lat="47.20934" lon="-1.63214">
        <ele>28.4</ele>
        <time>2013-09-27T16:18:26Z</time>
      </trkpt>
      <trkpt lat="47.20931" lon="-1.63235">
        <ele>27.7</ele>
        <time>2013-09-27T16:18:28Z</time>
      </trkpt>
      <trkpt lat="47.20929" lon="-1.63257">
        <ele>27.1</ele>
        <time>2013-09-27T16:18:30Z</time>
      </trkpt>
      <trkpt lat="47.20927" lon="-1.63277">
        <ele>26.4</ele>
        <time>2013-09-27T16:18:32Z</time>
      </trkpt>
      <trkpt lat="47.20925" lon="-1.63298">
        <ele>27</ele>
        <time>2013-09-27T16:18:34Z</time>
      </trkpt>
      <trkpt lat="47.20922" lon="-1.63323">
        <ele>26.6</ele>
        <time>2013-09-27T16:18:36Z</time>
      </trkpt>
      <trkpt lat="47.20918" lon="-1.63348">
        <ele>24.8</ele>
        <time>2013-09-27T16:18:38Z</time>
      </trkpt>
      <trkpt lat="47.20913" lon="-1.63372">
        <ele>23.5</ele>
        <time>2013-09-27T16:18:40Z</time>
      </trkpt>
      <trkpt lat="47.20907" lon="-1.63394">
        <ele>22.8</ele>
        <time>2013-09-27T16:18:42Z</time>
      </trkpt>
      <trkpt lat="47.209" lon="-1.63415">
        <ele>22.5</ele>
        <time>2013-09-27T16:18:44Z</time>
      </trkpt>
      <trkpt lat="47.2089" lon="-1.63436">
        <ele>22.5</ele>
        <time>2013-09-27T16:18:46Z</time>
      </trkpt>
      <trkpt lat="47.20878" lon="-1.63455">
        <ele>22.6</ele>
        <time>2013-09-27T16:18:48Z</time>
      </trkpt>
      <trkpt lat="47.20865" lon="-1.63472">
        <ele>22.6</ele>
        <time>2013-09-27T16:18:50Z</time>
      </trkpt>
      <trkpt lat="47.20856" lon="-1.63479">
        <ele>22.7</ele>
        <time>2013-09-27T16:18:51Z</time>
      </trkpt>
      <trkpt lat="47.20848" lon="-1.63487">
        <ele>22.3</ele>
        <time>2013-09-27T16:18:52Z</time>
      </trkpt>
      <trkpt lat="47.20839" lon="-1.63494">
        <ele>21.9</ele>
        <time>2013-09-27T16:18:53Z</time>
      </trkpt>
      <trkpt lat="47.20831" lon="-1.63501">
        <ele>22.2</ele>
        <time>2013-09-27T16:18:54Z</time>
      </trkpt>
      <trkpt lat="47.20823" lon="-1.63509">
        <ele>22.7</ele>
        <time>2013-09-27T16:18:55Z</time>
      </trkpt>
      <trkpt lat="47.20815" lon="-1.63517">
        <ele>23.3</ele>
        <time>2013-09-27T16:18:56Z</time>
      </trkpt>
      <trkpt lat="47.20807" lon="-1.63525">
        <ele>23.2</ele>
        <time>2013-09-27T16:18:57Z</time>
      </trkpt>
      <trkpt lat="47.20799" lon="-1.63533">
        <ele>23.1</ele>
        <time>2013-09-27T16:18:58Z</time>
      </trkpt>
      <trkpt lat="47.20792" lon="-1.63542">
        <ele>23.2</ele>
        <time>2013-09-27T16:18:59Z</time>
      </trkpt>
      <trkpt lat="47.20785" lon="-1.63551">
        <ele>22.6</ele>
        <time>2013-09-27T16:19:00Z</time>
      </trkpt>
      <trkpt lat="47.20777" lon="-1.63569">
        <ele>21.2</ele>
        <time>2013-09-27T16:19:02Z</time>
      </trkpt>
      <trkpt lat="47.20779" lon="-1.63584">
        <ele>20.4</ele>
        <time>2013-09-27T16:19:03Z</time>
      </trkpt>
      <trkpt lat="47.20781" lon="-1.63598">
        <ele>19.6</ele>
        <time>2013-09-27T16:19:04Z</time>
      </trkpt>
      <trkpt lat="47.20783" lon="-1.63613">
        <ele>18.8</ele>
        <time>2013-09-27T16:19:05Z</time>
      </trkpt>
      <trkpt lat="47.20785" lon="-1.6363">
        <ele>18.6</ele>
        <time>2013-09-27T16:19:06Z</time>
      </trkpt>
      <trkpt lat="47.20788" lon="-1.63647">
        <ele>18</ele>
        <time>2013-09-27T16:19:07Z</time>
      </trkpt>
      <trkpt lat="47.2079" lon="-1.63664">
        <ele>16.6</ele>
        <time>2013-09-27T16:19:08Z</time>
      </trkpt>
      <trkpt lat="47.20794" lon="-1.63681">
        <ele>15.6</ele>
        <time>2013-09-27T16:19:09Z</time>
      </trkpt>
      <trkpt lat="47.20797" lon="-1.63696">
        <ele>14.7</ele>
        <time>2013-09-27T16:19:10Z</time>
      </trkpt>
      <trkpt lat="47.208" lon="-1.6371">
        <ele>14.2</ele>
        <time>2013-09-27T16:19:11Z</time>
      </trkpt>
      <trkpt lat="47.20803" lon="-1.63723">
        <ele>13.9</ele>
        <time>2013-09-27T16:19:12Z</time>
      </trkpt>
      <trkpt lat="47.20806" lon="-1.63736">
        <ele>13</ele>
        <time>2013-09-27T16:19:13Z</time>
      </trkpt>
      <trkpt lat="47.20813" lon="-1.63758">
        <ele>11</ele>
        <time>2013-09-27T16:19:15Z</time>
      </trkpt>
      <trkpt lat="47.20817" lon="-1.63779">
        <ele>9.6</ele>
        <time>2013-09-27T16:19:17Z</time>
      </trkpt>
      <trkpt lat="47.20822" lon="-1.638">
        <ele>8.1</ele>
        <time>2013-09-27T16:19:19Z</time>
      </trkpt>
      <trkpt lat="47.20828" lon="-1.63818">
        <ele>7.1</ele>
        <time>2013-09-27T16:19:21Z</time>
      </trkpt>
      <trkpt lat="47.20834" lon="-1.63837">
        <ele>7</ele>
        <time>2013-09-27T16:19:23Z</time>
      </trkpt>
      <trkpt lat="47.20837" lon="-1.63852">
        <ele>7.3</ele>
        <time>2013-09-27T16:19:25Z</time>
      </trkpt>
      <trkpt lat="47.2084" lon="-1.63867">
        <ele>9.6</ele>
        <time>2013-09-27T16:19:28Z</time>
      </trkpt>
      <trkpt lat="47.20842" lon="-1.63883">
        <ele>11.7</ele>
        <time>2013-09-27T16:19:31Z</time>
      </trkpt>
      <trkpt lat="47.20845" lon="-1.63899">
        <ele>13.7</ele>
        <time>2013-09-27T16:19:34Z</time>
      </trkpt>
      <trkpt lat="47.20849" lon="-1.63916">
        <ele>14.5</ele>
        <time>2013-09-27T16:19:37Z</time>
      </trkpt>
      <trkpt lat="47.20854" lon="-1.63932">
        <ele>14.8</ele>
        <time>2013-09-27T16:19:40Z</time>
      </trkpt>
      <trkpt lat="47.20858" lon="-1.63947">
        <ele>15</ele>
        <time>2013-09-27T16:19:43Z</time>
      </trkpt>
      <trkpt lat="47.20862" lon="-1.63962">
        <ele>15</ele>
        <time>2013-09-27T16:19:46Z</time>
      </trkpt>
      <trkpt lat="47.20865" lon="-1.63976">
        <ele>15.1</ele>
        <time>2013-09-27T16:19:49Z</time>
      </trkpt>
      <trkpt lat="47.20869" lon="-1.63993">
        <ele>15.2</ele>
        <time>2013-09-27T16:19:53Z</time>
      </trkpt>
      <trkpt lat="47.20872" lon="-1.64007">
        <ele>15.4</ele>
        <time>2013-09-27T16:19:56Z</time>
      </trkpt>
      <trkpt lat="47.20876" lon="-1.64022">
        <ele>15.6</ele>
        <time>2013-09-27T16:20:00Z</time>
      </trkpt>
      <trkpt lat="47.2088" lon="-1.64034">
        <ele>15.9</ele>
        <time>2013-09-27T16:20:03Z</time>
      </trkpt>
      <trkpt lat="47.20885" lon="-1.64047">
        <ele>16.1</ele>
        <time>2013-09-27T16:20:06Z</time>
      </trkpt>
      <trkpt lat="47.2089" lon="-1.64058">
        <ele>16.3</ele>
        <time>2013-09-27T16:20:09Z</time>
      </trkpt>
      <trkpt lat="47.20895" lon="-1.64071">
        <ele>16.5</ele>
        <time>2013-09-27T16:20:12Z</time>
      </trkpt>
      <trkpt lat="47.20903" lon="-1.6408">
        <ele>16.8</ele>
        <time>2013-09-27T16:20:16Z</time>
      </trkpt>
      <trkpt lat="47.20913" lon="-1.6408">
        <ele>17</ele>
        <time>2013-09-27T16:20:20Z</time>
      </trkpt>
      <trkpt lat="47.20913" lon="-1.64066">
        <ele>17.3</ele>
        <time>2013-09-27T16:20:59Z</time>
      </trkpt>
      <trkpt lat="47.2092" lon="-1.64054">
        <ele>18.9</ele>
        <time>2013-09-27T16:24:28Z</time>
      </trkpt>
      <trkpt lat="47.20925" lon="-1.64043">
        <ele>19</ele>
        <time>2013-09-27T16:24:31Z</time>
      </trkpt>
      <trkpt lat="47.20931" lon="-1.64031">
        <ele>19.2</ele>
        <time>2013-09-27T16:24:35Z</time>
      </trkpt>
      <trkpt lat="47.20941" lon="-1.64031">
        <ele>19.6</ele>
        <time>2013-09-27T16:24:39Z</time>
      </trkpt>
      <trkpt lat="47.20947" lon="-1.64046">
        <ele>19.8</ele>
        <time>2013-09-27T16:24:43Z</time>
      </trkpt>
      <trkpt lat="47.20941" lon="-1.64059">
        <ele>19.8</ele>
        <time>2013-09-27T16:24:47Z</time>
      </trkpt>
      <trkpt lat="47.2093" lon="-1.64065">
        <ele>19.8</ele>
        <time>2013-09-27T16:24:51Z</time>
      </trkpt>
      <trkpt lat="47.20919" lon="-1.64068">
        <ele>20</ele>
        <time>2013-09-27T16:24:54Z</time>
      </trkpt>
      <trkpt lat="47.20909" lon="-1.64071">
        <ele>19.7</ele>
        <time>2013-09-27T16:24:59Z</time>
      </trkpt>
      <trkpt lat="47.209" lon="-1.64079">
        <ele>22.2</ele>
        <time>2013-09-27T16:28:58Z</time>
      </trkpt>
      <trkpt lat="47.20891" lon="-1.64079">
        <ele>22.3</ele>
        <time>2013-09-27T16:29:02Z</time>
      </trkpt>
      <trkpt lat="47.20883" lon="-1.64065">
        <ele>22.5</ele>
        <time>2013-09-27T16:29:06Z</time>
      </trkpt>
      <trkpt lat="47.20876" lon="-1.6405">
        <ele>22.9</ele>
        <time>2013-09-27T16:29:10Z</time>
      </trkpt>
      <trkpt lat="47.2087" lon="-1.64033">
        <ele>23</ele>
        <time>2013-09-27T16:29:13Z</time>
      </trkpt>
      <trkpt lat="47.20866" lon="-1.6402">
        <ele>23.3</ele>
        <time>2013-09-27T16:29:15Z</time>
      </trkpt>
      <trkpt lat="47.20861" lon="-1.64007">
        <ele>23.6</ele>
        <time>2013-09-27T16:29:17Z</time>
      </trkpt>
      <trkpt lat="47.20857" lon="-1.63988">
        <ele>22.4</ele>
        <time>2013-09-27T16:29:20Z</time>
      </trkpt>
      <trkpt lat="47.20855" lon="-1.63973">
        <ele>21.2</ele>
        <time>2013-09-27T16:29:22Z</time>
      </trkpt>
      <trkpt lat="47.20852" lon="-1.63959">
        <ele>19.3</ele>
        <time>2013-09-27T16:29:24Z</time>
      </trkpt>
      <trkpt lat="47.20849" lon="-1.63943">
        <ele>16.5</ele>
        <time>2013-09-27T16:29:26Z</time>
      </trkpt>
      <trkpt lat="47.20846" lon="-1.63925">
        <ele>14.7</ele>
        <time>2013-09-27T16:29:28Z</time>
      </trkpt>
      <trkpt lat="47.20841" lon="-1.63906">
        <ele>13.7</ele>
        <time>2013-09-27T16:29:30Z</time>
      </trkpt>
      <trkpt lat="47.20836" lon="-1.63886">
        <ele>13.3</ele>
        <time>2013-09-27T16:29:32Z</time>
      </trkpt>
      <trkpt lat="47.20831" lon="-1.63867">
        <ele>13</ele>
        <time>2013-09-27T16:29:34Z</time>
      </trkpt>
      <trkpt lat="47.20826" lon="-1.63845">
        <ele>12.9</ele>
        <time>2013-09-27T16:29:36Z</time>
      </trkpt>
      <trkpt lat="47.20821" lon="-1.63823">
        <ele>13</ele>
        <time>2013-09-27T16:29:38Z</time>
      </trkpt>
      <trkpt lat="47.20815" lon="-1.63801">
        <ele>12.7</ele>
        <time>2013-09-27T16:29:40Z</time>
      </trkpt>
      <trkpt lat="47.2081" lon="-1.63783">
        <ele>12.2</ele>
        <time>2013-09-27T16:29:42Z</time>
      </trkpt>
      <trkpt lat="47.20806" lon="-1.63766">
        <ele>12.9</ele>
        <time>2013-09-27T16:29:44Z</time>
      </trkpt>
      <trkpt lat="47.20801" lon="-1.63752">
        <ele>13.8</ele>
        <time>2013-09-27T16:29:46Z</time>
      </trkpt>
      <trkpt lat="47.20797" lon="-1.63737">
        <ele>14.4</ele>
        <time>2013-09-27T16:29:48Z</time>
      </trkpt>
      <trkpt lat="47.20795" lon="-1.63723">
        <ele>13.9</ele>
        <time>2013-09-27T16:29:50Z</time>
      </trkpt>
      <trkpt lat="47.20792" lon="-1.63708">
        <ele>13.4</ele>
        <time>2013-09-27T16:29:52Z</time>
      </trkpt>
      <trkpt lat="47.20789" lon="-1.63692">
        <ele>11.7</ele>
        <time>2013-09-27T16:29:54Z</time>
      </trkpt>
      <trkpt lat="47.20785" lon="-1.63676">
        <ele>9.6</ele>
        <time>2013-09-27T16:29:56Z</time>
      </trkpt>
      <trkpt lat="47.20781" lon="-1.63661">
        <ele>7.4</ele>
        <time>2013-09-27T16:29:58Z</time>
      </trkpt>
      <trkpt lat="47.20777" lon="-1.63645">
        <ele>7.1</ele>
        <time>2013-09-27T16:30:00Z</time>
      </trkpt>
      <trkpt lat="47.20772" lon="-1.6363">
        <ele>7.8</ele>
        <time>2013-09-27T16:30:02Z</time>
      </trkpt>
      <trkpt lat="47.20767" lon="-1.63615">
        <ele>8.8</ele>
        <time>2013-09-27T16:30:04Z</time>
      </trkpt>
      <trkpt lat="47.20761" lon="-1.63603">
        <ele>9.1</ele>
        <time>2013-09-27T16:30:06Z</time>
      </trkpt>
      <trkpt lat="47.20755" lon="-1.63591">
        <ele>9.3</ele>
        <time>2013-09-27T16:30:08Z</time>
      </trkpt>
      <trkpt lat="47.20747" lon="-1.63579">
        <ele>9</ele>
        <time>2013-09-27T16:30:11Z</time>
      </trkpt>
      <trkpt lat="47.2074" lon="-1.63566">
        <ele>9.1</ele>
        <time>2013-09-27T16:30:15Z</time>
      </trkpt>
      <trkpt lat="47.20735" lon="-1.63555">
        <ele>9.5</ele>
        <time>2013-09-27T16:30:20Z</time>
      </trkpt>
      <trkpt lat="47.2073" lon="-1.63541">
        <ele>9.9</ele>
        <time>2013-09-27T16:30:26Z</time>
      </trkpt>
      <trkpt lat="47.20725" lon="-1.6353">
        <ele>9.9</ele>
        <time>2013-09-27T16:30:30Z</time>
      </trkpt>
      <trkpt lat="47.2072" lon="-1.63517">
        <ele>10.1</ele>
        <time>2013-09-27T16:30:35Z</time>
      </trkpt>
      <trkpt lat="47.20717" lon="-1.63504">
        <ele>10.3</ele>
        <time>2013-09-27T16:30:40Z</time>
      </trkpt>
      <trkpt lat="47.20716" lon="-1.6349">
        <ele>10.8</ele>
        <time>2013-09-27T16:30:46Z</time>
      </trkpt>
      <trkpt lat="47.20712" lon="-1.63477">
        <ele>11.4</ele>
        <time>2013-09-27T16:30:52Z</time>
      </trkpt>
      <trkpt lat="47.20709" lon="-1.63462">
        <ele>12.6</ele>
        <time>2013-09-27T16:31:00Z</time>
      </trkpt>
      <trkpt lat="47.20705" lon="-1.63448">
        <ele>13.3</ele>
        <time>2013-09-27T16:31:07Z</time>
      </trkpt>
      <trkpt lat="47.20702" lon="-1.6343">
        <ele>13.7</ele>
        <time>2013-09-27T16:31:15Z</time>
      </trkpt>
      <trkpt lat="47.207" lon="-1.63416">
        <ele>14.5</ele>
        <time>2013-09-27T16:31:20Z</time>
      </trkpt>
      <trkpt lat="47.20699" lon="-1.63403">
        <ele>15.6</ele>
        <time>2013-09-27T16:31:26Z</time>
      </trkpt>
      <trkpt lat="47.20698" lon="-1.63388">
        <ele>16.8</ele>
        <time>2013-09-27T16:31:31Z</time>
      </trkpt>
      <trkpt lat="47.20698" lon="-1.63374">
        <ele>18.1</ele>
        <time>2013-09-27T16:31:37Z</time>
      </trkpt>
      <trkpt lat="47.20697" lon="-1.63359">
        <ele>18.9</ele>
        <time>2013-09-27T16:31:42Z</time>
      </trkpt>
      <trkpt lat="47.20695" lon="-1.63343">
        <ele>19.8</ele>
        <time>2013-09-27T16:31:47Z</time>
      </trkpt>
      <trkpt lat="47.20692" lon="-1.63328">
        <ele>20.4</ele>
        <time>2013-09-27T16:31:54Z</time>
      </trkpt>
      <trkpt lat="47.20687" lon="-1.63317">
        <ele>20.7</ele>
        <time>2013-09-27T16:31:59Z</time>
      </trkpt>
      <trkpt lat="47.20683" lon="-1.63304">
        <ele>21.3</ele>
        <time>2013-09-27T16:32:04Z</time>
      </trkpt>
      <trkpt lat="47.20678" lon="-1.63291">
        <ele>22</ele>
        <time>2013-09-27T16:32:09Z</time>
      </trkpt>
      <trkpt lat="47.20673" lon="-1.63279">
        <ele>22.5</ele>
        <time>2013-09-27T16:32:14Z</time>
      </trkpt>
      <trkpt lat="47.20669" lon="-1.63268">
        <ele>22.8</ele>
        <time>2013-09-27T16:32:19Z</time>
      </trkpt>
      <trkpt lat="47.20669" lon="-1.63254">
        <ele>23.1</ele>
        <time>2013-09-27T16:32:25Z</time>
      </trkpt>
      <trkpt lat="47.2066" lon="-1.63246">
        <ele>23.3</ele>
        <time>2013-09-27T16:32:32Z</time>
      </trkpt>
      <trkpt lat="47.20654" lon="-1.63234">
        <ele>23.2</ele>
        <time>2013-09-27T16:32:35Z</time>
      </trkpt>
      <trkpt lat="47.20648" lon="-1.63223">
        <ele>23.2</ele>
        <time>2013-09-27T16:32:37Z</time>
      </trkpt>
      <trkpt lat="47.20644" lon="-1.6321">
        <ele>23.5</ele>
        <time>2013-09-27T16:32:39Z</time>
      </trkpt>
      <trkpt lat="47.20639" lon="-1.63194">
        <ele>23.5</ele>
        <time>2013-09-27T16:32:42Z</time>
      </trkpt>
      <trkpt lat="47.20635" lon="-1.6318">
        <ele>23.5</ele>
        <time>2013-09-27T16:32:45Z</time>
      </trkpt>
      <trkpt lat="47.20631" lon="-1.63166">
        <ele>23.6</ele>
        <time>2013-09-27T16:32:49Z</time>
      </trkpt>
      <trkpt lat="47.20627" lon="-1.63154">
        <ele>23.8</ele>
        <time>2013-09-27T16:32:52Z</time>
      </trkpt>
      <trkpt lat="47.20621" lon="-1.63141">
        <ele>23.8</ele>
        <time>2013-09-27T16:32:58Z</time>
      </trkpt>
      <trkpt lat="47.20616" lon="-1.63126">
        <ele>23.8</ele>
        <time>2013-09-27T16:33:01Z</time>
      </trkpt>
      <trkpt lat="47.20612" lon="-1.63111">
        <ele>23.7</ele>
        <time>2013-09-27T16:33:04Z</time>
      </trkpt>
      <trkpt lat="47.20609" lon="-1.63099">
        <ele>23.6</ele>
        <time>2013-09-27T16:33:07Z</time>
      </trkpt>
      <trkpt lat="47.20604" lon="-1.63086">
        <ele>23.6</ele>
        <time>2013-09-27T16:33:11Z</time>
      </trkpt>
      <trkpt lat="47.20596" lon="-1.63075">
        <ele>23.7</ele>
        <time>2013-09-27T16:33:15Z</time>
      </trkpt>
      <trkpt lat="47.20589" lon="-1.63064">
        <ele>23.7</ele>
        <time>2013-09-27T16:33:20Z</time>
      </trkpt>
      <trkpt lat="47.20584" lon="-1.6305">
        <ele>24.1</ele>
        <time>2013-09-27T16:33:25Z</time>
      </trkpt>
      <trkpt lat="47.20577" lon="-1.63036">
        <ele>24.2</ele>
        <time>2013-09-27T16:33:29Z</time>
      </trkpt>
      <trkpt lat="47.20569" lon="-1.63025">
        <ele>24.3</ele>
        <time>2013-09-27T16:33:33Z</time>
      </trkpt>
      <trkpt lat="47.20561" lon="-1.63015">
        <ele>24.3</ele>
        <time>2013-09-27T16:33:37Z</time>
      </trkpt>
      <trkpt lat="47.20553" lon="-1.63006">
        <ele>24.6</ele>
        <time>2013-09-27T16:33:41Z</time>
      </trkpt>
      <trkpt lat="47.20545" lon="-1.63">
        <ele>24.6</ele>
        <time>2013-09-27T16:33:45Z</time>
      </trkpt>
      <trkpt lat="47.20535" lon="-1.62994">
        <ele>24.6</ele>
        <time>2013-09-27T16:33:49Z</time>
      </trkpt>
      <trkpt lat="47.20526" lon="-1.62989">
        <ele>24.4</ele>
        <time>2013-09-27T16:33:53Z</time>
      </trkpt>
      <trkpt lat="47.20524" lon="-1.62973">
        <ele>23.3</ele>
        <time>2013-09-27T16:34:10Z</time>
      </trkpt>
      <trkpt lat="47.20528" lon="-1.62958">
        <ele>23.1</ele>
        <time>2013-09-27T16:34:13Z</time>
      </trkpt>
      <trkpt lat="47.20535" lon="-1.62946">
        <ele>23</ele>
        <time>2013-09-27T16:34:16Z</time>
      </trkpt>
      <trkpt lat="47.20543" lon="-1.62932">
        <ele>22.8</ele>
        <time>2013-09-27T16:34:19Z</time>
      </trkpt>
      <trkpt lat="47.20552" lon="-1.62919">
        <ele>20.8</ele>
        <time>2013-09-27T16:34:22Z</time>
      </trkpt>
      <trkpt lat="47.20561" lon="-1.62907">
        <ele>20.4</ele>
        <time>2013-09-27T16:34:25Z</time>
      </trkpt>
      <trkpt lat="47.20568" lon="-1.62898">
        <ele>20</ele>
        <time>2013-09-27T16:34:27Z</time>
      </trkpt>
      <trkpt lat="47.20574" lon="-1.62888">
        <ele>19.8</ele>
        <time>2013-09-27T16:34:29Z</time>
      </trkpt>
      <trkpt lat="47.20584" lon="-1.62875">
        <ele>19.1</ele>
        <time>2013-09-27T16:34:32Z</time>
      </trkpt>
      <trkpt lat="47.20591" lon="-1.62865">
        <ele>19.1</ele>
        <time>2013-09-27T16:34:34Z</time>
      </trkpt>
      <trkpt lat="47.20598" lon="-1.62855">
        <ele>18.8</ele>
        <time>2013-09-27T16:34:36Z</time>
      </trkpt>
      <trkpt lat="47.20597" lon="-1.62839">
        <ele>18.1</ele>
        <time>2013-09-27T16:34:39Z</time>
      </trkpt>
      <trkpt lat="47.20591" lon="-1.62821">
        <ele>17.5</ele>
        <time>2013-09-27T16:34:42Z</time>
      </trkpt>
      <trkpt lat="47.20588" lon="-1.62805">
        <ele>17.3</ele>
        <time>2013-09-27T16:34:45Z</time>
      </trkpt>
      <trkpt lat="47.20585" lon="-1.62787">
        <ele>16.6</ele>
        <time>2013-09-27T16:34:48Z</time>
      </trkpt>
      <trkpt lat="47.2058" lon="-1.62773">
        <ele>16.6</ele>
        <time>2013-09-27T16:34:51Z</time>
      </trkpt>
      <trkpt lat="47.20575" lon="-1.62753">
        <ele>16.3</ele>
        <time>2013-09-27T16:34:54Z</time>
      </trkpt>
      <trkpt lat="47.20572" lon="-1.62739">
        <ele>15.4</ele>
        <time>2013-09-27T16:34:56Z</time>
      </trkpt>
      <trkpt lat="47.20565" lon="-1.62723">
        <ele>16.1</ele>
        <time>2013-09-27T16:34:59Z</time>
      </trkpt>
      <trkpt lat="47.20557" lon="-1.62714">
        <ele>16.5</ele>
        <time>2013-09-27T16:35:01Z</time>
      </trkpt>
      <trkpt lat="47.20549" lon="-1.62705">
        <ele>15.8</ele>
        <time>2013-09-27T16:35:03Z</time>
      </trkpt>
      <trkpt lat="47.20542" lon="-1.62696">
        <ele>13.8</ele>
        <time>2013-09-27T16:35:05Z</time>
      </trkpt>
      <trkpt lat="47.20534" lon="-1.62681">
        <ele>13.2</ele>
        <time>2013-09-27T16:35:08Z</time>
      </trkpt>
      <trkpt lat="47.20526" lon="-1.62669">
        <ele>13.2</ele>
        <time>2013-09-27T16:35:10Z</time>
      </trkpt>
      <trkpt lat="47.20518" lon="-1.62658">
        <ele>13.2</ele>
        <time>2013-09-27T16:35:12Z</time>
      </trkpt>
      <trkpt lat="47.20511" lon="-1.62649">
        <ele>13</ele>
        <time>2013-09-27T16:35:14Z</time>
      </trkpt>
      <trkpt lat="47.20505" lon="-1.6264">
        <ele>12.9</ele>
        <time>2013-09-27T16:35:16Z</time>
      </trkpt>
      <trkpt lat="47.20495" lon="-1.62627">
        <ele>12.9</ele>
        <time>2013-09-27T16:35:19Z</time>
      </trkpt>
      <trkpt lat="47.20487" lon="-1.62611">
        <ele>11.7</ele>
        <time>2013-09-27T16:35:22Z</time>
      </trkpt>
      <trkpt lat="47.2048" lon="-1.62598">
        <ele>10.5</ele>
        <time>2013-09-27T16:35:24Z</time>
      </trkpt>
      <trkpt lat="47.20474" lon="-1.62584">
        <ele>9</ele>
        <time>2013-09-27T16:35:26Z</time>
      </trkpt>
      <trkpt lat="47.20467" lon="-1.62569">
        <ele>8.9</ele>
        <time>2013-09-27T16:35:28Z</time>
      </trkpt>
      <trkpt lat="47.2046" lon="-1.6256">
        <ele>8.6</ele>
        <time>2013-09-27T16:35:30Z</time>
      </trkpt>
      <trkpt lat="47.20451" lon="-1.62551">
        <ele>8.2</ele>
        <time>2013-09-27T16:35:33Z</time>
      </trkpt>
      <trkpt lat="47.20443" lon="-1.62541">
        <ele>8</ele>
        <time>2013-09-27T16:35:37Z</time>
      </trkpt>
      <trkpt lat="47.20437" lon="-1.62529">
        <ele>7.7</ele>
        <time>2013-09-27T16:35:40Z</time>
      </trkpt>
      <trkpt lat="47.20429" lon="-1.62516">
        <ele>7.5</ele>
        <time>2013-09-27T16:35:43Z</time>
      </trkpt>
      <trkpt lat="47.20422" lon="-1.62504">
        <ele>6.5</ele>
        <time>2013-09-27T16:35:45Z</time>
      </trkpt>
      <trkpt lat="47.20413" lon="-1.62489">
        <ele>5.5</ele>
        <time>2013-09-27T16:35:47Z</time>
      </trkpt>
      <trkpt lat="47.20403" lon="-1.62473">
        <ele>4.1</ele>
        <time>2013-09-27T16:35:49Z</time>
      </trkpt>
      <trkpt lat="47.20394" lon="-1.62457">
        <ele>4.2</ele>
        <time>2013-09-27T16:35:51Z</time>
      </trkpt>
      <trkpt lat="47.20387" lon="-1.62443">
        <ele>3.9</ele>
        <time>2013-09-27T16:35:53Z</time>
      </trkpt>
      <trkpt lat="47.20379" lon="-1.62428">
        <ele>3.8</ele>
        <time>2013-09-27T16:35:55Z</time>
      </trkpt>
      <trkpt lat="47.20372" lon="-1.62414">
        <ele>4.5</ele>
        <time>2013-09-27T16:35:57Z</time>
      </trkpt>
      <trkpt lat="47.20365" lon="-1.62401">
        <ele>5.9</ele>
        <time>2013-09-27T16:35:59Z</time>
      </trkpt>
      <trkpt lat="47.20358" lon="-1.62386">
        <ele>6.8</ele>
        <time>2013-09-27T16:36:01Z</time>
      </trkpt>
      <trkpt lat="47.20351" lon="-1.62373">
        <ele>8.1</ele>
        <time>2013-09-27T16:36:03Z</time>
      </trkpt>
      <trkpt lat="47.20344" lon="-1.62362">
        <ele>9.1</ele>
        <time>2013-09-27T16:36:05Z</time>
      </trkpt>
      <trkpt lat="47.20337" lon="-1.62347">
        <ele>10.7</ele>
        <time>2013-09-27T16:36:08Z</time>
      </trkpt>
      <trkpt lat="47.2033" lon="-1.62334">
        <ele>10.8</ele>
        <time>2013-09-27T16:36:10Z</time>
      </trkpt>
      <trkpt lat="47.20322" lon="-1.62322">
        <ele>10.9</ele>
        <time>2013-09-27T16:36:12Z</time>
      </trkpt>
      <trkpt lat="47.20315" lon="-1.62311">
        <ele>11.1</ele>
        <time>2013-09-27T16:36:14Z</time>
      </trkpt>
      <trkpt lat="47.20308" lon="-1.62299">
        <ele>12.1</ele>
        <time>2013-09-27T16:36:16Z</time>
      </trkpt>
      <trkpt lat="47.20301" lon="-1.62288">
        <ele>12.6</ele>
        <time>2013-09-27T16:36:18Z</time>
      </trkpt>
      <trkpt lat="47.20293" lon="-1.62279">
        <ele>12.6</ele>
        <time>2013-09-27T16:36:21Z</time>
      </trkpt>
      <trkpt lat="47.20286" lon="-1.6227">
        <ele>12.5</ele>
        <time>2013-09-27T16:36:25Z</time>
      </trkpt>
      <trkpt lat="47.20277" lon="-1.62261">
        <ele>12.4</ele>
        <time>2013-09-27T16:36:29Z</time>
      </trkpt>
      <trkpt lat="47.20271" lon="-1.62251">
        <ele>12.2</ele>
        <time>2013-09-27T16:36:32Z</time>
      </trkpt>
      <trkpt lat="47.20268" lon="-1.62237">
        <ele>12.1</ele>
        <time>2013-09-27T16:36:37Z</time>
      </trkpt>
      <trkpt lat="47.20275" lon="-1.62226">
        <ele>12</ele>
        <time>2013-09-27T16:36:43Z</time>
      </trkpt>
      <trkpt lat="47.2028" lon="-1.62215">
        <ele>11.5</ele>
        <time>2013-09-27T16:36:47Z</time>
      </trkpt>
      <trkpt lat="47.20285" lon="-1.62203">
        <ele>11</ele>
        <time>2013-09-27T16:36:51Z</time>
      </trkpt>
      <trkpt lat="47.20292" lon="-1.62191">
        <ele>10.3</ele>
        <time>2013-09-27T16:36:55Z</time>
      </trkpt>
      <trkpt lat="47.20297" lon="-1.6218">
        <ele>10.1</ele>
        <time>2013-09-27T16:36:58Z</time>
      </trkpt>
      <trkpt lat="47.20299" lon="-1.62167">
        <ele>9.8</ele>
        <time>2013-09-27T16:37:01Z</time>
      </trkpt>
      <trkpt lat="47.20304" lon="-1.62155">
        <ele>9.6</ele>
        <time>2013-09-27T16:37:05Z</time>
      </trkpt>
      <trkpt lat="47.20313" lon="-1.62155">
        <ele>9.5</ele>
        <time>2013-09-27T16:37:13Z</time>
      </trkpt>
      <trkpt lat="47.20304" lon="-1.62158">
        <ele>9.6</ele>
        <time>2013-09-27T16:37:21Z</time>
      </trkpt>
      <trkpt lat="47.20316" lon="-1.62163">
        <ele>9.1</ele>
        <time>2013-09-27T16:37:28Z</time>
      </trkpt>
      <trkpt lat="47.20325" lon="-1.62169">
        <ele>9.3</ele>
        <time>2013-09-27T16:37:32Z</time>
      </trkpt>
      <trkpt lat="47.20333" lon="-1.6218">
        <ele>9.6</ele>
        <time>2013-09-27T16:37:36Z</time>
      </trkpt>
      <trkpt lat="47.2034" lon="-1.62191">
        <ele>9.8</ele>
        <time>2013-09-27T16:37:41Z</time>
      </trkpt>
      <trkpt lat="47.20346" lon="-1.62202">
        <ele>10.1</ele>
        <time>2013-09-27T16:37:46Z</time>
      </trkpt>
      <trkpt lat="47.20353" lon="-1.62213">
        <ele>10.5</ele>
        <time>2013-09-27T16:37:53Z</time>
      </trkpt>
      <trkpt lat="47.2036" lon="-1.62221">
        <ele>11</ele>
        <time>2013-09-27T16:37:57Z</time>
      </trkpt>
      <trkpt lat="47.20368" lon="-1.62231">
        <ele>11.5</ele>
        <time>2013-09-27T16:38:01Z</time>
      </trkpt>
      <trkpt lat="47.20375" lon="-1.62239">
        <ele>11.9</ele>
        <time>2013-09-27T16:38:05Z</time>
      </trkpt>
      <trkpt lat="47.20383" lon="-1.62247">
        <ele>12.4</ele>
        <time>2013-09-27T16:38:09Z</time>
      </trkpt>
      <trkpt lat="47.20391" lon="-1.62256">
        <ele>13.3</ele>
        <time>2013-09-27T16:38:14Z</time>
      </trkpt>
      <trkpt lat="47.204" lon="-1.62264">
        <ele>14</ele>
        <time>2013-09-27T16:38:18Z</time>
      </trkpt>
      <trkpt lat="47.20407" lon="-1.62272">
        <ele>14.4</ele>
        <time>2013-09-27T16:38:22Z</time>
      </trkpt>
      <trkpt lat="47.20417" lon="-1.6228">
        <ele>15.1</ele>
        <time>2013-09-27T16:38:27Z</time>
      </trkpt>
      <trkpt lat="47.20426" lon="-1.62288">
        <ele>15.5</ele>
        <time>2013-09-27T16:38:31Z</time>
      </trkpt>
      <trkpt lat="47.20436" lon="-1.62296">
        <ele>16</ele>
        <time>2013-09-27T16:38:35Z</time>
      </trkpt>
      <trkpt lat="47.20445" lon="-1.62304">
        <ele>16.4</ele>
        <time>2013-09-27T16:38:39Z</time>
      </trkpt>
      <trkpt lat="47.20453" lon="-1.62311">
        <ele>16.9</ele>
        <time>2013-09-27T16:38:43Z</time>
      </trkpt>
      <trkpt lat="47.20463" lon="-1.6232">
        <ele>17.3</ele>
        <time>2013-09-27T16:38:47Z</time>
      </trkpt>
      <trkpt lat="47.20471" lon="-1.62327">
        <ele>17.7</ele>
        <time>2013-09-27T16:38:51Z</time>
      </trkpt>
      <trkpt lat="47.20478" lon="-1.62336">
        <ele>18.2</ele>
        <time>2013-09-27T16:38:55Z</time>
      </trkpt>
      <trkpt lat="47.20486" lon="-1.62343">
        <ele>18.5</ele>
        <time>2013-09-27T16:38:58Z</time>
      </trkpt>
      <trkpt lat="47.20494" lon="-1.6235">
        <ele>18.8</ele>
        <time>2013-09-27T16:39:01Z</time>
      </trkpt>
      <trkpt lat="47.20504" lon="-1.62354">
        <ele>19.2</ele>
        <time>2013-09-27T16:39:05Z</time>
      </trkpt>
      <trkpt lat="47.20513" lon="-1.62356">
        <ele>19.5</ele>
        <time>2013-09-27T16:39:11Z</time>
      </trkpt>
      <trkpt lat="47.20522" lon="-1.62363">
        <ele>19.8</ele>
        <time>2013-09-27T16:39:15Z</time>
      </trkpt>
      <trkpt lat="47.20533" lon="-1.62372">
        <ele>20</ele>
        <time>2013-09-27T16:39:19Z</time>
      </trkpt>
      <trkpt lat="47.20542" lon="-1.62379">
        <ele>20.3</ele>
        <time>2013-09-27T16:39:22Z</time>
      </trkpt>
      <trkpt lat="47.2055" lon="-1.62387">
        <ele>20.5</ele>
        <time>2013-09-27T16:39:25Z</time>
      </trkpt>
      <trkpt lat="47.2056" lon="-1.62395">
        <ele>20.9</ele>
        <time>2013-09-27T16:39:28Z</time>
      </trkpt>
      <trkpt lat="47.20571" lon="-1.62403">
        <ele>21.2</ele>
        <time>2013-09-27T16:39:32Z</time>
      </trkpt>
      <trkpt lat="47.2058" lon="-1.62412">
        <ele>21.2</ele>
        <time>2013-09-27T16:39:35Z</time>
      </trkpt>
      <trkpt lat="47.2059" lon="-1.6242">
        <ele>21.3</ele>
        <time>2013-09-27T16:39:39Z</time>
      </trkpt>
      <trkpt lat="47.20599" lon="-1.62427">
        <ele>21.4</ele>
        <time>2013-09-27T16:39:42Z</time>
      </trkpt>
      <trkpt lat="47.20608" lon="-1.62433">
        <ele>21.4</ele>
        <time>2013-09-27T16:39:45Z</time>
      </trkpt>
      <trkpt lat="47.20617" lon="-1.6244">
        <ele>21.5</ele>
        <time>2013-09-27T16:39:49Z</time>
      </trkpt>
      <trkpt lat="47.20626" lon="-1.62447">
        <ele>21.9</ele>
        <time>2013-09-27T16:39:53Z</time>
      </trkpt>
      <trkpt lat="47.20635" lon="-1.62455">
        <ele>22.5</ele>
        <time>2013-09-27T16:39:57Z</time>
      </trkpt>
      <trkpt lat="47.20643" lon="-1.62464">
        <ele>23</ele>
        <time>2013-09-27T16:40:01Z</time>
      </trkpt>
      <trkpt lat="47.20651" lon="-1.62474">
        <ele>23.6</ele>
        <time>2013-09-27T16:40:07Z</time>
      </trkpt>
      <trkpt lat="47.2066" lon="-1.62482">
        <ele>24.1</ele>
        <time>2013-09-27T16:40:11Z</time>
      </trkpt>
      <trkpt lat="47.20667" lon="-1.6249">
        <ele>24.5</ele>
        <time>2013-09-27T16:40:15Z</time>
      </trkpt>
      <trkpt lat="47.20677" lon="-1.62498">
        <ele>24.8</ele>
        <time>2013-09-27T16:40:20Z</time>
      </trkpt>
      <trkpt lat="47.20687" lon="-1.62495">
        <ele>25</ele>
        <time>2013-09-27T16:40:24Z</time>
      </trkpt>
      <trkpt lat="47.20697" lon="-1.6249">
        <ele>25.1</ele>
        <time>2013-09-27T16:40:29Z</time>
      </trkpt>
      <trkpt lat="47.20706" lon="-1.6249">
        <ele>24.9</ele>
        <time>2013-09-27T16:40:36Z</time>
      </trkpt>
      <trkpt lat="47.20715" lon="-1.62491">
        <ele>25.1</ele>
        <time>2013-09-27T16:40:46Z</time>
      </trkpt>
      <trkpt lat="47.20706" lon="-1.62492">
        <ele>24.6</ele>
        <time>2013-09-27T16:41:12Z</time>
      </trkpt>
      <trkpt lat="47.20697" lon="-1.62493">
        <ele>24.6</ele>
        <time>2013-09-27T16:41:18Z</time>
      </trkpt>
      <trkpt lat="47.20687" lon="-1.62495">
        <ele>24.5</ele>
        <time>2013-09-27T16:41:21Z</time>
      </trkpt>
      <trkpt lat="47.20675" lon="-1.62496">
        <ele>24.4</ele>
        <time>2013-09-27T16:41:25Z</time>
      </trkpt>
      <trkpt lat="47.20666" lon="-1.62489">
        <ele>24.3</ele>
        <time>2013-09-27T16:41:29Z</time>
      </trkpt>
      <trkpt lat="47.20655" lon="-1.6248">
        <ele>24.3</ele>
        <time>2013-09-27T16:41:33Z</time>
      </trkpt>
      <trkpt lat="47.20644" lon="-1.62473">
        <ele>24.3</ele>
        <time>2013-09-27T16:41:36Z</time>
      </trkpt>
      <trkpt lat="47.20635" lon="-1.62464">
        <ele>24.4</ele>
        <time>2013-09-27T16:41:39Z</time>
      </trkpt>
      <trkpt lat="47.20628" lon="-1.62454">
        <ele>24.4</ele>
        <time>2013-09-27T16:41:42Z</time>
      </trkpt>
      <trkpt lat="47.20634" lon="-1.62439">
        <ele>23.4</ele>
        <time>2013-09-27T16:41:47Z</time>
      </trkpt>
      <trkpt lat="47.20642" lon="-1.62425">
        <ele>23.3</ele>
        <time>2013-09-27T16:41:50Z</time>
      </trkpt>
      <trkpt lat="47.20652" lon="-1.62414">
        <ele>23.2</ele>
        <time>2013-09-27T16:41:53Z</time>
      </trkpt>
      <trkpt lat="47.20662" lon="-1.62406">
        <ele>23.3</ele>
        <time>2013-09-27T16:41:56Z</time>
      </trkpt>
      <trkpt lat="47.20672" lon="-1.62401">
        <ele>23.4</ele>
        <time>2013-09-27T16:41:59Z</time>
      </trkpt>
      <trkpt lat="47.20683" lon="-1.62395">
        <ele>23.6</ele>
        <time>2013-09-27T16:42:03Z</time>
      </trkpt>
      <trkpt lat="47.20692" lon="-1.62391">
        <ele>23.8</ele>
        <time>2013-09-27T16:42:06Z</time>
      </trkpt>
      <trkpt lat="47.20703" lon="-1.62386">
        <ele>24</ele>
        <time>2013-09-27T16:42:10Z</time>
      </trkpt>
      <trkpt lat="47.20712" lon="-1.62384">
        <ele>24.1</ele>
        <time>2013-09-27T16:42:14Z</time>
      </trkpt>
      <trkpt lat="47.20721" lon="-1.62382">
        <ele>24.2</ele>
        <time>2013-09-27T16:42:20Z</time>
      </trkpt>
      <trkpt lat="47.20732" lon="-1.62378">
        <ele>24.4</ele>
        <time>2013-09-27T16:42:25Z</time>
      </trkpt>
      <trkpt lat="47.2074" lon="-1.62373">
        <ele>24.5</ele>
        <time>2013-09-27T16:42:28Z</time>
      </trkpt>
      <trkpt lat="47.20749" lon="-1.62368">
        <ele>24.3</ele>
        <time>2013-09-27T16:42:31Z</time>
      </trkpt>
      <trkpt lat="47.20758" lon="-1.62362">
        <ele>24.2</ele>
        <time>2013-09-27T16:42:35Z</time>
      </trkpt>
      <trkpt lat="47.20768" lon="-1.62358">
        <ele>24.1</ele>
        <time>2013-09-27T16:42:39Z</time>
      </trkpt>
      <trkpt lat="47.20776" lon="-1.62353">
        <ele>24.1</ele>
        <time>2013-09-27T16:42:42Z</time>
      </trkpt>
      <trkpt lat="47.20786" lon="-1.62348">
        <ele>24.4</ele>
        <time>2013-09-27T16:42:46Z</time>
      </trkpt>
      <trkpt lat="47.20796" lon="-1.62345">
        <ele>24.8</ele>
        <time>2013-09-27T16:42:50Z</time>
      </trkpt>
      <trkpt lat="47.20806" lon="-1.62343">
        <ele>24.8</ele>
        <time>2013-09-27T16:42:54Z</time>
      </trkpt>
      <trkpt lat="47.20815" lon="-1.62339">
        <ele>25</ele>
        <time>2013-09-27T16:42:58Z</time>
      </trkpt>
      <trkpt lat="47.20824" lon="-1.62335">
        <ele>25.1</ele>
        <time>2013-09-27T16:43:02Z</time>
      </trkpt>
      <trkpt lat="47.20834" lon="-1.62331">
        <ele>25.5</ele>
        <time>2013-09-27T16:43:07Z</time>
      </trkpt>
      <trkpt lat="47.20842" lon="-1.62326">
        <ele>25.8</ele>
        <time>2013-09-27T16:43:11Z</time>
      </trkpt>
      <trkpt lat="47.20849" lon="-1.62317">
        <ele>26</ele>
        <time>2013-09-27T16:43:16Z</time>
      </trkpt>
      <trkpt lat="47.20852" lon="-1.62304">
        <ele>28.4</ele>
        <time>2013-09-27T16:43:57Z</time>
      </trkpt>
      <trkpt lat="47.20854" lon="-1.62291">
        <ele>29.1</ele>
        <time>2013-09-27T16:44:06Z</time>
      </trkpt>
      <trkpt lat="47.20859" lon="-1.62278">
        <ele>29.5</ele>
        <time>2013-09-27T16:44:10Z</time>
      </trkpt>
      <trkpt lat="47.20863" lon="-1.62263">
        <ele>30</ele>
        <time>2013-09-27T16:44:15Z</time>
      </trkpt>
      <trkpt lat="47.20868" lon="-1.6225">
        <ele>30.3</ele>
        <time>2013-09-27T16:44:19Z</time>
      </trkpt>
      <trkpt lat="47.20872" lon="-1.62238">
        <ele>30.6</ele>
        <time>2013-09-27T16:44:23Z</time>
      </trkpt>
      <trkpt lat="47.20876" lon="-1.62224">
        <ele>31</ele>
        <time>2013-09-27T16:44:27Z</time>
      </trkpt>
      <trkpt lat="47.20881" lon="-1.6221">
        <ele>31.2</ele>
        <time>2013-09-27T16:44:31Z</time>
      </trkpt>
      <trkpt lat="47.20875" lon="-1.622">
        <ele>31.7</ele>
        <time>2013-09-27T16:44:37Z</time>
      </trkpt>
      <trkpt lat="47.2087" lon="-1.62184">
        <ele>32.2</ele>
        <time>2013-09-27T16:44:44Z</time>
      </trkpt>
      <trkpt lat="47.20867" lon="-1.62171">
        <ele>32.3</ele>
        <time>2013-09-27T16:44:48Z</time>
      </trkpt>
      <trkpt lat="47.20864" lon="-1.62158">
        <ele>32.7</ele>
        <time>2013-09-27T16:44:52Z</time>
      </trkpt>
      <trkpt lat="47.20861" lon="-1.62142">
        <ele>33.1</ele>
        <time>2013-09-27T16:44:57Z</time>
      </trkpt>
      <trkpt lat="47.20859" lon="-1.62127">
        <ele>33.5</ele>
        <time>2013-09-27T16:45:02Z</time>
      </trkpt>
      <trkpt lat="47.20854" lon="-1.62112">
        <ele>34.1</ele>
        <time>2013-09-27T16:45:26Z</time>
      </trkpt>
      <trkpt lat="47.2085" lon="-1.62099">
        <ele>34.1</ele>
        <time>2013-09-27T16:45:29Z</time>
      </trkpt>
      <trkpt lat="47.20846" lon="-1.62085">
        <ele>34</ele>
        <time>2013-09-27T16:45:31Z</time>
      </trkpt>
      <trkpt lat="47.20844" lon="-1.6207">
        <ele>34</ele>
        <time>2013-09-27T16:45:34Z</time>
      </trkpt>
      <trkpt lat="47.20842" lon="-1.62055">
        <ele>34</ele>
        <time>2013-09-27T16:45:39Z</time>
      </trkpt>
      <trkpt lat="47.20833" lon="-1.62047">
        <ele>33.8</ele>
        <time>2013-09-27T16:45:46Z</time>
      </trkpt>
      <trkpt lat="47.20827" lon="-1.62056">
        <ele>33.8</ele>
        <time>2013-09-27T16:45:49Z</time>
      </trkpt>
      <trkpt lat="47.20819" lon="-1.62066">
        <ele>33.8</ele>
        <time>2013-09-27T16:45:52Z</time>
      </trkpt>
      <trkpt lat="47.20811" lon="-1.62073">
        <ele>33.8</ele>
        <time>2013-09-27T16:45:55Z</time>
      </trkpt>
      <trkpt lat="47.20801" lon="-1.6208">
        <ele>33.8</ele>
        <time>2013-09-27T16:45:58Z</time>
      </trkpt>
      <trkpt lat="47.20789" lon="-1.62087">
        <ele>33.5</ele>
        <time>2013-09-27T16:46:01Z</time>
      </trkpt>
      <trkpt lat="47.2078" lon="-1.62093">
        <ele>33.2</ele>
        <time>2013-09-27T16:46:03Z</time>
      </trkpt>
      <trkpt lat="47.20771" lon="-1.62099">
        <ele>32.9</ele>
        <time>2013-09-27T16:46:05Z</time>
      </trkpt>
      <trkpt lat="47.20762" lon="-1.62106">
        <ele>32.5</ele>
        <time>2013-09-27T16:46:07Z</time>
      </trkpt>
      <trkpt lat="47.20753" lon="-1.62113">
        <ele>32</ele>
        <time>2013-09-27T16:46:09Z</time>
      </trkpt>
      <trkpt lat="47.20745" lon="-1.6212">
        <ele>31.1</ele>
        <time>2013-09-27T16:46:11Z</time>
      </trkpt>
      <trkpt lat="47.20737" lon="-1.62128">
        <ele>30.5</ele>
        <time>2013-09-27T16:46:13Z</time>
      </trkpt>
      <trkpt lat="47.20728" lon="-1.62139">
        <ele>30.5</ele>
        <time>2013-09-27T16:46:15Z</time>
      </trkpt>
      <trkpt lat="47.20719" lon="-1.62152">
        <ele>29.9</ele>
        <time>2013-09-27T16:46:17Z</time>
      </trkpt>
      <trkpt lat="47.20711" lon="-1.62163">
        <ele>29.5</ele>
        <time>2013-09-27T16:46:19Z</time>
      </trkpt>
      <trkpt lat="47.20702" lon="-1.62173">
        <ele>29.1</ele>
        <time>2013-09-27T16:46:21Z</time>
      </trkpt>
      <trkpt lat="47.20694" lon="-1.62182">
        <ele>28.5</ele>
        <time>2013-09-27T16:46:23Z</time>
      </trkpt>
      <trkpt lat="47.20686" lon="-1.6219">
        <ele>27.6</ele>
        <time>2013-09-27T16:46:25Z</time>
      </trkpt>
      <trkpt lat="47.20678" lon="-1.622">
        <ele>26.9</ele>
        <time>2013-09-27T16:46:28Z</time>
      </trkpt>
      <trkpt lat="47.20672" lon="-1.62211">
        <ele>26.8</ele>
        <time>2013-09-27T16:46:32Z</time>
      </trkpt>
      <trkpt lat="47.20664" lon="-1.62222">
        <ele>26.4</ele>
        <time>2013-09-27T16:46:36Z</time>
      </trkpt>
      <trkpt lat="47.20656" lon="-1.62234">
        <ele>26.5</ele>
        <time>2013-09-27T16:46:39Z</time>
      </trkpt>
      <trkpt lat="47.20648" lon="-1.62247">
        <ele>26.2</ele>
        <time>2013-09-27T16:46:41Z</time>
      </trkpt>
      <trkpt lat="47.20635" lon="-1.62253">
        <ele>25</ele>
        <time>2013-09-27T16:46:43Z</time>
      </trkpt>
      <trkpt lat="47.20626" lon="-1.62255">
        <ele>23.9</ele>
        <time>2013-09-27T16:46:45Z</time>
      </trkpt>
      <trkpt lat="47.20615" lon="-1.6226">
        <ele>23.6</ele>
        <time>2013-09-27T16:46:48Z</time>
      </trkpt>
      <trkpt lat="47.20604" lon="-1.62266">
        <ele>23.2</ele>
        <time>2013-09-27T16:46:51Z</time>
      </trkpt>
      <trkpt lat="47.20595" lon="-1.62263">
        <ele>22.8</ele>
        <time>2013-09-27T16:46:56Z</time>
      </trkpt>
      <trkpt lat="47.20586" lon="-1.62258">
        <ele>22.7</ele>
        <time>2013-09-27T16:47:00Z</time>
      </trkpt>
      <trkpt lat="47.20575" lon="-1.62254">
        <ele>22.5</ele>
        <time>2013-09-27T16:47:03Z</time>
      </trkpt>
      <trkpt lat="47.20565" lon="-1.62246">
        <ele>22.4</ele>
        <time>2013-09-27T16:47:06Z</time>
      </trkpt>
      <trkpt lat="47.20556" lon="-1.62239">
        <ele>22.5</ele>
        <time>2013-09-27T16:47:09Z</time>
      </trkpt>
      <trkpt lat="47.20549" lon="-1.6223">
        <ele>22.5</ele>
        <time>2013-09-27T16:47:12Z</time>
      </trkpt>
      <trkpt lat="47.2054" lon="-1.62221">
        <ele>22.4</ele>
        <time>2013-09-27T16:47:16Z</time>
      </trkpt>
      <trkpt lat="47.20533" lon="-1.62212">
        <ele>22.4</ele>
        <time>2013-09-27T16:47:19Z</time>
      </trkpt>
      <trkpt lat="47.20525" lon="-1.62203">
        <ele>22.5</ele>
        <time>2013-09-27T16:47:22Z</time>
      </trkpt>
      <trkpt lat="47.20516" lon="-1.62197">
        <ele>22.6</ele>
        <time>2013-09-27T16:47:26Z</time>
      </trkpt>
      <trkpt lat="47.20505" lon="-1.62193">
        <ele>22.7</ele>
        <time>2013-09-27T16:47:30Z</time>
      </trkpt>
      <trkpt lat="47.20496" lon="-1.62191">
        <ele>22.7</ele>
        <time>2013-09-27T16:47:33Z</time>
      </trkpt>
      <trkpt lat="47.20486" lon="-1.62191">
        <ele>22.9</ele>
        <time>2013-09-27T16:47:36Z</time>
      </trkpt>
      <trkpt lat="47.20476" lon="-1.62193">
        <ele>22.9</ele>
        <time>2013-09-27T16:47:40Z</time>
      </trkpt>
      <trkpt lat="47.20465" lon="-1.62196">
        <ele>22.8</ele>
        <time>2013-09-27T16:47:44Z</time>
      </trkpt>
      <trkpt lat="47.20453" lon="-1.62197">
        <ele>22.8</ele>
        <time>2013-09-27T16:47:48Z</time>
      </trkpt>
      <trkpt lat="47.20445" lon="-1.62204">
        <ele>22.6</ele>
        <time>2013-09-27T16:47:56Z</time>
      </trkpt>
      <trkpt lat="47.20454" lon="-1.62197">
        <ele>22.6</ele>
        <time>2013-09-27T16:48:07Z</time>
      </trkpt>
      <trkpt lat="47.20463" lon="-1.62197">
        <ele>22.6</ele>
        <time>2013-09-27T16:48:11Z</time>
      </trkpt>
      <trkpt lat="47.20474" lon="-1.62197">
        <ele>22.8</ele>
        <time>2013-09-27T16:48:16Z</time>
      </trkpt>
      <trkpt lat="47.20485" lon="-1.62195">
        <ele>22.9</ele>
        <time>2013-09-27T16:48:21Z</time>
      </trkpt>
      <trkpt lat="47.20494" lon="-1.62193">
        <ele>22.9</ele>
        <time>2013-09-27T16:48:25Z</time>
      </trkpt>
      <trkpt lat="47.20505" lon="-1.62194">
        <ele>22.8</ele>
        <time>2013-09-27T16:48:29Z</time>
      </trkpt>
      <trkpt lat="47.20515" lon="-1.62196">
        <ele>22.6</ele>
        <time>2013-09-27T16:48:34Z</time>
      </trkpt>
      <trkpt lat="47.20526" lon="-1.62201">
        <ele>22.5</ele>
        <time>2013-09-27T16:48:38Z</time>
      </trkpt>
      <trkpt lat="47.20535" lon="-1.62208">
        <ele>22.5</ele>
        <time>2013-09-27T16:48:41Z</time>
      </trkpt>
      <trkpt lat="47.20542" lon="-1.62217">
        <ele>22.5</ele>
        <time>2013-09-27T16:48:44Z</time>
      </trkpt>
      <trkpt lat="47.2055" lon="-1.62227">
        <ele>22.6</ele>
        <time>2013-09-27T16:48:48Z</time>
      </trkpt>
      <trkpt lat="47.20558" lon="-1.62236">
        <ele>22.7</ele>
        <time>2013-09-27T16:48:52Z</time>
      </trkpt>
      <trkpt lat="47.20566" lon="-1.62245">
        <ele>23.1</ele>
        <time>2013-09-27T16:48:58Z</time>
      </trkpt>
      <trkpt lat="47.20574" lon="-1.62251">
        <ele>23.2</ele>
        <time>2013-09-27T16:49:03Z</time>
      </trkpt>
      <trkpt lat="47.20586" lon="-1.62257">
        <ele>23.2</ele>
        <time>2013-09-27T16:49:07Z</time>
      </trkpt>
      <trkpt lat="47.20596" lon="-1.62265">
        <ele>23.1</ele>
        <time>2013-09-27T16:49:11Z</time>
      </trkpt>
      <trkpt lat="47.20605" lon="-1.62268">
        <ele>23.1</ele>
        <time>2013-09-27T16:49:15Z</time>
      </trkpt>
      <trkpt lat="47.20604" lon="-1.62253">
        <ele>23.1</ele>
        <time>2013-09-27T16:49:20Z</time>
      </trkpt>
      <trkpt lat="47.20601" lon="-1.62238">
        <ele>22.8</ele>
        <time>2013-09-27T16:49:24Z</time>
      </trkpt>
      <trkpt lat="47.20597" lon="-1.62225">
        <ele>22.5</ele>
        <time>2013-09-27T16:49:28Z</time>
      </trkpt>
      <trkpt lat="47.20592" lon="-1.62211">
        <ele>21.6</ele>
        <time>2013-09-27T16:49:32Z</time>
      </trkpt>
      <trkpt lat="47.20587" lon="-1.62196">
        <ele>20.5</ele>
        <time>2013-09-27T16:49:36Z</time>
      </trkpt>
      <trkpt lat="47.20583" lon="-1.62182">
        <ele>18.6</ele>
        <time>2013-09-27T16:49:43Z</time>
      </trkpt>
      <trkpt lat="47.20583" lon="-1.62166">
        <ele>17.3</ele>
        <time>2013-09-27T16:49:48Z</time>
      </trkpt>
      <trkpt lat="47.20583" lon="-1.62151">
        <ele>16.4</ele>
        <time>2013-09-27T16:49:52Z</time>
      </trkpt>
      <trkpt lat="47.20583" lon="-1.62138">
        <ele>15.3</ele>
        <time>2013-09-27T16:49:57Z</time>
      </trkpt>
      <trkpt lat="47.20576" lon="-1.62129">
        <ele>14.3</ele>
        <time>2013-09-27T16:50:01Z</time>
      </trkpt>
      <trkpt lat="47.20564" lon="-1.62126">
        <ele>13.6</ele>
        <time>2013-09-27T16:50:04Z</time>
      </trkpt>
      <trkpt lat="47.20553" lon="-1.62123">
        <ele>13</ele>
        <time>2013-09-27T16:50:06Z</time>
      </trkpt>
      <trkpt lat="47.20541" lon="-1.6212">
        <ele>9.3</ele>
        <time>2013-09-27T16:50:08Z</time>
      </trkpt>
      <trkpt lat="47.20531" lon="-1.62116">
        <ele>9</ele>
        <time>2013-09-27T16:50:10Z</time>
      </trkpt>
      <trkpt lat="47.20519" lon="-1.62112">
        <ele>8.5</ele>
        <time>2013-09-27T16:50:13Z</time>
      </trkpt>
      <trkpt lat="47.20507" lon="-1.62111">
        <ele>8.4</ele>
        <time>2013-09-27T16:50:16Z</time>
      </trkpt>
      <trkpt lat="47.20494" lon="-1.62112">
        <ele>8.1</ele>
        <time>2013-09-27T16:50:19Z</time>
      </trkpt>
      <trkpt lat="47.20481" lon="-1.62108">
        <ele>7.6</ele>
        <time>2013-09-27T16:50:22Z</time>
      </trkpt>
      <trkpt lat="47.20471" lon="-1.62104">
        <ele>7.1</ele>
        <time>2013-09-27T16:50:24Z</time>
      </trkpt>
      <trkpt lat="47.20461" lon="-1.62104">
        <ele>5.4</ele>
        <time>2013-09-27T16:50:26Z</time>
      </trkpt>
      <trkpt lat="47.20452" lon="-1.62104">
        <ele>5.3</ele>
        <time>2013-09-27T16:50:28Z</time>
      </trkpt>
      <trkpt lat="47.20441" lon="-1.62105">
        <ele>4.9</ele>
        <time>2013-09-27T16:50:31Z</time>
      </trkpt>
      <trkpt lat="47.20431" lon="-1.6211">
        <ele>5</ele>
        <time>2013-09-27T16:50:34Z</time>
      </trkpt>
      <trkpt lat="47.20418" lon="-1.62118">
        <ele>6.4</ele>
        <time>2013-09-27T16:50:37Z</time>
      </trkpt>
      <trkpt lat="47.20408" lon="-1.62124">
        <ele>5.9</ele>
        <time>2013-09-27T16:50:39Z</time>
      </trkpt>
      <trkpt lat="47.20398" lon="-1.62132">
        <ele>4.7</ele>
        <time>2013-09-27T16:50:41Z</time>
      </trkpt>
      <trkpt lat="47.20388" lon="-1.6214">
        <ele>3.4</ele>
        <time>2013-09-27T16:50:43Z</time>
      </trkpt>
      <trkpt lat="47.20379" lon="-1.62146">
        <ele>2.6</ele>
        <time>2013-09-27T16:50:45Z</time>
      </trkpt>
      <trkpt lat="47.20368" lon="-1.62152">
        <ele>3.3</ele>
        <time>2013-09-27T16:50:48Z</time>
      </trkpt>
      <trkpt lat="47.20359" lon="-1.62147">
        <ele>3.5</ele>
        <time>2013-09-27T16:50:53Z</time>
      </trkpt>
      <trkpt lat="47.20356" lon="-1.62134">
        <ele>4.2</ele>
        <time>2013-09-27T16:51:04Z</time>
      </trkpt>
      <trkpt lat="47.20362" lon="-1.62119">
        <ele>5.7</ele>
        <time>2013-09-27T16:51:28Z</time>
      </trkpt>
      <trkpt lat="47.20369" lon="-1.62106">
        <ele>5.9</ele>
        <time>2013-09-27T16:51:31Z</time>
      </trkpt>
      <trkpt lat="47.20378" lon="-1.62099">
        <ele>6</ele>
        <time>2013-09-27T16:51:34Z</time>
      </trkpt>
      <trkpt lat="47.2039" lon="-1.62094">
        <ele>6.4</ele>
        <time>2013-09-27T16:51:37Z</time>
      </trkpt>
      <trkpt lat="47.20401" lon="-1.62087">
        <ele>6.5</ele>
        <time>2013-09-27T16:51:40Z</time>
      </trkpt>
      <trkpt lat="47.20413" lon="-1.62081">
        <ele>6.6</ele>
        <time>2013-09-27T16:51:43Z</time>
      </trkpt>
      <trkpt lat="47.20424" lon="-1.62072">
        <ele>6.5</ele>
        <time>2013-09-27T16:51:46Z</time>
      </trkpt>
      <trkpt lat="47.20433" lon="-1.6206">
        <ele>6.4</ele>
        <time>2013-09-27T16:51:49Z</time>
      </trkpt>
      <trkpt lat="47.20436" lon="-1.62047">
        <ele>6.6</ele>
        <time>2013-09-27T16:51:51Z</time>
      </trkpt>
      <trkpt lat="47.20434" lon="-1.62034">
        <ele>6.7</ele>
        <time>2013-09-27T16:51:54Z</time>
      </trkpt>
      <trkpt lat="47.20434" lon="-1.62018">
        <ele>6.7</ele>
        <time>2013-09-27T16:51:57Z</time>
      </trkpt>
      <trkpt lat="47.20431" lon="-1.62004">
        <ele>6.9</ele>
        <time>2013-09-27T16:52:00Z</time>
      </trkpt>
      <trkpt lat="47.20427" lon="-1.61992">
        <ele>7</ele>
        <time>2013-09-27T16:52:05Z</time>
      </trkpt>
      <trkpt lat="47.20426" lon="-1.61975">
        <ele>6.5</ele>
        <time>2013-09-27T16:52:11Z</time>
      </trkpt>
      <trkpt lat="47.20424" lon="-1.6196">
        <ele>6.6</ele>
        <time>2013-09-27T16:52:15Z</time>
      </trkpt>
      <trkpt lat="47.20424" lon="-1.61946">
        <ele>6.7</ele>
        <time>2013-09-27T16:52:19Z</time>
      </trkpt>
      <trkpt lat="47.20421" lon="-1.61932">
        <ele>6.9</ele>
        <time>2013-09-27T16:52:23Z</time>
      </trkpt>
      <trkpt lat="47.20415" lon="-1.6192">
        <ele>7.1</ele>
        <time>2013-09-27T16:52:28Z</time>
      </trkpt>
      <trkpt lat="47.2041" lon="-1.61909">
        <ele>7.4</ele>
        <time>2013-09-27T16:52:32Z</time>
      </trkpt>
      <trkpt lat="47.20408" lon="-1.61895">
        <ele>7.8</ele>
        <time>2013-09-27T16:52:36Z</time>
      </trkpt>
      <trkpt lat="47.20401" lon="-1.61884">
        <ele>8.6</ele>
        <time>2013-09-27T16:52:41Z</time>
      </trkpt>
      <trkpt lat="47.20393" lon="-1.61875">
        <ele>9.4</ele>
        <time>2013-09-27T16:52:45Z</time>
      </trkpt>
      <trkpt lat="47.20384" lon="-1.61867">
        <ele>10.4</ele>
        <time>2013-09-27T16:52:50Z</time>
      </trkpt>
      <trkpt lat="47.20377" lon="-1.61856">
        <ele>11.2</ele>
        <time>2013-09-27T16:52:55Z</time>
      </trkpt>
      <trkpt lat="47.20367" lon="-1.61858">
        <ele>11.5</ele>
        <time>2013-09-27T16:52:58Z</time>
      </trkpt>
      <trkpt lat="47.20356" lon="-1.61862">
        <ele>11.8</ele>
        <time>2013-09-27T16:53:02Z</time>
      </trkpt>
      <trkpt lat="47.20346" lon="-1.61867">
        <ele>12.1</ele>
        <time>2013-09-27T16:53:06Z</time>
      </trkpt>
      <trkpt lat="47.20336" lon="-1.61872">
        <ele>12.4</ele>
        <time>2013-09-27T16:53:10Z</time>
      </trkpt>
      <trkpt lat="47.20326" lon="-1.61876">
        <ele>12.7</ele>
        <time>2013-09-27T16:53:14Z</time>
      </trkpt>
      <trkpt lat="47.20317" lon="-1.61881">
        <ele>12.9</ele>
        <time>2013-09-27T16:53:17Z</time>
      </trkpt>
      <trkpt lat="47.20307" lon="-1.61888">
        <ele>13.2</ele>
        <time>2013-09-27T16:53:21Z</time>
      </trkpt>
      <trkpt lat="47.20296" lon="-1.61892">
        <ele>13.6</ele>
        <time>2013-09-27T16:53:25Z</time>
      </trkpt>
      <trkpt lat="47.20286" lon="-1.61897">
        <ele>13.9</ele>
        <time>2013-09-27T16:53:29Z</time>
      </trkpt>
      <trkpt lat="47.20277" lon="-1.61902">
        <ele>14.5</ele>
        <time>2013-09-27T16:53:35Z</time>
      </trkpt>
      <trkpt lat="47.20276" lon="-1.61885">
        <ele>16.3</ele>
        <time>2013-09-27T16:54:25Z</time>
      </trkpt>
      <trkpt lat="47.20272" lon="-1.61871">
        <ele>16.8</ele>
        <time>2013-09-27T16:54:28Z</time>
      </trkpt>
      <trkpt lat="47.20269" lon="-1.61855">
        <ele>17.5</ele>
        <time>2013-09-27T16:54:32Z</time>
      </trkpt>
      <trkpt lat="47.20258" lon="-1.61857">
        <ele>18.1</ele>
        <time>2013-09-27T16:54:40Z</time>
      </trkpt>
      <trkpt lat="47.20258" lon="-1.61841">
        <ele>18.3</ele>
        <time>2013-09-27T16:54:52Z</time>
      </trkpt>
      <trkpt lat="47.20258" lon="-1.61827">
        <ele>18.5</ele>
        <time>2013-09-27T16:54:55Z</time>
      </trkpt>
      <trkpt lat="47.20257" lon="-1.61812">
        <ele>18.6</ele>
        <time>2013-09-27T16:54:58Z</time>
      </trkpt>
      <trkpt lat="47.20257" lon="-1.61797">
        <ele>18.6</ele>
        <time>2013-09-27T16:55:01Z</time>
      </trkpt>
      <trkpt lat="47.2026" lon="-1.6178">
        <ele>18.7</ele>
        <time>2013-09-27T16:55:05Z</time>
      </trkpt>
      <trkpt lat="47.20269" lon="-1.61775">
        <ele>18.6</ele>
        <time>2013-09-27T16:55:09Z</time>
      </trkpt>
      <trkpt lat="47.2028" lon="-1.61772">
        <ele>18.6</ele>
        <time>2013-09-27T16:55:13Z</time>
      </trkpt>
      <trkpt lat="47.20292" lon="-1.61774">
        <ele>19.1</ele>
        <time>2013-09-27T16:55:19Z</time>
      </trkpt>
      <trkpt lat="47.20303" lon="-1.61774">
        <ele>19.3</ele>
        <time>2013-09-27T16:55:23Z</time>
      </trkpt>
      <trkpt lat="47.20315" lon="-1.61773">
        <ele>19.6</ele>
        <time>2013-09-27T16:55:27Z</time>
      </trkpt>
      <trkpt lat="47.20325" lon="-1.61772">
        <ele>19.9</ele>
        <time>2013-09-27T16:55:31Z</time>
      </trkpt>
      <trkpt lat="47.20335" lon="-1.61771">
        <ele>20</ele>
        <time>2013-09-27T16:55:35Z</time>
      </trkpt>
      <trkpt lat="47.20345" lon="-1.6177">
        <ele>20</ele>
        <time>2013-09-27T16:55:38Z</time>
      </trkpt>
      <trkpt lat="47.20354" lon="-1.61767">
        <ele>20</ele>
        <time>2013-09-27T16:55:41Z</time>
      </trkpt>
      <trkpt lat="47.20364" lon="-1.61765">
        <ele>20.1</ele>
        <time>2013-09-27T16:55:44Z</time>
      </trkpt>
      <trkpt lat="47.20376" lon="-1.61763">
        <ele>20.1</ele>
        <time>2013-09-27T16:55:47Z</time>
      </trkpt>
      <trkpt lat="47.20385" lon="-1.61761">
        <ele>19.1</ele>
        <time>2013-09-27T16:55:49Z</time>
      </trkpt>
      <trkpt lat="47.20395" lon="-1.6176">
        <ele>18.1</ele>
        <time>2013-09-27T16:55:51Z</time>
      </trkpt>
      <trkpt lat="47.20406" lon="-1.61758">
        <ele>17.4</ele>
        <time>2013-09-27T16:55:54Z</time>
      </trkpt>
      <trkpt lat="47.20415" lon="-1.61756">
        <ele>17.4</ele>
        <time>2013-09-27T16:55:57Z</time>
      </trkpt>
      <trkpt lat="47.20425" lon="-1.61754">
        <ele>17.5</ele>
        <time>2013-09-27T16:56:02Z</time>
      </trkpt>
      <trkpt lat="47.20433" lon="-1.6176">
        <ele>17.3</ele>
        <time>2013-09-27T16:56:09Z</time>
      </trkpt>
      <trkpt lat="47.20433" lon="-1.61774">
        <ele>17.2</ele>
        <time>2013-09-27T16:56:12Z</time>
      </trkpt>
      <trkpt lat="47.20434" lon="-1.6179">
        <ele>17.1</ele>
        <time>2013-09-27T16:56:15Z</time>
      </trkpt>
      <trkpt lat="47.20433" lon="-1.61806">
        <ele>17.1</ele>
        <time>2013-09-27T16:56:18Z</time>
      </trkpt>
      <trkpt lat="47.20432" lon="-1.61821">
        <ele>17.3</ele>
        <time>2013-09-27T16:56:22Z</time>
      </trkpt>
      <trkpt lat="47.20429" lon="-1.61834">
        <ele>17.4</ele>
        <time>2013-09-27T16:56:26Z</time>
      </trkpt>
      <trkpt lat="47.20433" lon="-1.61846">
        <ele>17.6</ele>
        <time>2013-09-27T16:56:36Z</time>
      </trkpt>
      <trkpt lat="47.20441" lon="-1.61852">
        <ele>17.2</ele>
        <time>2013-09-27T16:56:43Z</time>
      </trkpt>
      <trkpt lat="47.20434" lon="-1.61845">
        <ele>17.3</ele>
        <time>2013-09-27T16:57:02Z</time>
      </trkpt>
      <trkpt lat="47.20441" lon="-1.61853">
        <ele>16</ele>
        <time>2013-09-27T16:57:53Z</time>
      </trkpt>
      <trkpt lat="47.2045" lon="-1.61859">
        <ele>16.1</ele>
        <time>2013-09-27T16:58:00Z</time>
      </trkpt>
      <trkpt lat="47.20459" lon="-1.61862">
        <ele>16.2</ele>
        <time>2013-09-27T16:58:05Z</time>
      </trkpt>
      <trkpt lat="47.20468" lon="-1.61865">
        <ele>16.4</ele>
        <time>2013-09-27T16:58:11Z</time>
      </trkpt>
      <trkpt lat="47.20477" lon="-1.61868">
        <ele>16.4</ele>
        <time>2013-09-27T16:58:17Z</time>
      </trkpt>
      <trkpt lat="47.20487" lon="-1.61871">
        <ele>16.2</ele>
        <time>2013-09-27T16:58:23Z</time>
      </trkpt>
      <trkpt lat="47.20497" lon="-1.61872">
        <ele>16</ele>
        <time>2013-09-27T16:58:29Z</time>
      </trkpt>
      <trkpt lat="47.20506" lon="-1.61876">
        <ele>15.9</ele>
        <time>2013-09-27T16:58:35Z</time>
      </trkpt>
      <trkpt lat="47.20516" lon="-1.61877">
        <ele>16.3</ele>
        <time>2013-09-27T16:58:41Z</time>
      </trkpt>
      <trkpt lat="47.20527" lon="-1.61879">
        <ele>16.8</ele>
        <time>2013-09-27T16:58:47Z</time>
      </trkpt>
      <trkpt lat="47.20537" lon="-1.61883">
        <ele>16.9</ele>
        <time>2013-09-27T16:58:51Z</time>
      </trkpt>
      <trkpt lat="47.20547" lon="-1.61887">
        <ele>17</ele>
        <time>2013-09-27T16:58:55Z</time>
      </trkpt>
      <trkpt lat="47.20556" lon="-1.61889">
        <ele>17.4</ele>
        <time>2013-09-27T16:59:00Z</time>
      </trkpt>
      <trkpt lat="47.20567" lon="-1.61892">
        <ele>18</ele>
        <time>2013-09-27T16:59:05Z</time>
      </trkpt>
      <trkpt lat="47.20577" lon="-1.61893">
        <ele>18.3</ele>
        <time>2013-09-27T16:59:10Z</time>
      </trkpt>
      <trkpt lat="47.20586" lon="-1.61894">
        <ele>18.8</ele>
        <time>2013-09-27T16:59:16Z</time>
      </trkpt>
      <trkpt lat="47.20595" lon="-1.61889">
        <ele>19.4</ele>
        <time>2013-09-27T16:59:23Z</time>
      </trkpt>
      <trkpt lat="47.20601" lon="-1.619">
        <ele>20.3</ele>
        <time>2013-09-27T16:59:33Z</time>
      </trkpt>
      <trkpt lat="47.20599" lon="-1.61915">
        <ele>21.1</ele>
        <time>2013-09-27T16:59:39Z</time>
      </trkpt>
      <trkpt lat="47.20602" lon="-1.6193">
        <ele>21.5</ele>
        <time>2013-09-27T16:59:44Z</time>
      </trkpt>
      <trkpt lat="47.20605" lon="-1.61944">
        <ele>22</ele>
        <time>2013-09-27T16:59:51Z</time>
      </trkpt>
      <trkpt lat="47.20607" lon="-1.61957">
        <ele>22.5</ele>
        <time>2013-09-27T16:59:57Z</time>
      </trkpt>
      <trkpt lat="47.20609" lon="-1.61972">
        <ele>22.9</ele>
        <time>2013-09-27T17:00:03Z</time>
      </trkpt>
      <trkpt lat="47.20609" lon="-1.61986">
        <ele>23.1</ele>
        <time>2013-09-27T17:00:06Z</time>
      </trkpt>
      <trkpt lat="47.20609" lon="-1.62">
        <ele>22.9</ele>
        <time>2013-09-27T17:00:08Z</time>
      </trkpt>
      <trkpt lat="47.20609" lon="-1.62017">
        <ele>22.6</ele>
        <time>2013-09-27T17:00:11Z</time>
      </trkpt>
      <trkpt lat="47.20611" lon="-1.62031">
        <ele>22.5</ele>
        <time>2013-09-27T17:00:14Z</time>
      </trkpt>
      <trkpt lat="47.20611" lon="-1.62044">
        <ele>22.5</ele>
        <time>2013-09-27T17:00:19Z</time>
      </trkpt>
      <trkpt lat="47.20614" lon="-1.62057">
        <ele>21.8</ele>
        <time>2013-09-27T17:00:26Z</time>
      </trkpt>
      <trkpt lat="47.20612" lon="-1.62072">
        <ele>21.3</ele>
        <time>2013-09-27T17:00:31Z</time>
      </trkpt>
      <trkpt lat="47.20604" lon="-1.62083">
        <ele>20.8</ele>
        <time>2013-09-27T17:00:34Z</time>
      </trkpt>
      <trkpt lat="47.20594" lon="-1.62087">
        <ele>20.3</ele>
        <time>2013-09-27T17:00:37Z</time>
      </trkpt>
      <trkpt lat="47.20588" lon="-1.62076">
        <ele>19.5</ele>
        <time>2013-09-27T17:00:42Z</time>
      </trkpt>
      <trkpt lat="47.20599" lon="-1.62072">
        <ele>18.4</ele>
        <time>2013-09-27T17:00:58Z</time>
      </trkpt>
      <trkpt lat="47.20609" lon="-1.62075">
        <ele>18</ele>
        <time>2013-09-27T17:01:02Z</time>
      </trkpt>
      <trkpt lat="47.2062" lon="-1.62073">
        <ele>17.3</ele>
        <time>2013-09-27T17:01:09Z</time>
      </trkpt>
      <trkpt lat="47.20629" lon="-1.62071">
        <ele>17.2</ele>
        <time>2013-09-27T17:01:17Z</time>
      </trkpt>
      <trkpt lat="47.20638" lon="-1.62064">
        <ele>17.1</ele>
        <time>2013-09-27T17:01:22Z</time>
      </trkpt>
      <trkpt lat="47.20643" lon="-1.62053">
        <ele>17.4</ele>
        <time>2013-09-27T17:01:29Z</time>
      </trkpt>
      <trkpt lat="47.20651" lon="-1.62042">
        <ele>17.4</ele>
        <time>2013-09-27T17:01:36Z</time>
      </trkpt>
      <trkpt lat="47.20658" lon="-1.62032">
        <ele>17.6</ele>
        <time>2013-09-27T17:01:41Z</time>
      </trkpt>
      <trkpt lat="47.20666" lon="-1.62023">
        <ele>17.5</ele>
        <time>2013-09-27T17:01:46Z</time>
      </trkpt>
      <trkpt lat="47.20676" lon="-1.62017">
        <ele>17.4</ele>
        <time>2013-09-27T17:01:52Z</time>
      </trkpt>
      <trkpt lat="47.20684" lon="-1.62009">
        <ele>17.3</ele>
        <time>2013-09-27T17:01:57Z</time>
      </trkpt>
      <trkpt lat="47.20695" lon="-1.62006">
        <ele>17</ele>
        <time>2013-09-27T17:02:02Z</time>
      </trkpt>
      <trkpt lat="47.20706" lon="-1.62004">
        <ele>16.8</ele>
        <time>2013-09-27T17:02:07Z</time>
      </trkpt>
      <trkpt lat="47.20716" lon="-1.62005">
        <ele>17</ele>
        <time>2013-09-27T17:02:12Z</time>
      </trkpt>
      <trkpt lat="47.20725" lon="-1.62">
        <ele>16.9</ele>
        <time>2013-09-27T17:02:21Z</time>
      </trkpt>
      <trkpt lat="47.20732" lon="-1.61992">
        <ele>16.6</ele>
        <time>2013-09-27T17:02:40Z</time>
      </trkpt>
      <trkpt lat="47.20742" lon="-1.61993">
        <ele>15.7</ele>
        <time>2013-09-27T17:02:59Z</time>
      </trkpt>
      <trkpt lat="47.20751" lon="-1.61994">
        <ele>15.9</ele>
        <time>2013-09-27T17:03:05Z</time>
      </trkpt>
      <trkpt lat="47.20761" lon="-1.61994">
        <ele>16.1</ele>
        <time>2013-09-27T17:03:10Z</time>
      </trkpt>
      <trkpt lat="47.20771" lon="-1.61996">
        <ele>16.8</ele>
        <time>2013-09-27T17:03:16Z</time>
      </trkpt>
      <trkpt lat="47.20782" lon="-1.61997">
        <ele>17.5</ele>
        <time>2013-09-27T17:03:21Z</time>
      </trkpt>
      <trkpt lat="47.20791" lon="-1.61998">
        <ele>18</ele>
        <time>2013-09-27T17:03:26Z</time>
      </trkpt>
      <trkpt lat="47.20802" lon="-1.61998">
        <ele>18.4</ele>
        <time>2013-09-27T17:03:29Z</time>
      </trkpt>
      <trkpt lat="47.20811" lon="-1.61998">
        <ele>18.8</ele>
        <time>2013-09-27T17:03:31Z</time>
      </trkpt>
      <trkpt lat="47.20821" lon="-1.61988">
        <ele>19.2</ele>
        <time>2013-09-27T17:03:34Z</time>
      </trkpt>
      <trkpt lat="47.20828" lon="-1.61978">
        <ele>19.9</ele>
        <time>2013-09-27T17:03:38Z</time>
      </trkpt>
      <trkpt lat="47.20836" lon="-1.61971">
        <ele>20.7</ele>
        <time>2013-09-27T17:03:44Z</time>
      </trkpt>
      <trkpt lat="47.20836" lon="-1.61956">
        <ele>22.3</ele>
        <time>2013-09-27T17:03:55Z</time>
      </trkpt>
      <trkpt lat="47.2083" lon="-1.61945">
        <ele>23.2</ele>
        <time>2013-09-27T17:04:02Z</time>
      </trkpt>
      <trkpt lat="47.20824" lon="-1.61934">
        <ele>23.3</ele>
        <time>2013-09-27T17:04:08Z</time>
      </trkpt>
      <trkpt lat="47.20823" lon="-1.6192">
        <ele>28.3</ele>
        <time>2013-09-27T17:06:35Z</time>
      </trkpt>
      <trkpt lat="47.20825" lon="-1.61907">
        <ele>29</ele>
        <time>2013-09-27T17:06:40Z</time>
      </trkpt>
      <trkpt lat="47.20836" lon="-1.61902">
        <ele>29.6</ele>
        <time>2013-09-27T17:06:45Z</time>
      </trkpt>
      <trkpt lat="47.20846" lon="-1.61906">
        <ele>29.9</ele>
        <time>2013-09-27T17:06:49Z</time>
      </trkpt>
      <trkpt lat="47.20853" lon="-1.61919">
        <ele>30.1</ele>
        <time>2013-09-27T17:06:53Z</time>
      </trkpt>
      <trkpt lat="47.20856" lon="-1.61932">
        <ele>30.1</ele>
        <time>2013-09-27T17:06:56Z</time>
      </trkpt>
      <trkpt lat="47.20859" lon="-1.61947">
        <ele>30.2</ele>
        <time>2013-09-27T17:07:00Z</time>
      </trkpt>
      <trkpt lat="47.20864" lon="-1.6196">
        <ele>31.4</ele>
        <time>2013-09-27T17:07:14Z</time>
      </trkpt>
      <trkpt lat="47.2087" lon="-1.61977">
        <ele>31.6</ele>
        <time>2013-09-27T17:07:18Z</time>
      </trkpt>
      <trkpt lat="47.20874" lon="-1.6199">
        <ele>31.7</ele>
        <time>2013-09-27T17:07:21Z</time>
      </trkpt>
      <trkpt lat="47.20865" lon="-1.61984">
        <ele>32.2</ele>
        <time>2013-09-27T17:07:31Z</time>
      </trkpt>
      <trkpt lat="47.20872" lon="-1.61996">
        <ele>32</ele>
        <time>2013-09-27T17:08:07Z</time>
      </trkpt>
      <trkpt lat="47.20873" lon="-1.6201">
        <ele>32.1</ele>
        <time>2013-09-27T17:08:10Z</time>
      </trkpt>
      <trkpt lat="47.20864" lon="-1.62022">
        <ele>32.3</ele>
        <time>2013-09-27T17:08:14Z</time>
      </trkpt>
      <trkpt lat="47.20853" lon="-1.62025">
        <ele>32.3</ele>
        <time>2013-09-27T17:08:17Z</time>
      </trkpt>
      <trkpt lat="47.20844" lon="-1.6203">
        <ele>32.3</ele>
        <time>2013-09-27T17:08:19Z</time>
      </trkpt>
      <trkpt lat="47.20838" lon="-1.62043">
        <ele>32.2</ele>
        <time>2013-09-27T17:08:22Z</time>
      </trkpt>
      <trkpt lat="47.20842" lon="-1.62031">
        <ele>32.5</ele>
        <time>2013-09-27T17:08:36Z</time>
      </trkpt>
      <trkpt lat="47.20832" lon="-1.6203">
        <ele>32.3</ele>
        <time>2013-09-27T17:08:53Z</time>
      </trkpt>
      <trkpt lat="47.20822" lon="-1.62031">
        <ele>32.3</ele>
        <time>2013-09-27T17:09:00Z</time>
      </trkpt>
      <trkpt lat="47.2081" lon="-1.62027">
        <ele>31.7</ele>
        <time>2013-09-27T17:09:03Z</time>
      </trkpt>
      <trkpt lat="47.20801" lon="-1.62025">
        <ele>30.8</ele>
        <time>2013-09-27T17:09:07Z</time>
      </trkpt>
      <trkpt lat="47.20795" lon="-1.62015">
        <ele>29</ele>
        <time>2013-09-27T17:09:18Z</time>
      </trkpt>
      <trkpt lat="47.20787" lon="-1.62024">
        <ele>27.2</ele>
        <time>2013-09-27T17:09:51Z</time>
      </trkpt>
      <trkpt lat="47.20777" lon="-1.62025">
        <ele>26.8</ele>
        <time>2013-09-27T17:09:56Z</time>
      </trkpt>
      <trkpt lat="47.20768" lon="-1.62027">
        <ele>26.7</ele>
        <time>2013-09-27T17:10:00Z</time>
      </trkpt>
      <trkpt lat="47.20757" lon="-1.62029">
        <ele>26.3</ele>
        <time>2013-09-27T17:10:03Z</time>
      </trkpt>
      <trkpt lat="47.20747" lon="-1.62029">
        <ele>25.6</ele>
        <time>2013-09-27T17:10:06Z</time>
      </trkpt>
      <trkpt lat="47.20737" lon="-1.6203">
        <ele>22.1</ele>
        <time>2013-09-27T17:10:09Z</time>
      </trkpt>
      <trkpt lat="47.20725" lon="-1.6203">
        <ele>18.8</ele>
        <time>2013-09-27T17:10:12Z</time>
      </trkpt>
      <trkpt lat="47.20713" lon="-1.62029">
        <ele>18.7</ele>
        <time>2013-09-27T17:10:15Z</time>
      </trkpt>
      <trkpt lat="47.20703" lon="-1.6203">
        <ele>18.7</ele>
        <time>2013-09-27T17:10:18Z</time>
      </trkpt>
      <trkpt lat="47.20695" lon="-1.62035">
        <ele>18.5</ele>
        <time>2013-09-27T17:10:21Z</time>
      </trkpt>
      <trkpt lat="47.20684" lon="-1.62042">
        <ele>18.4</ele>
        <time>2013-09-27T17:10:24Z</time>
      </trkpt>
      <trkpt lat="47.20676" lon="-1.6205">
        <ele>18.2</ele>
        <time>2013-09-27T17:10:27Z</time>
      </trkpt>
      <trkpt lat="47.20667" lon="-1.6206">
        <ele>18</ele>
        <time>2013-09-27T17:10:30Z</time>
      </trkpt>
      <trkpt lat="47.20659" lon="-1.62071">
        <ele>17.5</ele>
        <time>2013-09-27T17:10:34Z</time>
      </trkpt>
      <trkpt lat="47.20651" lon="-1.6208">
        <ele>17</ele>
        <time>2013-09-27T17:10:37Z</time>
      </trkpt>
      <trkpt lat="47.20643" lon="-1.62089">
        <ele>16.4</ele>
        <time>2013-09-27T17:10:40Z</time>
      </trkpt>
      <trkpt lat="47.20633" lon="-1.62092">
        <ele>15.7</ele>
        <time>2013-09-27T17:10:43Z</time>
      </trkpt>
      <trkpt lat="47.20624" lon="-1.62091">
        <ele>14.9</ele>
        <time>2013-09-27T17:10:46Z</time>
      </trkpt>
      <trkpt lat="47.20615" lon="-1.62092">
        <ele>14.3</ele>
        <time>2013-09-27T17:10:49Z</time>
      </trkpt>
      <trkpt lat="47.20607" lon="-1.62103">
        <ele>13.2</ele>
        <time>2013-09-27T17:10:54Z</time>
      </trkpt>
      <trkpt lat="47.20599" lon="-1.62109">
        <ele>12.1</ele>
        <time>2013-09-27T17:10:59Z</time>
      </trkpt>
      <trkpt lat="47.20584" lon="-1.62108">
        <ele>7.4</ele>
        <time>2013-09-27T17:11:03Z</time>
      </trkpt>
      <trkpt lat="47.20571" lon="-1.62109">
        <ele>3.5</ele>
        <time>2013-09-27T17:11:05Z</time>
      </trkpt>
      <trkpt lat="47.20557" lon="-1.6211">
        <ele>1.9</ele>
        <time>2013-09-27T17:11:07Z</time>
      </trkpt>
      <trkpt lat="47.20543" lon="-1.62112">
        <ele>1.2</ele>
        <time>2013-09-27T17:11:09Z</time>
      </trkpt>
      <trkpt lat="47.20533" lon="-1.62111">
        <ele>1.1</ele>
        <time>2013-09-27T17:11:11Z</time>
      </trkpt>
      <trkpt lat="47.20521" lon="-1.62111">
        <ele>0.8</ele>
        <time>2013-09-27T17:11:14Z</time>
      </trkpt>
      <trkpt lat="47.2051" lon="-1.62105">
        <ele>0.9</ele>
        <time>2013-09-27T17:11:17Z</time>
      </trkpt>
      <trkpt lat="47.20506" lon="-1.62093">
        <ele>1.4</ele>
        <time>2013-09-27T17:11:23Z</time>
      </trkpt>
      <trkpt lat="47.20516" lon="-1.62089">
        <ele>2.4</ele>
        <time>2013-09-27T17:11:31Z</time>
      </trkpt>
      <trkpt lat="47.20526" lon="-1.62086">
        <ele>3.3</ele>
        <time>2013-09-27T17:11:35Z</time>
      </trkpt>
      <trkpt lat="47.20535" lon="-1.6208">
        <ele>4.2</ele>
        <time>2013-09-27T17:11:40Z</time>
      </trkpt>
      <trkpt lat="47.20544" lon="-1.62076">
        <ele>5.1</ele>
        <time>2013-09-27T17:11:45Z</time>
      </trkpt>
      <trkpt lat="47.20554" lon="-1.62072">
        <ele>6.4</ele>
        <time>2013-09-27T17:11:51Z</time>
      </trkpt>
      <trkpt lat="47.20564" lon="-1.6207">
        <ele>7.1</ele>
        <time>2013-09-27T17:11:57Z</time>
      </trkpt>
      <trkpt lat="47.20574" lon="-1.62066">
        <ele>7.7</ele>
        <time>2013-09-27T17:12:02Z</time>
      </trkpt>
      <trkpt lat="47.20581" lon="-1.62058">
        <ele>8.3</ele>
        <time>2013-09-27T17:12:15Z</time>
      </trkpt>
      <trkpt lat="47.20572" lon="-1.62065">
        <ele>9.4</ele>
        <time>2013-09-27T17:12:30Z</time>
      </trkpt>
      <trkpt lat="47.20561" lon="-1.62075">
        <ele>9</ele>
        <time>2013-09-27T17:12:33Z</time>
      </trkpt>
      <trkpt lat="47.20548" lon="-1.62077">
        <ele>8.1</ele>
        <time>2013-09-27T17:12:35Z</time>
      </trkpt>
      <trkpt lat="47.20537" lon="-1.62078">
        <ele>8.5</ele>
        <time>2013-09-27T17:12:37Z</time>
      </trkpt>
      <trkpt lat="47.20526" lon="-1.62079">
        <ele>8.4</ele>
        <time>2013-09-27T17:12:39Z</time>
      </trkpt>
      <trkpt lat="47.20517" lon="-1.62081">
        <ele>8.1</ele>
        <time>2013-09-27T17:12:42Z</time>
      </trkpt>
      <trkpt lat="47.20508" lon="-1.62093">
        <ele>8.2</ele>
        <time>2013-09-27T17:12:46Z</time>
      </trkpt>
      <trkpt lat="47.20498" lon="-1.621">
        <ele>8.5</ele>
        <time>2013-09-27T17:12:50Z</time>
      </trkpt>
      <trkpt lat="47.20488" lon="-1.62097">
        <ele>8.5</ele>
        <time>2013-09-27T17:12:57Z</time>
      </trkpt>
      <trkpt lat="47.20478" lon="-1.62093">
        <ele>8.2</ele>
        <time>2013-09-27T17:13:00Z</time>
      </trkpt>
      <trkpt lat="47.20468" lon="-1.6209">
        <ele>7.8</ele>
        <time>2013-09-27T17:13:04Z</time>
      </trkpt>
      <trkpt lat="47.20457" lon="-1.62092">
        <ele>7.5</ele>
        <time>2013-09-27T17:13:09Z</time>
      </trkpt>
      <trkpt lat="47.20447" lon="-1.62095">
        <ele>7.4</ele>
        <time>2013-09-27T17:13:12Z</time>
      </trkpt>
      <trkpt lat="47.20437" lon="-1.62101">
        <ele>7.3</ele>
        <time>2013-09-27T17:13:15Z</time>
      </trkpt>
      <trkpt lat="47.20434" lon="-1.62087">
        <ele>7.8</ele>
        <time>2013-09-27T17:13:46Z</time>
      </trkpt>
      <trkpt lat="47.20424" lon="-1.6208">
        <ele>7.6</ele>
        <time>2013-09-27T17:13:55Z</time>
      </trkpt>
      <trkpt lat="47.20415" lon="-1.62087">
        <ele>7.3</ele>
        <time>2013-09-27T17:13:59Z</time>
      </trkpt>
      <trkpt lat="47.20403" lon="-1.62096">
        <ele>7</ele>
        <time>2013-09-27T17:14:02Z</time>
      </trkpt>
      <trkpt lat="47.20394" lon="-1.62103">
        <ele>6.8</ele>
        <time>2013-09-27T17:14:04Z</time>
      </trkpt>
      <trkpt lat="47.20386" lon="-1.62111">
        <ele>6.7</ele>
        <time>2013-09-27T17:14:06Z</time>
      </trkpt>
      <trkpt lat="47.20378" lon="-1.62118">
        <ele>6.5</ele>
        <time>2013-09-27T17:14:08Z</time>
      </trkpt>
      <trkpt lat="47.2037" lon="-1.62126">
        <ele>6.2</ele>
        <time>2013-09-27T17:14:10Z</time>
      </trkpt>
      <trkpt lat="47.20361" lon="-1.62132">
        <ele>6</ele>
        <time>2013-09-27T17:14:13Z</time>
      </trkpt>
      <trkpt lat="47.20352" lon="-1.62134">
        <ele>5.8</ele>
        <time>2013-09-27T17:14:21Z</time>
      </trkpt>
      <trkpt lat="47.20356" lon="-1.62122">
        <ele>6.5</ele>
        <time>2013-09-27T17:15:07Z</time>
      </trkpt>
      <trkpt lat="47.20357" lon="-1.62107">
        <ele>7.5</ele>
        <time>2013-09-27T17:15:13Z</time>
      </trkpt>
      <trkpt lat="47.20357" lon="-1.62093">
        <ele>8.4</ele>
        <time>2013-09-27T17:15:27Z</time>
      </trkpt>
      <trkpt lat="47.20349" lon="-1.62087">
        <ele>9.3</ele>
        <time>2013-09-27T17:15:36Z</time>
      </trkpt>
      <trkpt lat="47.20339" lon="-1.62084">
        <ele>10.8</ele>
        <time>2013-09-27T17:16:06Z</time>
      </trkpt>
      <trkpt lat="47.20331" lon="-1.6209">
        <ele>11.8</ele>
        <time>2013-09-27T17:16:15Z</time>
      </trkpt>
      <trkpt lat="47.20322" lon="-1.62095">
        <ele>11.9</ele>
        <time>2013-09-27T17:16:20Z</time>
      </trkpt>
      <trkpt lat="47.20311" lon="-1.62104">
        <ele>11.8</ele>
        <time>2013-09-27T17:16:24Z</time>
      </trkpt>
      <trkpt lat="47.20302" lon="-1.62113">
        <ele>12</ele>
        <time>2013-09-27T17:16:27Z</time>
      </trkpt>
      <trkpt lat="47.20291" lon="-1.62115">
        <ele>12.1</ele>
        <time>2013-09-27T17:16:30Z</time>
      </trkpt>
      <trkpt lat="47.20282" lon="-1.62113">
        <ele>12.3</ele>
        <time>2013-09-27T17:16:34Z</time>
      </trkpt>
      <trkpt lat="47.20276" lon="-1.62124">
        <ele>12.5</ele>
        <time>2013-09-27T17:16:42Z</time>
      </trkpt>
      <trkpt lat="47.20273" lon="-1.62138">
        <ele>12.4</ele>
        <time>2013-09-27T17:16:46Z</time>
      </trkpt>
      <trkpt lat="47.20281" lon="-1.62142">
        <ele>11.7</ele>
        <time>2013-09-27T17:16:56Z</time>
      </trkpt>
      <trkpt lat="47.20274" lon="-1.62134">
        <ele>11.2</ele>
        <time>2013-09-27T17:17:07Z</time>
      </trkpt>
      <trkpt lat="47.20286" lon="-1.62138">
        <ele>10.8</ele>
        <time>2013-09-27T17:17:16Z</time>
      </trkpt>
      <trkpt lat="47.20297" lon="-1.62146">
        <ele>10.4</ele>
        <time>2013-09-27T17:17:19Z</time>
      </trkpt>
      <trkpt lat="47.20305" lon="-1.62157">
        <ele>10</ele>
        <time>2013-09-27T17:17:23Z</time>
      </trkpt>
      <trkpt lat="47.20303" lon="-1.6217">
        <ele>9.9</ele>
        <time>2013-09-27T17:17:26Z</time>
      </trkpt>
      <trkpt lat="47.20298" lon="-1.62183">
        <ele>9.5</ele>
        <time>2013-09-27T17:17:30Z</time>
      </trkpt>
      <trkpt lat="47.20294" lon="-1.62197">
        <ele>9.2</ele>
        <time>2013-09-27T17:17:34Z</time>
      </trkpt>
      <trkpt lat="47.2029" lon="-1.62211">
        <ele>8.7</ele>
        <time>2013-09-27T17:17:38Z</time>
      </trkpt>
      <trkpt lat="47.20284" lon="-1.62223">
        <ele>8.5</ele>
        <time>2013-09-27T17:17:41Z</time>
      </trkpt>
      <trkpt lat="47.20275" lon="-1.62233">
        <ele>8.3</ele>
        <time>2013-09-27T17:17:44Z</time>
      </trkpt>
      <trkpt lat="47.20272" lon="-1.62248">
        <ele>8.2</ele>
        <time>2013-09-27T17:17:48Z</time>
      </trkpt>
      <trkpt lat="47.20278" lon="-1.62261">
        <ele>8.1</ele>
        <time>2013-09-27T17:17:54Z</time>
      </trkpt>
      <trkpt lat="47.20286" lon="-1.62272">
        <ele>8.1</ele>
        <time>2013-09-27T17:17:58Z</time>
      </trkpt>
      <trkpt lat="47.20295" lon="-1.62281">
        <ele>8.4</ele>
        <time>2013-09-27T17:18:01Z</time>
      </trkpt>
      <trkpt lat="47.20303" lon="-1.62289">
        <ele>8.9</ele>
        <time>2013-09-27T17:18:03Z</time>
      </trkpt>
      <trkpt lat="47.2031" lon="-1.62298">
        <ele>8.9</ele>
        <time>2013-09-27T17:18:06Z</time>
      </trkpt>
      <trkpt lat="47.20316" lon="-1.6231">
        <ele>8.9</ele>
        <time>2013-09-27T17:18:10Z</time>
      </trkpt>
      <trkpt lat="47.20323" lon="-1.62321">
        <ele>8.8</ele>
        <time>2013-09-27T17:18:14Z</time>
      </trkpt>
      <trkpt lat="47.20329" lon="-1.62332">
        <ele>9</ele>
        <time>2013-09-27T17:18:19Z</time>
      </trkpt>
      <trkpt lat="47.20334" lon="-1.62343">
        <ele>9.3</ele>
        <time>2013-09-27T17:18:29Z</time>
      </trkpt>
      <trkpt lat="47.20341" lon="-1.62356">
        <ele>9.4</ele>
        <time>2013-09-27T17:18:34Z</time>
      </trkpt>
      <trkpt lat="47.20346" lon="-1.62367">
        <ele>9.6</ele>
        <time>2013-09-27T17:18:39Z</time>
      </trkpt>
      <trkpt lat="47.20353" lon="-1.62377">
        <ele>9.7</ele>
        <time>2013-09-27T17:18:44Z</time>
      </trkpt>
      <trkpt lat="47.2036" lon="-1.62387">
        <ele>9.7</ele>
        <time>2013-09-27T17:18:49Z</time>
      </trkpt>
      <trkpt lat="47.20366" lon="-1.624">
        <ele>9.7</ele>
        <time>2013-09-27T17:18:53Z</time>
      </trkpt>
      <trkpt lat="47.20373" lon="-1.62412">
        <ele>9.7</ele>
        <time>2013-09-27T17:18:57Z</time>
      </trkpt>
      <trkpt lat="47.2038" lon="-1.62424">
        <ele>9.5</ele>
        <time>2013-09-27T17:19:00Z</time>
      </trkpt>
      <trkpt lat="47.20388" lon="-1.62435">
        <ele>9.3</ele>
        <time>2013-09-27T17:19:03Z</time>
      </trkpt>
      <trkpt lat="47.20394" lon="-1.62445">
        <ele>9.3</ele>
        <time>2013-09-27T17:19:06Z</time>
      </trkpt>
      <trkpt lat="47.20401" lon="-1.62456">
        <ele>9.5</ele>
        <time>2013-09-27T17:19:09Z</time>
      </trkpt>
      <trkpt lat="47.20407" lon="-1.62466">
        <ele>9.6</ele>
        <time>2013-09-27T17:19:12Z</time>
      </trkpt>
      <trkpt lat="47.20414" lon="-1.62478">
        <ele>9.6</ele>
        <time>2013-09-27T17:19:15Z</time>
      </trkpt>
      <trkpt lat="47.20421" lon="-1.62491">
        <ele>9.7</ele>
        <time>2013-09-27T17:19:19Z</time>
      </trkpt>
      <trkpt lat="47.20428" lon="-1.62501">
        <ele>9.7</ele>
        <time>2013-09-27T17:19:22Z</time>
      </trkpt>
      <trkpt lat="47.20435" lon="-1.62511">
        <ele>9.9</ele>
        <time>2013-09-27T17:19:25Z</time>
      </trkpt>
      <trkpt lat="47.20442" lon="-1.6252">
        <ele>9.8</ele>
        <time>2013-09-27T17:19:28Z</time>
      </trkpt>
      <trkpt lat="47.2045" lon="-1.62533">
        <ele>9.8</ele>
        <time>2013-09-27T17:19:32Z</time>
      </trkpt>
      <trkpt lat="47.20457" lon="-1.62544">
        <ele>9.8</ele>
        <time>2013-09-27T17:19:36Z</time>
      </trkpt>
      <trkpt lat="47.20464" lon="-1.62554">
        <ele>9.9</ele>
        <time>2013-09-27T17:19:40Z</time>
      </trkpt>
      <trkpt lat="47.2047" lon="-1.62565">
        <ele>9.9</ele>
        <time>2013-09-27T17:19:43Z</time>
      </trkpt>
      <trkpt lat="47.20476" lon="-1.62577">
        <ele>9.9</ele>
        <time>2013-09-27T17:19:46Z</time>
      </trkpt>
      <trkpt lat="47.20482" lon="-1.6259">
        <ele>10</ele>
        <time>2013-09-27T17:19:49Z</time>
      </trkpt>
      <trkpt lat="47.20487" lon="-1.62602">
        <ele>10</ele>
        <time>2013-09-27T17:19:53Z</time>
      </trkpt>
      <trkpt lat="47.20494" lon="-1.62613">
        <ele>10</ele>
        <time>2013-09-27T17:19:56Z</time>
      </trkpt>
      <trkpt lat="47.20502" lon="-1.62625">
        <ele>9.9</ele>
        <time>2013-09-27T17:20:00Z</time>
      </trkpt>
      <trkpt lat="47.20508" lon="-1.62634">
        <ele>9.9</ele>
        <time>2013-09-27T17:20:03Z</time>
      </trkpt>
      <trkpt lat="47.20515" lon="-1.62646">
        <ele>10</ele>
        <time>2013-09-27T17:20:06Z</time>
      </trkpt>
      <trkpt lat="47.20522" lon="-1.62658">
        <ele>9.9</ele>
        <time>2013-09-27T17:20:09Z</time>
      </trkpt>
      <trkpt lat="47.20528" lon="-1.62671">
        <ele>10</ele>
        <time>2013-09-27T17:20:13Z</time>
      </trkpt>
      <trkpt lat="47.20534" lon="-1.62683">
        <ele>10.2</ele>
        <time>2013-09-27T17:20:17Z</time>
      </trkpt>
      <trkpt lat="47.20542" lon="-1.62675">
        <ele>10.6</ele>
        <time>2013-09-27T17:20:27Z</time>
      </trkpt>
      <trkpt lat="47.20553" lon="-1.62676">
        <ele>11.1</ele>
        <time>2013-09-27T17:20:31Z</time>
      </trkpt>
      <trkpt lat="47.20563" lon="-1.62679">
        <ele>11.6</ele>
        <time>2013-09-27T17:20:34Z</time>
      </trkpt>
      <trkpt lat="47.20574" lon="-1.62677">
        <ele>12.2</ele>
        <time>2013-09-27T17:20:39Z</time>
      </trkpt>
      <trkpt lat="47.20583" lon="-1.62675">
        <ele>12.8</ele>
        <time>2013-09-27T17:20:45Z</time>
      </trkpt>
      <trkpt lat="47.20593" lon="-1.62676">
        <ele>13.5</ele>
        <time>2013-09-27T17:20:51Z</time>
      </trkpt>
      <trkpt lat="47.20602" lon="-1.62669">
        <ele>14</ele>
        <time>2013-09-27T17:20:55Z</time>
      </trkpt>
      <trkpt lat="47.20613" lon="-1.62668">
        <ele>15.1</ele>
        <time>2013-09-27T17:21:01Z</time>
      </trkpt>
      <trkpt lat="47.20622" lon="-1.62667">
        <ele>15.9</ele>
        <time>2013-09-27T17:21:05Z</time>
      </trkpt>
      <trkpt lat="47.20632" lon="-1.62667">
        <ele>16.7</ele>
        <time>2013-09-27T17:21:10Z</time>
      </trkpt>
      <trkpt lat="47.20641" lon="-1.62669">
        <ele>17</ele>
        <time>2013-09-27T17:21:14Z</time>
      </trkpt>
      <trkpt lat="47.20651" lon="-1.6267">
        <ele>17.3</ele>
        <time>2013-09-27T17:21:19Z</time>
      </trkpt>
      <trkpt lat="47.20661" lon="-1.6267">
        <ele>17.6</ele>
        <time>2013-09-27T17:21:24Z</time>
      </trkpt>
      <trkpt lat="47.20671" lon="-1.6267">
        <ele>17.8</ele>
        <time>2013-09-27T17:21:29Z</time>
      </trkpt>
      <trkpt lat="47.2068" lon="-1.62671">
        <ele>18.4</ele>
        <time>2013-09-27T17:21:34Z</time>
      </trkpt>
      <trkpt lat="47.20691" lon="-1.62671">
        <ele>19.2</ele>
        <time>2013-09-27T17:21:40Z</time>
      </trkpt>
      <trkpt lat="47.207" lon="-1.6267">
        <ele>20.1</ele>
        <time>2013-09-27T17:21:46Z</time>
      </trkpt>
      <trkpt lat="47.20711" lon="-1.62668">
        <ele>20.6</ele>
        <time>2013-09-27T17:21:52Z</time>
      </trkpt>
      <trkpt lat="47.20721" lon="-1.62669">
        <ele>21.1</ele>
        <time>2013-09-27T17:21:58Z</time>
      </trkpt>
      <trkpt lat="47.2073" lon="-1.62664">
        <ele>21.7</ele>
        <time>2013-09-27T17:22:04Z</time>
      </trkpt>
      <trkpt lat="47.20741" lon="-1.62665">
        <ele>22.7</ele>
        <time>2013-09-27T17:22:12Z</time>
      </trkpt>
      <trkpt lat="47.20752" lon="-1.62666">
        <ele>23.1</ele>
        <time>2013-09-27T17:22:18Z</time>
      </trkpt>
      <trkpt lat="47.20762" lon="-1.62667">
        <ele>23.4</ele>
        <time>2013-09-27T17:22:23Z</time>
      </trkpt>
      <trkpt lat="47.20772" lon="-1.62666">
        <ele>23.8</ele>
        <time>2013-09-27T17:22:28Z</time>
      </trkpt>
      <trkpt lat="47.20781" lon="-1.62664">
        <ele>24.5</ele>
        <time>2013-09-27T17:22:33Z</time>
      </trkpt>
      <trkpt lat="47.20791" lon="-1.6266">
        <ele>25</ele>
        <time>2013-09-27T17:22:39Z</time>
      </trkpt>
      <trkpt lat="47.208" lon="-1.62665">
        <ele>24.9</ele>
        <time>2013-09-27T17:22:46Z</time>
      </trkpt>
      <trkpt lat="47.2079" lon="-1.62665">
        <ele>25.2</ele>
        <time>2013-09-27T17:23:19Z</time>
      </trkpt>
      <trkpt lat="47.2078" lon="-1.62664">
        <ele>25.2</ele>
        <time>2013-09-27T17:23:23Z</time>
      </trkpt>
      <trkpt lat="47.2077" lon="-1.62666">
        <ele>25.3</ele>
        <time>2013-09-27T17:23:28Z</time>
      </trkpt>
      <trkpt lat="47.2076" lon="-1.62666">
        <ele>25.1</ele>
        <time>2013-09-27T17:23:34Z</time>
      </trkpt>
      <trkpt lat="47.20748" lon="-1.62666">
        <ele>24.8</ele>
        <time>2013-09-27T17:23:39Z</time>
      </trkpt>
      <trkpt lat="47.20739" lon="-1.62667">
        <ele>24.6</ele>
        <time>2013-09-27T17:23:43Z</time>
      </trkpt>
      <trkpt lat="47.20729" lon="-1.62665">
        <ele>24.1</ele>
        <time>2013-09-27T17:23:49Z</time>
      </trkpt>
      <trkpt lat="47.20728" lon="-1.62652">
        <ele>23.6</ele>
        <time>2013-09-27T17:23:55Z</time>
      </trkpt>
      <trkpt lat="47.20725" lon="-1.62639">
        <ele>23.6</ele>
        <time>2013-09-27T17:24:00Z</time>
      </trkpt>
      <trkpt lat="47.20721" lon="-1.62626">
        <ele>23.5</ele>
        <time>2013-09-27T17:24:05Z</time>
      </trkpt>
      <trkpt lat="47.20715" lon="-1.62615">
        <ele>23.4</ele>
        <time>2013-09-27T17:24:09Z</time>
      </trkpt>
      <trkpt lat="47.20707" lon="-1.62605">
        <ele>23.3</ele>
        <time>2013-09-27T17:24:13Z</time>
      </trkpt>
      <trkpt lat="47.20698" lon="-1.62598">
        <ele>23.2</ele>
        <time>2013-09-27T17:24:18Z</time>
      </trkpt>
      <trkpt lat="47.20689" lon="-1.6259">
        <ele>23.2</ele>
        <time>2013-09-27T17:24:23Z</time>
      </trkpt>
      <trkpt lat="47.20681" lon="-1.62584">
        <ele>23.1</ele>
        <time>2013-09-27T17:24:27Z</time>
      </trkpt>
      <trkpt lat="47.20671" lon="-1.62578">
        <ele>22.8</ele>
        <time>2013-09-27T17:24:31Z</time>
      </trkpt>
      <trkpt lat="47.20662" lon="-1.6257">
        <ele>22.7</ele>
        <time>2013-09-27T17:24:35Z</time>
      </trkpt>
      <trkpt lat="47.20653" lon="-1.62564">
        <ele>22.5</ele>
        <time>2013-09-27T17:24:40Z</time>
      </trkpt>
      <trkpt lat="47.20644" lon="-1.62558">
        <ele>22.4</ele>
        <time>2013-09-27T17:24:44Z</time>
      </trkpt>
      <trkpt lat="47.20635" lon="-1.62551">
        <ele>22.3</ele>
        <time>2013-09-27T17:24:48Z</time>
      </trkpt>
      <trkpt lat="47.20628" lon="-1.62543">
        <ele>22.3</ele>
        <time>2013-09-27T17:24:52Z</time>
      </trkpt>
      <trkpt lat="47.20618" lon="-1.62534">
        <ele>22.1</ele>
        <time>2013-09-27T17:24:56Z</time>
      </trkpt>
      <trkpt lat="47.2061" lon="-1.62526">
        <ele>21.8</ele>
        <time>2013-09-27T17:25:00Z</time>
      </trkpt>
      <trkpt lat="47.20602" lon="-1.62519">
        <ele>21.8</ele>
        <time>2013-09-27T17:25:04Z</time>
      </trkpt>
      <trkpt lat="47.20593" lon="-1.62521">
        <ele>21.7</ele>
        <time>2013-09-27T17:25:10Z</time>
      </trkpt>
      <trkpt lat="47.20589" lon="-1.62537">
        <ele>21.6</ele>
        <time>2013-09-27T17:25:13Z</time>
      </trkpt>
      <trkpt lat="47.20585" lon="-1.62555">
        <ele>21.4</ele>
        <time>2013-09-27T17:25:16Z</time>
      </trkpt>
      <trkpt lat="47.2058" lon="-1.62569">
        <ele>21.4</ele>
        <time>2013-09-27T17:25:19Z</time>
      </trkpt>
      <trkpt lat="47.20574" lon="-1.62581">
        <ele>21.2</ele>
        <time>2013-09-27T17:25:23Z</time>
      </trkpt>
      <trkpt lat="47.20569" lon="-1.62592">
        <ele>21.1</ele>
        <time>2013-09-27T17:25:26Z</time>
      </trkpt>
      <trkpt lat="47.20565" lon="-1.6261">
        <ele>20.9</ele>
        <time>2013-09-27T17:25:30Z</time>
      </trkpt>
      <trkpt lat="47.20569" lon="-1.62628">
        <ele>20</ele>
        <time>2013-09-27T17:25:33Z</time>
      </trkpt>
      <trkpt lat="47.20572" lon="-1.62641">
        <ele>19.5</ele>
        <time>2013-09-27T17:25:35Z</time>
      </trkpt>
      <trkpt lat="47.20575" lon="-1.62655">
        <ele>19.4</ele>
        <time>2013-09-27T17:25:38Z</time>
      </trkpt>
      <trkpt lat="47.20572" lon="-1.62667">
        <ele>19.4</ele>
        <time>2013-09-27T17:25:42Z</time>
      </trkpt>
      <trkpt lat="47.20565" lon="-1.62679">
        <ele>19.3</ele>
        <time>2013-09-27T17:25:47Z</time>
      </trkpt>
      <trkpt lat="47.20554" lon="-1.62681">
        <ele>19</ele>
        <time>2013-09-27T17:25:51Z</time>
      </trkpt>
      <trkpt lat="47.20543" lon="-1.62679">
        <ele>18.7</ele>
        <time>2013-09-27T17:25:54Z</time>
      </trkpt>
      <trkpt lat="47.20533" lon="-1.6268">
        <ele>18.4</ele>
        <time>2013-09-27T17:25:59Z</time>
      </trkpt>
      <trkpt lat="47.20538" lon="-1.62694">
        <ele>18.1</ele>
        <time>2013-09-27T17:26:04Z</time>
      </trkpt>
      <trkpt lat="47.20544" lon="-1.62705">
        <ele>18</ele>
        <time>2013-09-27T17:26:06Z</time>
      </trkpt>
      <trkpt lat="47.20552" lon="-1.62718">
        <ele>17.8</ele>
        <time>2013-09-27T17:26:09Z</time>
      </trkpt>
      <trkpt lat="47.20562" lon="-1.62731">
        <ele>17.9</ele>
        <time>2013-09-27T17:26:12Z</time>
      </trkpt>
      <trkpt lat="47.2057" lon="-1.62742">
        <ele>17.6</ele>
        <time>2013-09-27T17:26:15Z</time>
      </trkpt>
      <trkpt lat="47.20576" lon="-1.62754">
        <ele>17.3</ele>
        <time>2013-09-27T17:26:19Z</time>
      </trkpt>
      <trkpt lat="47.2058" lon="-1.62768">
        <ele>17</ele>
        <time>2013-09-27T17:26:23Z</time>
      </trkpt>
      <trkpt lat="47.20585" lon="-1.62782">
        <ele>17.1</ele>
        <time>2013-09-27T17:26:27Z</time>
      </trkpt>
      <trkpt lat="47.20585" lon="-1.628">
        <ele>17.3</ele>
        <time>2013-09-27T17:26:31Z</time>
      </trkpt>
      <trkpt lat="47.20588" lon="-1.62816">
        <ele>17.4</ele>
        <time>2013-09-27T17:26:35Z</time>
      </trkpt>
      <trkpt lat="47.20591" lon="-1.6283">
        <ele>17.5</ele>
        <time>2013-09-27T17:26:39Z</time>
      </trkpt>
      <trkpt lat="47.20595" lon="-1.62845">
        <ele>17.5</ele>
        <time>2013-09-27T17:26:43Z</time>
      </trkpt>
      <trkpt lat="47.20596" lon="-1.6286">
        <ele>17.5</ele>
        <time>2013-09-27T17:26:47Z</time>
      </trkpt>
      <trkpt lat="47.20593" lon="-1.62875">
        <ele>17.5</ele>
        <time>2013-09-27T17:26:50Z</time>
      </trkpt>
      <trkpt lat="47.20586" lon="-1.62892">
        <ele>17.7</ele>
        <time>2013-09-27T17:26:54Z</time>
      </trkpt>
      <trkpt lat="47.2058" lon="-1.62901">
        <ele>18</ele>
        <time>2013-09-27T17:26:56Z</time>
      </trkpt>
      <trkpt lat="47.20572" lon="-1.62909">
        <ele>18.4</ele>
        <time>2013-09-27T17:26:58Z</time>
      </trkpt>
      <trkpt lat="47.20565" lon="-1.62917">
        <ele>18.3</ele>
        <time>2013-09-27T17:27:00Z</time>
      </trkpt>
      <trkpt lat="47.20556" lon="-1.62928">
        <ele>18.2</ele>
        <time>2013-09-27T17:27:03Z</time>
      </trkpt>
      <trkpt lat="47.20548" lon="-1.62939">
        <ele>18.1</ele>
        <time>2013-09-27T17:27:06Z</time>
      </trkpt>
      <trkpt lat="47.2054" lon="-1.62952">
        <ele>18</ele>
        <time>2013-09-27T17:27:09Z</time>
      </trkpt>
      <trkpt lat="47.20532" lon="-1.62964">
        <ele>18.1</ele>
        <time>2013-09-27T17:27:12Z</time>
      </trkpt>
      <trkpt lat="47.20525" lon="-1.62979">
        <ele>18.7</ele>
        <time>2013-09-27T17:27:15Z</time>
      </trkpt>
      <trkpt lat="47.20518" lon="-1.62992">
        <ele>18.8</ele>
        <time>2013-09-27T17:27:18Z</time>
      </trkpt>
      <trkpt lat="47.20513" lon="-1.63004">
        <ele>19</ele>
        <time>2013-09-27T17:27:21Z</time>
      </trkpt>
      <trkpt lat="47.20507" lon="-1.6302">
        <ele>18.9</ele>
        <time>2013-09-27T17:27:24Z</time>
      </trkpt>
      <trkpt lat="47.20502" lon="-1.63036">
        <ele>19.6</ele>
        <time>2013-09-27T17:27:27Z</time>
      </trkpt>
      <trkpt lat="47.20497" lon="-1.6305">
        <ele>19.8</ele>
        <time>2013-09-27T17:27:30Z</time>
      </trkpt>
      <trkpt lat="47.20491" lon="-1.63064">
        <ele>19.7</ele>
        <time>2013-09-27T17:27:33Z</time>
      </trkpt>
      <trkpt lat="47.20485" lon="-1.63079">
        <ele>19.1</ele>
        <time>2013-09-27T17:27:36Z</time>
      </trkpt>
      <trkpt lat="47.20479" lon="-1.63092">
        <ele>19.1</ele>
        <time>2013-09-27T17:27:39Z</time>
      </trkpt>
      <trkpt lat="47.20473" lon="-1.63106">
        <ele>18.4</ele>
        <time>2013-09-27T17:27:42Z</time>
      </trkpt>
      <trkpt lat="47.20467" lon="-1.63122">
        <ele>17</ele>
        <time>2013-09-27T17:27:45Z</time>
      </trkpt>
      <trkpt lat="47.20461" lon="-1.63138">
        <ele>17.2</ele>
        <time>2013-09-27T17:27:48Z</time>
      </trkpt>
      <trkpt lat="47.20456" lon="-1.6315">
        <ele>17.6</ele>
        <time>2013-09-27T17:27:50Z</time>
      </trkpt>
      <trkpt lat="47.20448" lon="-1.63165">
        <ele>17.1</ele>
        <time>2013-09-27T17:27:53Z</time>
      </trkpt>
      <trkpt lat="47.20441" lon="-1.63181">
        <ele>17.2</ele>
        <time>2013-09-27T17:27:56Z</time>
      </trkpt>
      <trkpt lat="47.20439" lon="-1.63194">
        <ele>17.2</ele>
        <time>2013-09-27T17:27:58Z</time>
      </trkpt>
      <trkpt lat="47.20431" lon="-1.63208">
        <ele>17.4</ele>
        <time>2013-09-27T17:28:01Z</time>
      </trkpt>
      <trkpt lat="47.20421" lon="-1.63213">
        <ele>17.8</ele>
        <time>2013-09-27T17:28:03Z</time>
      </trkpt>
      <trkpt lat="47.20411" lon="-1.6322">
        <ele>17.7</ele>
        <time>2013-09-27T17:28:05Z</time>
      </trkpt>
      <trkpt lat="47.204" lon="-1.6323">
        <ele>17.6</ele>
        <time>2013-09-27T17:28:07Z</time>
      </trkpt>
      <trkpt lat="47.20388" lon="-1.63242">
        <ele>17.7</ele>
        <time>2013-09-27T17:28:09Z</time>
      </trkpt>
      <trkpt lat="47.20377" lon="-1.63254">
        <ele>17.7</ele>
        <time>2013-09-27T17:28:11Z</time>
      </trkpt>
      <trkpt lat="47.20366" lon="-1.63267">
        <ele>17.9</ele>
        <time>2013-09-27T17:28:13Z</time>
      </trkpt>
      <trkpt lat="47.20355" lon="-1.6328">
        <ele>17.6</ele>
        <time>2013-09-27T17:28:15Z</time>
      </trkpt>
      <trkpt lat="47.20344" lon="-1.63293">
        <ele>17.3</ele>
        <time>2013-09-27T17:28:17Z</time>
      </trkpt>
      <trkpt lat="47.20333" lon="-1.63306">
        <ele>17.3</ele>
        <time>2013-09-27T17:28:19Z</time>
      </trkpt>
      <trkpt lat="47.20322" lon="-1.6332">
        <ele>17.4</ele>
        <time>2013-09-27T17:28:21Z</time>
      </trkpt>
      <trkpt lat="47.20311" lon="-1.63333">
        <ele>17.5</ele>
        <time>2013-09-27T17:28:23Z</time>
      </trkpt>
      <trkpt lat="47.203" lon="-1.63345">
        <ele>17.4</ele>
        <time>2013-09-27T17:28:25Z</time>
      </trkpt>
      <trkpt lat="47.20289" lon="-1.63356">
        <ele>17.3</ele>
        <time>2013-09-27T17:28:27Z</time>
      </trkpt>
      <trkpt lat="47.20278" lon="-1.63365">
        <ele>17</ele>
        <time>2013-09-27T17:28:29Z</time>
      </trkpt>
      <trkpt lat="47.20266" lon="-1.63375">
        <ele>16.2</ele>
        <time>2013-09-27T17:28:31Z</time>
      </trkpt>
      <trkpt lat="47.20256" lon="-1.63383">
        <ele>15.1</ele>
        <time>2013-09-27T17:28:33Z</time>
      </trkpt>
      <trkpt lat="47.20245" lon="-1.63392">
        <ele>14.6</ele>
        <time>2013-09-27T17:28:35Z</time>
      </trkpt>
      <trkpt lat="47.20235" lon="-1.63402">
        <ele>14.3</ele>
        <time>2013-09-27T17:28:37Z</time>
      </trkpt>
      <trkpt lat="47.20225" lon="-1.63412">
        <ele>13.6</ele>
        <time>2013-09-27T17:28:39Z</time>
      </trkpt>
      <trkpt lat="47.20215" lon="-1.63423">
        <ele>13.1</ele>
        <time>2013-09-27T17:28:41Z</time>
      </trkpt>
      <trkpt lat="47.20206" lon="-1.63433">
        <ele>13.2</ele>
        <time>2013-09-27T17:28:43Z</time>
      </trkpt>
      <trkpt lat="47.20198" lon="-1.63443">
        <ele>13.6</ele>
        <time>2013-09-27T17:28:45Z</time>
      </trkpt>
      <trkpt lat="47.20192" lon="-1.63453">
        <ele>13.5</ele>
        <time>2013-09-27T17:28:47Z</time>
      </trkpt>
      <trkpt lat="47.20185" lon="-1.63464">
        <ele>13.5</ele>
        <time>2013-09-27T17:28:49Z</time>
      </trkpt>
      <trkpt lat="47.20179" lon="-1.63475">
        <ele>13.7</ele>
        <time>2013-09-27T17:28:51Z</time>
      </trkpt>
      <trkpt lat="47.20172" lon="-1.63488">
        <ele>13.2</ele>
        <time>2013-09-27T17:28:53Z</time>
      </trkpt>
      <trkpt lat="47.20166" lon="-1.635">
        <ele>12.5</ele>
        <time>2013-09-27T17:28:55Z</time>
      </trkpt>
      <trkpt lat="47.2016" lon="-1.63511">
        <ele>12.3</ele>
        <time>2013-09-27T17:28:57Z</time>
      </trkpt>
      <trkpt lat="47.20154" lon="-1.63522">
        <ele>12.1</ele>
        <time>2013-09-27T17:28:59Z</time>
      </trkpt>
      <trkpt lat="47.20149" lon="-1.63533">
        <ele>11.4</ele>
        <time>2013-09-27T17:29:01Z</time>
      </trkpt>
      <trkpt lat="47.20142" lon="-1.63549">
        <ele>10.3</ele>
        <time>2013-09-27T17:29:04Z</time>
      </trkpt>
      <trkpt lat="47.20135" lon="-1.63565">
        <ele>10.8</ele>
        <time>2013-09-27T17:29:07Z</time>
      </trkpt>
      <trkpt lat="47.20129" lon="-1.63575">
        <ele>11.4</ele>
        <time>2013-09-27T17:29:09Z</time>
      </trkpt>
      <trkpt lat="47.20122" lon="-1.63586">
        <ele>12.3</ele>
        <time>2013-09-27T17:29:11Z</time>
      </trkpt>
      <trkpt lat="47.20115" lon="-1.63595">
        <ele>12.2</ele>
        <time>2013-09-27T17:29:13Z</time>
      </trkpt>
      <trkpt lat="47.20108" lon="-1.63605">
        <ele>11.8</ele>
        <time>2013-09-27T17:29:15Z</time>
      </trkpt>
      <trkpt lat="47.20099" lon="-1.63615">
        <ele>12.1</ele>
        <time>2013-09-27T17:29:17Z</time>
      </trkpt>
      <trkpt lat="47.2009" lon="-1.63625">
        <ele>12.6</ele>
        <time>2013-09-27T17:29:19Z</time>
      </trkpt>
      <trkpt lat="47.20081" lon="-1.63634">
        <ele>12.7</ele>
        <time>2013-09-27T17:29:21Z</time>
      </trkpt>
      <trkpt lat="47.20071" lon="-1.6364">
        <ele>12.7</ele>
        <time>2013-09-27T17:29:23Z</time>
      </trkpt>
      <trkpt lat="47.2006" lon="-1.63646">
        <ele>12.7</ele>
        <time>2013-09-27T17:29:25Z</time>
      </trkpt>
      <trkpt lat="47.2005" lon="-1.63652">
        <ele>12.7</ele>
        <time>2013-09-27T17:29:27Z</time>
      </trkpt>
      <trkpt lat="47.20039" lon="-1.63658">
        <ele>12.2</ele>
        <time>2013-09-27T17:29:29Z</time>
      </trkpt>
      <trkpt lat="47.2003" lon="-1.63662">
        <ele>11.2</ele>
        <time>2013-09-27T17:29:31Z</time>
      </trkpt>
      <trkpt lat="47.20019" lon="-1.63667">
        <ele>11</ele>
        <time>2013-09-27T17:29:33Z</time>
      </trkpt>
      <trkpt lat="47.2001" lon="-1.6367">
        <ele>11.2</ele>
        <time>2013-09-27T17:29:35Z</time>
      </trkpt>
      <trkpt lat="47.19999" lon="-1.63674">
        <ele>11.7</ele>
        <time>2013-09-27T17:29:37Z</time>
      </trkpt>
      <trkpt lat="47.1999" lon="-1.63677">
        <ele>12.2</ele>
        <time>2013-09-27T17:29:39Z</time>
      </trkpt>
      <trkpt lat="47.19979" lon="-1.63681">
        <ele>12.4</ele>
        <time>2013-09-27T17:29:41Z</time>
      </trkpt>
      <trkpt lat="47.19969" lon="-1.63686">
        <ele>12.8</ele>
        <time>2013-09-27T17:29:43Z</time>
      </trkpt>
      <trkpt lat="47.19959" lon="-1.6369">
        <ele>12.8</ele>
        <time>2013-09-27T17:29:45Z</time>
      </trkpt>
      <trkpt lat="47.19948" lon="-1.63694">
        <ele>13.1</ele>
        <time>2013-09-27T17:29:48Z</time>
      </trkpt>
      <trkpt lat="47.19935" lon="-1.63698">
        <ele>13.7</ele>
        <time>2013-09-27T17:29:51Z</time>
      </trkpt>
      <trkpt lat="47.19926" lon="-1.63703">
        <ele>13.3</ele>
        <time>2013-09-27T17:29:53Z</time>
      </trkpt>
      <trkpt lat="47.19916" lon="-1.63707">
        <ele>13.3</ele>
        <time>2013-09-27T17:29:55Z</time>
      </trkpt>
      <trkpt lat="47.19905" lon="-1.63712">
        <ele>13.3</ele>
        <time>2013-09-27T17:29:57Z</time>
      </trkpt>
      <trkpt lat="47.19894" lon="-1.63716">
        <ele>12.5</ele>
        <time>2013-09-27T17:29:59Z</time>
      </trkpt>
      <trkpt lat="47.19883" lon="-1.63721">
        <ele>11.5</ele>
        <time>2013-09-27T17:30:01Z</time>
      </trkpt>
      <trkpt lat="47.1987" lon="-1.63725">
        <ele>10.4</ele>
        <time>2013-09-27T17:30:03Z</time>
      </trkpt>
      <trkpt lat="47.19855" lon="-1.6373">
        <ele>10</ele>
        <time>2013-09-27T17:30:05Z</time>
      </trkpt>
      <trkpt lat="47.19841" lon="-1.63736">
        <ele>9</ele>
        <time>2013-09-27T17:30:07Z</time>
      </trkpt>
      <trkpt lat="47.19825" lon="-1.63741">
        <ele>8</ele>
        <time>2013-09-27T17:30:09Z</time>
      </trkpt>
      <trkpt lat="47.1981" lon="-1.63744">
        <ele>7.1</ele>
        <time>2013-09-27T17:30:11Z</time>
      </trkpt>
      <trkpt lat="47.19795" lon="-1.63747">
        <ele>6.4</ele>
        <time>2013-09-27T17:30:13Z</time>
      </trkpt>
      <trkpt lat="47.19779" lon="-1.63749">
        <ele>5.8</ele>
        <time>2013-09-27T17:30:15Z</time>
      </trkpt>
      <trkpt lat="47.19764" lon="-1.63749">
        <ele>5.3</ele>
        <time>2013-09-27T17:30:17Z</time>
      </trkpt>
      <trkpt lat="47.19749" lon="-1.63749">
        <ele>5.2</ele>
        <time>2013-09-27T17:30:19Z</time>
      </trkpt>
      <trkpt lat="47.19737" lon="-1.63748">
        <ele>5.3</ele>
        <time>2013-09-27T17:30:21Z</time>
      </trkpt>
      <trkpt lat="47.19724" lon="-1.63748">
        <ele>4.6</ele>
        <time>2013-09-27T17:30:23Z</time>
      </trkpt>
      <trkpt lat="47.19712" lon="-1.63749">
        <ele>4</ele>
        <time>2013-09-27T17:30:25Z</time>
      </trkpt>
      <trkpt lat="47.19701" lon="-1.63749">
        <ele>3.6</ele>
        <time>2013-09-27T17:30:27Z</time>
      </trkpt>
      <trkpt lat="47.19689" lon="-1.63749">
        <ele>3.7</ele>
        <time>2013-09-27T17:30:29Z</time>
      </trkpt>
      <trkpt lat="47.19677" lon="-1.63749">
        <ele>3.8</ele>
        <time>2013-09-27T17:30:31Z</time>
      </trkpt>
      <trkpt lat="47.19666" lon="-1.6375">
        <ele>4.1</ele>
        <time>2013-09-27T17:30:33Z</time>
      </trkpt>
      <trkpt lat="47.19655" lon="-1.6375">
        <ele>4</ele>
        <time>2013-09-27T17:30:35Z</time>
      </trkpt>
      <trkpt lat="47.19644" lon="-1.6375">
        <ele>3.5</ele>
        <time>2013-09-27T17:30:37Z</time>
      </trkpt>
      <trkpt lat="47.19633" lon="-1.63751">
        <ele>3</ele>
        <time>2013-09-27T17:30:39Z</time>
      </trkpt>
      <trkpt lat="47.19622" lon="-1.63751">
        <ele>3</ele>
        <time>2013-09-27T17:30:41Z</time>
      </trkpt>
      <trkpt lat="47.1961" lon="-1.63751">
        <ele>3.1</ele>
        <time>2013-09-27T17:30:43Z</time>
      </trkpt>
      <trkpt lat="47.19599" lon="-1.63752">
        <ele>3.7</ele>
        <time>2013-09-27T17:30:45Z</time>
      </trkpt>
      <trkpt lat="47.19588" lon="-1.63753">
        <ele>4.2</ele>
        <time>2013-09-27T17:30:47Z</time>
      </trkpt>
      <trkpt lat="47.19578" lon="-1.63753">
        <ele>4.1</ele>
        <time>2013-09-27T17:30:49Z</time>
      </trkpt>
      <trkpt lat="47.19567" lon="-1.63753">
        <ele>4.1</ele>
        <time>2013-09-27T17:30:51Z</time>
      </trkpt>
      <trkpt lat="47.19557" lon="-1.63752">
        <ele>3.8</ele>
        <time>2013-09-27T17:30:53Z</time>
      </trkpt>
      <trkpt lat="47.19545" lon="-1.63753">
        <ele>3.5</ele>
        <time>2013-09-27T17:30:56Z</time>
      </trkpt>
      <trkpt lat="47.19536" lon="-1.63754">
        <ele>3.4</ele>
        <time>2013-09-27T17:30:58Z</time>
      </trkpt>
      <trkpt lat="47.19522" lon="-1.63756">
        <ele>3.2</ele>
        <time>2013-09-27T17:31:01Z</time>
      </trkpt>
      <trkpt lat="47.1951" lon="-1.63756">
        <ele>2.8</ele>
        <time>2013-09-27T17:31:04Z</time>
      </trkpt>
      <trkpt lat="47.19497" lon="-1.63757">
        <ele>2.9</ele>
        <time>2013-09-27T17:31:07Z</time>
      </trkpt>
      <trkpt lat="47.19488" lon="-1.63759">
        <ele>3.5</ele>
        <time>2013-09-27T17:31:09Z</time>
      </trkpt>
      <trkpt lat="47.1948" lon="-1.63765">
        <ele>3.9</ele>
        <time>2013-09-27T17:31:11Z</time>
      </trkpt>
      <trkpt lat="47.19471" lon="-1.63773">
        <ele>4.3</ele>
        <time>2013-09-27T17:31:13Z</time>
      </trkpt>
      <trkpt lat="47.19463" lon="-1.63782">
        <ele>4.1</ele>
        <time>2013-09-27T17:31:15Z</time>
      </trkpt>
      <trkpt lat="47.19456" lon="-1.63798">
        <ele>1.7</ele>
        <time>2013-09-27T17:31:18Z</time>
      </trkpt>
      <trkpt lat="47.19458" lon="-1.63814">
        <ele>1.6</ele>
        <time>2013-09-27T17:31:21Z</time>
      </trkpt>
      <trkpt lat="47.19464" lon="-1.63827">
        <ele>2</ele>
        <time>2013-09-27T17:31:23Z</time>
      </trkpt>
      <trkpt lat="47.19471" lon="-1.63837">
        <ele>2.3</ele>
        <time>2013-09-27T17:31:25Z</time>
      </trkpt>
      <trkpt lat="47.19479" lon="-1.63845">
        <ele>2.3</ele>
        <time>2013-09-27T17:31:27Z</time>
      </trkpt>
      <trkpt lat="47.19487" lon="-1.63851">
        <ele>3</ele>
        <time>2013-09-27T17:31:29Z</time>
      </trkpt>
      <trkpt lat="47.19499" lon="-1.63858">
        <ele>3.7</ele>
        <time>2013-09-27T17:31:32Z</time>
      </trkpt>
      <trkpt lat="47.19508" lon="-1.63865">
        <ele>4.1</ele>
        <time>2013-09-27T17:31:35Z</time>
      </trkpt>
      <trkpt lat="47.19518" lon="-1.63873">
        <ele>4.2</ele>
        <time>2013-09-27T17:31:38Z</time>
      </trkpt>
      <trkpt lat="47.19528" lon="-1.6388">
        <ele>4.3</ele>
        <time>2013-09-27T17:31:41Z</time>
      </trkpt>
      <trkpt lat="47.19538" lon="-1.63887">
        <ele>4.3</ele>
        <time>2013-09-27T17:31:44Z</time>
      </trkpt>
      <trkpt lat="47.19547" lon="-1.63895">
        <ele>4.3</ele>
        <time>2013-09-27T17:31:47Z</time>
      </trkpt>
      <trkpt lat="47.19557" lon="-1.63903">
        <ele>4.4</ele>
        <time>2013-09-27T17:31:50Z</time>
      </trkpt>
      <trkpt lat="47.19566" lon="-1.6391">
        <ele>4.5</ele>
        <time>2013-09-27T17:31:53Z</time>
      </trkpt>
      <trkpt lat="47.19576" lon="-1.63918">
        <ele>4.6</ele>
        <time>2013-09-27T17:31:56Z</time>
      </trkpt>
      <trkpt lat="47.19584" lon="-1.63926">
        <ele>4.7</ele>
        <time>2013-09-27T17:31:59Z</time>
      </trkpt>
      <trkpt lat="47.19593" lon="-1.63933">
        <ele>4.9</ele>
        <time>2013-09-27T17:32:02Z</time>
      </trkpt>
      <trkpt lat="47.19603" lon="-1.63941">
        <ele>5</ele>
        <time>2013-09-27T17:32:05Z</time>
      </trkpt>
      <trkpt lat="47.19611" lon="-1.63949">
        <ele>5.2</ele>
        <time>2013-09-27T17:32:08Z</time>
      </trkpt>
      <trkpt lat="47.1962" lon="-1.63957">
        <ele>5.4</ele>
        <time>2013-09-27T17:32:11Z</time>
      </trkpt>
      <trkpt lat="47.1963" lon="-1.63965">
        <ele>5.6</ele>
        <time>2013-09-27T17:32:14Z</time>
      </trkpt>
      <trkpt lat="47.19639" lon="-1.63973">
        <ele>5.7</ele>
        <time>2013-09-27T17:32:17Z</time>
      </trkpt>
      <trkpt lat="47.19648" lon="-1.63983">
        <ele>6.4</ele>
        <time>2013-09-27T17:32:20Z</time>
      </trkpt>
      <trkpt lat="47.19658" lon="-1.63994">
        <ele>7.3</ele>
        <time>2013-09-27T17:32:23Z</time>
      </trkpt>
      <trkpt lat="47.19669" lon="-1.64006">
        <ele>7.8</ele>
        <time>2013-09-27T17:32:26Z</time>
      </trkpt>
      <trkpt lat="47.19679" lon="-1.64017">
        <ele>8.7</ele>
        <time>2013-09-27T17:32:29Z</time>
      </trkpt>
      <trkpt lat="47.19686" lon="-1.64026">
        <ele>8.8</ele>
        <time>2013-09-27T17:32:31Z</time>
      </trkpt>
      <trkpt lat="47.19694" lon="-1.64036">
        <ele>8.4</ele>
        <time>2013-09-27T17:32:33Z</time>
      </trkpt>
      <trkpt lat="47.19702" lon="-1.64046">
        <ele>8.2</ele>
        <time>2013-09-27T17:32:35Z</time>
      </trkpt>
      <trkpt lat="47.1971" lon="-1.64056">
        <ele>7.8</ele>
        <time>2013-09-27T17:32:37Z</time>
      </trkpt>
      <trkpt lat="47.19718" lon="-1.64067">
        <ele>7.4</ele>
        <time>2013-09-27T17:32:39Z</time>
      </trkpt>
      <trkpt lat="47.19727" lon="-1.64077">
        <ele>6.1</ele>
        <time>2013-09-27T17:32:41Z</time>
      </trkpt>
      <trkpt lat="47.19735" lon="-1.64088">
        <ele>5</ele>
        <time>2013-09-27T17:32:43Z</time>
      </trkpt>
      <trkpt lat="47.19743" lon="-1.641">
        <ele>4.3</ele>
        <time>2013-09-27T17:32:45Z</time>
      </trkpt>
      <trkpt lat="47.19751" lon="-1.64112">
        <ele>4.3</ele>
        <time>2013-09-27T17:32:47Z</time>
      </trkpt>
      <trkpt lat="47.19758" lon="-1.64124">
        <ele>4.1</ele>
        <time>2013-09-27T17:32:49Z</time>
      </trkpt>
      <trkpt lat="47.19766" lon="-1.64136">
        <ele>4.3</ele>
        <time>2013-09-27T17:32:51Z</time>
      </trkpt>
      <trkpt lat="47.19769" lon="-1.64149">
        <ele>4.2</ele>
        <time>2013-09-27T17:32:53Z</time>
      </trkpt>
      <trkpt lat="47.19775" lon="-1.64161">
        <ele>4.8</ele>
        <time>2013-09-27T17:32:55Z</time>
      </trkpt>
      <trkpt lat="47.19785" lon="-1.6417">
        <ele>4.6</ele>
        <time>2013-09-27T17:32:58Z</time>
      </trkpt>
      <trkpt lat="47.19793" lon="-1.64183">
        <ele>4.1</ele>
        <time>2013-09-27T17:33:01Z</time>
      </trkpt>
      <trkpt lat="47.198" lon="-1.64198">
        <ele>3.8</ele>
        <time>2013-09-27T17:33:04Z</time>
      </trkpt>
      <trkpt lat="47.19807" lon="-1.64211">
        <ele>3.7</ele>
        <time>2013-09-27T17:33:07Z</time>
      </trkpt>
      <trkpt lat="47.19813" lon="-1.64224">
        <ele>3.6</ele>
        <time>2013-09-27T17:33:10Z</time>
      </trkpt>
      <trkpt lat="47.19821" lon="-1.64239">
        <ele>3.6</ele>
        <time>2013-09-27T17:33:13Z</time>
      </trkpt>
      <trkpt lat="47.19828" lon="-1.64252">
        <ele>3.8</ele>
        <time>2013-09-27T17:33:16Z</time>
      </trkpt>
      <trkpt lat="47.19836" lon="-1.64268">
        <ele>4.2</ele>
        <time>2013-09-27T17:33:19Z</time>
      </trkpt>
      <trkpt lat="47.19843" lon="-1.64283">
        <ele>4.2</ele>
        <time>2013-09-27T17:33:22Z</time>
      </trkpt>
      <trkpt lat="47.19849" lon="-1.64297">
        <ele>4</ele>
        <time>2013-09-27T17:33:25Z</time>
      </trkpt>
      <trkpt lat="47.19856" lon="-1.64312">
        <ele>4.7</ele>
        <time>2013-09-27T17:33:28Z</time>
      </trkpt>
      <trkpt lat="47.19859" lon="-1.64325">
        <ele>4.7</ele>
        <time>2013-09-27T17:33:31Z</time>
      </trkpt>
      <trkpt lat="47.1986" lon="-1.64339">
        <ele>5.6</ele>
        <time>2013-09-27T17:33:33Z</time>
      </trkpt>
      <trkpt lat="47.19859" lon="-1.64352">
        <ele>7.7</ele>
        <time>2013-09-27T17:33:35Z</time>
      </trkpt>
      <trkpt lat="47.19857" lon="-1.64367">
        <ele>9.1</ele>
        <time>2013-09-27T17:33:37Z</time>
      </trkpt>
      <trkpt lat="47.19854" lon="-1.64385">
        <ele>10.2</ele>
        <time>2013-09-27T17:33:40Z</time>
      </trkpt>
      <trkpt lat="47.19853" lon="-1.64402">
        <ele>11.3</ele>
        <time>2013-09-27T17:33:43Z</time>
      </trkpt>
      <trkpt lat="47.19852" lon="-1.64415">
        <ele>11.6</ele>
        <time>2013-09-27T17:33:45Z</time>
      </trkpt>
      <trkpt lat="47.19851" lon="-1.64433">
        <ele>11.5</ele>
        <time>2013-09-27T17:33:48Z</time>
      </trkpt>
      <trkpt lat="47.19849" lon="-1.64447">
        <ele>11.4</ele>
        <time>2013-09-27T17:33:51Z</time>
      </trkpt>
      <trkpt lat="47.19846" lon="-1.64461">
        <ele>11.5</ele>
        <time>2013-09-27T17:33:55Z</time>
      </trkpt>
      <trkpt lat="47.19841" lon="-1.64474">
        <ele>11.6</ele>
        <time>2013-09-27T17:34:00Z</time>
      </trkpt>
      <trkpt lat="47.19838" lon="-1.64488">
        <ele>11.4</ele>
        <time>2013-09-27T17:34:06Z</time>
      </trkpt>
      <trkpt lat="47.19843" lon="-1.64502">
        <ele>11.3</ele>
        <time>2013-09-27T17:34:10Z</time>
      </trkpt>
      <trkpt lat="47.19854" lon="-1.64507">
        <ele>11.3</ele>
        <time>2013-09-27T17:34:15Z</time>
      </trkpt>
      <trkpt lat="47.19863" lon="-1.64504">
        <ele>11.6</ele>
        <time>2013-09-27T17:34:19Z</time>
      </trkpt>
      <trkpt lat="47.19869" lon="-1.64491">
        <ele>11.9</ele>
        <time>2013-09-27T17:34:24Z</time>
      </trkpt>
      <trkpt lat="47.1987" lon="-1.64477">
        <ele>12.2</ele>
        <time>2013-09-27T17:34:29Z</time>
      </trkpt>
      <trkpt lat="47.19865" lon="-1.64464">
        <ele>12.2</ele>
        <time>2013-09-27T17:34:33Z</time>
      </trkpt>
      <trkpt lat="47.19856" lon="-1.64456">
        <ele>12</ele>
        <time>2013-09-27T17:34:37Z</time>
      </trkpt>
      <trkpt lat="47.19846" lon="-1.64458">
        <ele>11.8</ele>
        <time>2013-09-27T17:34:40Z</time>
      </trkpt>
      <trkpt lat="47.19838" lon="-1.64465">
        <ele>11.7</ele>
        <time>2013-09-27T17:34:43Z</time>
      </trkpt>
      <trkpt lat="47.19834" lon="-1.64482">
        <ele>11.6</ele>
        <time>2013-09-27T17:34:46Z</time>
      </trkpt>
      <trkpt lat="47.19839" lon="-1.64495">
        <ele>11.8</ele>
        <time>2013-09-27T17:34:49Z</time>
      </trkpt>
      <trkpt lat="47.19849" lon="-1.64499">
        <ele>12</ele>
        <time>2013-09-27T17:34:54Z</time>
      </trkpt>
      <trkpt lat="47.19855" lon="-1.64488">
        <ele>12.1</ele>
        <time>2013-09-27T17:35:00Z</time>
      </trkpt>
      <trkpt lat="47.19858" lon="-1.64475">
        <ele>13.1</ele>
        <time>2013-09-27T17:38:38Z</time>
      </trkpt>
      <trkpt lat="47.19858" lon="-1.64461">
        <ele>12.7</ele>
        <time>2013-09-27T17:41:32Z</time>
      </trkpt>
      <trkpt lat="47.19868" lon="-1.64456">
        <ele>12.7</ele>
        <time>2013-09-27T17:42:00Z</time>
      </trkpt>
      <trkpt lat="47.19872" lon="-1.64442">
        <ele>12.8</ele>
        <time>2013-09-27T17:42:07Z</time>
      </trkpt>
      <trkpt lat="47.1987" lon="-1.64428">
        <ele>12.7</ele>
        <time>2013-09-27T17:42:11Z</time>
      </trkpt>
      <trkpt lat="47.19868" lon="-1.64413">
        <ele>12.7</ele>
        <time>2013-09-27T17:42:15Z</time>
      </trkpt>
      <trkpt lat="47.19868" lon="-1.64397">
        <ele>12.5</ele>
        <time>2013-09-27T17:42:20Z</time>
      </trkpt>
      <trkpt lat="47.1987" lon="-1.64381">
        <ele>12.3</ele>
        <time>2013-09-27T17:42:25Z</time>
      </trkpt>
      <trkpt lat="47.19879" lon="-1.64373">
        <ele>12</ele>
        <time>2013-09-27T17:42:30Z</time>
      </trkpt>
      <trkpt lat="47.1989" lon="-1.6438">
        <ele>11.7</ele>
        <time>2013-09-27T17:42:34Z</time>
      </trkpt>
      <trkpt lat="47.199" lon="-1.64381">
        <ele>11.6</ele>
        <time>2013-09-27T17:42:37Z</time>
      </trkpt>
      <trkpt lat="47.19908" lon="-1.64372">
        <ele>11.6</ele>
        <time>2013-09-27T17:42:39Z</time>
      </trkpt>
      <trkpt lat="47.19915" lon="-1.64359">
        <ele>11.7</ele>
        <time>2013-09-27T17:42:41Z</time>
      </trkpt>
      <trkpt lat="47.19919" lon="-1.64344">
        <ele>11.7</ele>
        <time>2013-09-27T17:42:43Z</time>
      </trkpt>
      <trkpt lat="47.19921" lon="-1.64331">
        <ele>11.7</ele>
        <time>2013-09-27T17:42:45Z</time>
      </trkpt>
      <trkpt lat="47.19922" lon="-1.64315">
        <ele>11.3</ele>
        <time>2013-09-27T17:42:48Z</time>
      </trkpt>
      <trkpt lat="47.19924" lon="-1.643">
        <ele>10.1</ele>
        <time>2013-09-27T17:42:51Z</time>
      </trkpt>
      <trkpt lat="47.19929" lon="-1.64284">
        <ele>9.1</ele>
        <time>2013-09-27T17:42:54Z</time>
      </trkpt>
      <trkpt lat="47.19937" lon="-1.6427">
        <ele>9.3</ele>
        <time>2013-09-27T17:42:57Z</time>
      </trkpt>
      <trkpt lat="47.19945" lon="-1.64255">
        <ele>9.5</ele>
        <time>2013-09-27T17:43:00Z</time>
      </trkpt>
      <trkpt lat="47.19955" lon="-1.64242">
        <ele>9.7</ele>
        <time>2013-09-27T17:43:03Z</time>
      </trkpt>
      <trkpt lat="47.19963" lon="-1.64233">
        <ele>10</ele>
        <time>2013-09-27T17:43:05Z</time>
      </trkpt>
      <trkpt lat="47.19974" lon="-1.64223">
        <ele>10.7</ele>
        <time>2013-09-27T17:43:08Z</time>
      </trkpt>
      <trkpt lat="47.19986" lon="-1.64214">
        <ele>10.3</ele>
        <time>2013-09-27T17:43:11Z</time>
      </trkpt>
      <trkpt lat="47.19999" lon="-1.6421">
        <ele>9.3</ele>
        <time>2013-09-27T17:43:14Z</time>
      </trkpt>
      <trkpt lat="47.20009" lon="-1.64214">
        <ele>8</ele>
        <time>2013-09-27T17:43:16Z</time>
      </trkpt>
      <trkpt lat="47.20018" lon="-1.64222">
        <ele>6.7</ele>
        <time>2013-09-27T17:43:18Z</time>
      </trkpt>
      <trkpt lat="47.20028" lon="-1.64231">
        <ele>5.6</ele>
        <time>2013-09-27T17:43:20Z</time>
      </trkpt>
      <trkpt lat="47.20037" lon="-1.64242">
        <ele>5.3</ele>
        <time>2013-09-27T17:43:23Z</time>
      </trkpt>
      <trkpt lat="47.20043" lon="-1.64254">
        <ele>5</ele>
        <time>2013-09-27T17:43:26Z</time>
      </trkpt>
      <trkpt lat="47.20047" lon="-1.64268">
        <ele>4.8</ele>
        <time>2013-09-27T17:43:28Z</time>
      </trkpt>
      <trkpt lat="47.20051" lon="-1.64284">
        <ele>4.6</ele>
        <time>2013-09-27T17:43:30Z</time>
      </trkpt>
      <trkpt lat="47.20054" lon="-1.64299">
        <ele>4.4</ele>
        <time>2013-09-27T17:43:32Z</time>
      </trkpt>
      <trkpt lat="47.20058" lon="-1.64315">
        <ele>4</ele>
        <time>2013-09-27T17:43:34Z</time>
      </trkpt>
      <trkpt lat="47.20061" lon="-1.64331">
        <ele>4.1</ele>
        <time>2013-09-27T17:43:36Z</time>
      </trkpt>
      <trkpt lat="47.20063" lon="-1.64345">
        <ele>4.1</ele>
        <time>2013-09-27T17:43:38Z</time>
      </trkpt>
      <trkpt lat="47.20066" lon="-1.6436">
        <ele>3.6</ele>
        <time>2013-09-27T17:43:40Z</time>
      </trkpt>
      <trkpt lat="47.2007" lon="-1.64377">
        <ele>2.5</ele>
        <time>2013-09-27T17:43:42Z</time>
      </trkpt>
      <trkpt lat="47.20074" lon="-1.64395">
        <ele>1.9</ele>
        <time>2013-09-27T17:43:44Z</time>
      </trkpt>
      <trkpt lat="47.20078" lon="-1.64413">
        <ele>1.1</ele>
        <time>2013-09-27T17:43:46Z</time>
      </trkpt>
      <trkpt lat="47.20083" lon="-1.64433">
        <ele>0.5</ele>
        <time>2013-09-27T17:43:48Z</time>
      </trkpt>
      <trkpt lat="47.20088" lon="-1.64455">
        <ele>0.2</ele>
        <time>2013-09-27T17:43:50Z</time>
      </trkpt>
      <trkpt lat="47.20092" lon="-1.64478">
        <ele>-0.6</ele>
        <time>2013-09-27T17:43:52Z</time>
      </trkpt>
      <trkpt lat="47.20096" lon="-1.645">
        <ele>-0.8</ele>
        <time>2013-09-27T17:43:54Z</time>
      </trkpt>
      <trkpt lat="47.201" lon="-1.64522">
        <ele>-0.6</ele>
        <time>2013-09-27T17:43:56Z</time>
      </trkpt>
      <trkpt lat="47.20103" lon="-1.64542">
        <ele>7.2</ele>
        <time>2013-09-27T17:43:58Z</time>
      </trkpt>
      <trkpt lat="47.20107" lon="-1.64562">
        <ele>1.1</ele>
        <time>2013-09-27T17:44:00Z</time>
      </trkpt>
      <trkpt lat="47.2011" lon="-1.64579">
        <ele>1.8</ele>
        <time>2013-09-27T17:44:02Z</time>
      </trkpt>
      <trkpt lat="47.20113" lon="-1.64593">
        <ele>1.4</ele>
        <time>2013-09-27T17:44:04Z</time>
      </trkpt>
      <trkpt lat="47.20116" lon="-1.64607">
        <ele>1.1</ele>
        <time>2013-09-27T17:44:06Z</time>
      </trkpt>
      <trkpt lat="47.20119" lon="-1.6462">
        <ele>0.9</ele>
        <time>2013-09-27T17:44:08Z</time>
      </trkpt>
      <trkpt lat="47.20122" lon="-1.64633">
        <ele>1.2</ele>
        <time>2013-09-27T17:44:10Z</time>
      </trkpt>
      <trkpt lat="47.20126" lon="-1.64646">
        <ele>1.8</ele>
        <time>2013-09-27T17:44:13Z</time>
      </trkpt>
      <trkpt lat="47.2013" lon="-1.6466">
        <ele>1.9</ele>
        <time>2013-09-27T17:44:17Z</time>
      </trkpt>
      <trkpt lat="47.20142" lon="-1.64661">
        <ele>3.3</ele>
        <time>2013-09-27T17:44:22Z</time>
      </trkpt>
      <trkpt lat="47.20153" lon="-1.64657">
        <ele>3.6</ele>
        <time>2013-09-27T17:44:32Z</time>
      </trkpt>
      <trkpt lat="47.20161" lon="-1.64652">
        <ele>3.6</ele>
        <time>2013-09-27T17:44:36Z</time>
      </trkpt>
      <trkpt lat="47.20173" lon="-1.64643">
        <ele>3.7</ele>
        <time>2013-09-27T17:44:39Z</time>
      </trkpt>
      <trkpt lat="47.20183" lon="-1.64636">
        <ele>3.7</ele>
        <time>2013-09-27T17:44:42Z</time>
      </trkpt>
      <trkpt lat="47.20194" lon="-1.64627">
        <ele>3.7</ele>
        <time>2013-09-27T17:44:45Z</time>
      </trkpt>
      <trkpt lat="47.20205" lon="-1.64618">
        <ele>3.5</ele>
        <time>2013-09-27T17:44:48Z</time>
      </trkpt>
      <trkpt lat="47.20217" lon="-1.64609">
        <ele>3.6</ele>
        <time>2013-09-27T17:44:51Z</time>
      </trkpt>
      <trkpt lat="47.20224" lon="-1.64602">
        <ele>3.4</ele>
        <time>2013-09-27T17:44:53Z</time>
      </trkpt>
      <trkpt lat="47.20232" lon="-1.6459">
        <ele>3.3</ele>
        <time>2013-09-27T17:44:56Z</time>
      </trkpt>
      <trkpt lat="47.20237" lon="-1.64572">
        <ele>2.9</ele>
        <time>2013-09-27T17:44:59Z</time>
      </trkpt>
      <trkpt lat="47.2024" lon="-1.64557">
        <ele>2.6</ele>
        <time>2013-09-27T17:45:01Z</time>
      </trkpt>
      <trkpt lat="47.20244" lon="-1.64542">
        <ele>2.4</ele>
        <time>2013-09-27T17:45:03Z</time>
      </trkpt>
      <trkpt lat="47.20248" lon="-1.64527">
        <ele>2.3</ele>
        <time>2013-09-27T17:45:05Z</time>
      </trkpt>
      <trkpt lat="47.20252" lon="-1.64512">
        <ele>2.2</ele>
        <time>2013-09-27T17:45:07Z</time>
      </trkpt>
      <trkpt lat="47.20257" lon="-1.64496">
        <ele>2.3</ele>
        <time>2013-09-27T17:45:09Z</time>
      </trkpt>
      <trkpt lat="47.20261" lon="-1.64481">
        <ele>2.4</ele>
        <time>2013-09-27T17:45:11Z</time>
      </trkpt>
      <trkpt lat="47.20265" lon="-1.64466">
        <ele>2.6</ele>
        <time>2013-09-27T17:45:13Z</time>
      </trkpt>
      <trkpt lat="47.20268" lon="-1.64451">
        <ele>2.4</ele>
        <time>2013-09-27T17:45:15Z</time>
      </trkpt>
      <trkpt lat="47.20272" lon="-1.64435">
        <ele>2.2</ele>
        <time>2013-09-27T17:45:17Z</time>
      </trkpt>
      <trkpt lat="47.20277" lon="-1.64419">
        <ele>1.9</ele>
        <time>2013-09-27T17:45:19Z</time>
      </trkpt>
      <trkpt lat="47.20281" lon="-1.64403">
        <ele>2.5</ele>
        <time>2013-09-27T17:45:21Z</time>
      </trkpt>
      <trkpt lat="47.20285" lon="-1.6439">
        <ele>3.3</ele>
        <time>2013-09-27T17:45:23Z</time>
      </trkpt>
      <trkpt lat="47.20289" lon="-1.64378">
        <ele>3.2</ele>
        <time>2013-09-27T17:45:25Z</time>
      </trkpt>
      <trkpt lat="47.20293" lon="-1.64364">
        <ele>2.7</ele>
        <time>2013-09-27T17:45:27Z</time>
      </trkpt>
      <trkpt lat="47.20298" lon="-1.64347">
        <ele>2.2</ele>
        <time>2013-09-27T17:45:30Z</time>
      </trkpt>
      <trkpt lat="47.20302" lon="-1.64333">
        <ele>2.1</ele>
        <time>2013-09-27T17:45:33Z</time>
      </trkpt>
      <trkpt lat="47.20309" lon="-1.64315">
        <ele>1.9</ele>
        <time>2013-09-27T17:45:44Z</time>
      </trkpt>
      <trkpt lat="47.20313" lon="-1.64301">
        <ele>1.8</ele>
        <time>2013-09-27T17:46:29Z</time>
      </trkpt>
      <trkpt lat="47.20324" lon="-1.64295">
        <ele>1.8</ele>
        <time>2013-09-27T17:46:34Z</time>
      </trkpt>
      <trkpt lat="47.20335" lon="-1.6429">
        <ele>2.1</ele>
        <time>2013-09-27T17:46:38Z</time>
      </trkpt>
      <trkpt lat="47.20344" lon="-1.64286">
        <ele>2.4</ele>
        <time>2013-09-27T17:46:42Z</time>
      </trkpt>
      <trkpt lat="47.20353" lon="-1.64281">
        <ele>2.6</ele>
        <time>2013-09-27T17:46:46Z</time>
      </trkpt>
      <trkpt lat="47.20361" lon="-1.64274">
        <ele>2.8</ele>
        <time>2013-09-27T17:46:52Z</time>
      </trkpt>
      <trkpt lat="47.20372" lon="-1.64271">
        <ele>3.3</ele>
        <time>2013-09-27T17:46:58Z</time>
      </trkpt>
      <trkpt lat="47.20382" lon="-1.64272">
        <ele>4.4</ele>
        <time>2013-09-27T17:47:20Z</time>
      </trkpt>
      <trkpt lat="47.20391" lon="-1.64275">
        <ele>5</ele>
        <time>2013-09-27T17:47:31Z</time>
      </trkpt>
      <trkpt lat="47.204" lon="-1.6427">
        <ele>5.7</ele>
        <time>2013-09-27T17:47:37Z</time>
      </trkpt>
      <trkpt lat="47.20404" lon="-1.64257">
        <ele>6.4</ele>
        <time>2013-09-27T17:47:42Z</time>
      </trkpt>
      <trkpt lat="47.20405" lon="-1.64244">
        <ele>6.9</ele>
        <time>2013-09-27T17:47:47Z</time>
      </trkpt>
      <trkpt lat="47.20406" lon="-1.64229">
        <ele>7.5</ele>
        <time>2013-09-27T17:48:30Z</time>
      </trkpt>
      <trkpt lat="47.20405" lon="-1.64216">
        <ele>7.6</ele>
        <time>2013-09-27T17:48:33Z</time>
      </trkpt>
      <trkpt lat="47.20403" lon="-1.64199">
        <ele>7.6</ele>
        <time>2013-09-27T17:48:36Z</time>
      </trkpt>
      <trkpt lat="47.20402" lon="-1.64182">
        <ele>7.5</ele>
        <time>2013-09-27T17:48:39Z</time>
      </trkpt>
      <trkpt lat="47.20407" lon="-1.6417">
        <ele>7.1</ele>
        <time>2013-09-27T17:48:42Z</time>
      </trkpt>
      <trkpt lat="47.20415" lon="-1.6416">
        <ele>6.6</ele>
        <time>2013-09-27T17:48:48Z</time>
      </trkpt>
      <trkpt lat="47.20421" lon="-1.64148">
        <ele>6.1</ele>
        <time>2013-09-27T17:48:53Z</time>
      </trkpt>
      <trkpt lat="47.20427" lon="-1.64136">
        <ele>5.6</ele>
        <time>2013-09-27T17:48:58Z</time>
      </trkpt>
      <trkpt lat="47.20432" lon="-1.64123">
        <ele>5.1</ele>
        <time>2013-09-27T17:49:03Z</time>
      </trkpt>
      <trkpt lat="47.20437" lon="-1.64109">
        <ele>4.8</ele>
        <time>2013-09-27T17:49:07Z</time>
      </trkpt>
      <trkpt lat="47.20441" lon="-1.64095">
        <ele>4.6</ele>
        <time>2013-09-27T17:49:11Z</time>
      </trkpt>
      <trkpt lat="47.20444" lon="-1.64081">
        <ele>4.1</ele>
        <time>2013-09-27T17:49:17Z</time>
      </trkpt>
      <trkpt lat="47.2045" lon="-1.64068">
        <ele>4.1</ele>
        <time>2013-09-27T17:49:22Z</time>
      </trkpt>
      <trkpt lat="47.20455" lon="-1.64057">
        <ele>4.2</ele>
        <time>2013-09-27T17:49:26Z</time>
      </trkpt>
      <trkpt lat="47.20464" lon="-1.64047">
        <ele>4.3</ele>
        <time>2013-09-27T17:49:30Z</time>
      </trkpt>
      <trkpt lat="47.20471" lon="-1.64039">
        <ele>4.4</ele>
        <time>2013-09-27T17:49:33Z</time>
      </trkpt>
      <trkpt lat="47.20479" lon="-1.6403">
        <ele>4.2</ele>
        <time>2013-09-27T17:49:37Z</time>
      </trkpt>
      <trkpt lat="47.20469" lon="-1.64042">
        <ele>1.8</ele>
        <time>2013-09-27T17:49:54Z</time>
      </trkpt>
      <trkpt lat="47.20461" lon="-1.64055">
        <ele>0.4</ele>
        <time>2013-09-27T17:49:57Z</time>
      </trkpt>
      <trkpt lat="47.20454" lon="-1.6407">
        <ele>0.4</ele>
        <time>2013-09-27T17:50:00Z</time>
      </trkpt>
      <trkpt lat="47.20447" lon="-1.64084">
        <ele>0.5</ele>
        <time>2013-09-27T17:50:03Z</time>
      </trkpt>
      <trkpt lat="47.20443" lon="-1.64097">
        <ele>0.6</ele>
        <time>2013-09-27T17:50:06Z</time>
      </trkpt>
      <trkpt lat="47.20438" lon="-1.64112">
        <ele>0.6</ele>
        <time>2013-09-27T17:50:09Z</time>
      </trkpt>
      <trkpt lat="47.20433" lon="-1.64126">
        <ele>0.7</ele>
        <time>2013-09-27T17:50:12Z</time>
      </trkpt>
      <trkpt lat="47.20427" lon="-1.64141">
        <ele>0.9</ele>
        <time>2013-09-27T17:50:15Z</time>
      </trkpt>
      <trkpt lat="47.20419" lon="-1.64153">
        <ele>1</ele>
        <time>2013-09-27T17:50:18Z</time>
      </trkpt>
      <trkpt lat="47.20411" lon="-1.64159">
        <ele>1.2</ele>
        <time>2013-09-27T17:50:23Z</time>
      </trkpt>
      <trkpt lat="47.20401" lon="-1.64157">
        <ele>2.4</ele>
        <time>2013-09-27T17:50:37Z</time>
      </trkpt>
      <trkpt lat="47.2039" lon="-1.64162">
        <ele>2.6</ele>
        <time>2013-09-27T17:50:41Z</time>
      </trkpt>
      <trkpt lat="47.20381" lon="-1.64165">
        <ele>2.7</ele>
        <time>2013-09-27T17:50:44Z</time>
      </trkpt>
      <trkpt lat="47.20372" lon="-1.64169">
        <ele>2.9</ele>
        <time>2013-09-27T17:50:47Z</time>
      </trkpt>
      <trkpt lat="47.2036" lon="-1.64176">
        <ele>3.1</ele>
        <time>2013-09-27T17:50:51Z</time>
      </trkpt>
      <trkpt lat="47.20349" lon="-1.64181">
        <ele>3.1</ele>
        <time>2013-09-27T17:50:54Z</time>
      </trkpt>
      <trkpt lat="47.2034" lon="-1.64187">
        <ele>3.3</ele>
        <time>2013-09-27T17:50:57Z</time>
      </trkpt>
      <trkpt lat="47.20331" lon="-1.64193">
        <ele>3.5</ele>
        <time>2013-09-27T17:51:00Z</time>
      </trkpt>
      <trkpt lat="47.20323" lon="-1.64203">
        <ele>3.6</ele>
        <time>2013-09-27T17:51:03Z</time>
      </trkpt>
      <trkpt lat="47.20317" lon="-1.64218">
        <ele>3.6</ele>
        <time>2013-09-27T17:51:06Z</time>
      </trkpt>
      <trkpt lat="47.20314" lon="-1.64233">
        <ele>3.7</ele>
        <time>2013-09-27T17:51:09Z</time>
      </trkpt>
      <trkpt lat="47.20313" lon="-1.64246">
        <ele>3.7</ele>
        <time>2013-09-27T17:51:12Z</time>
      </trkpt>
      <trkpt lat="47.20312" lon="-1.64262">
        <ele>3.7</ele>
        <time>2013-09-27T17:51:15Z</time>
      </trkpt>
      <trkpt lat="47.2031" lon="-1.64282">
        <ele>3.9</ele>
        <time>2013-09-27T17:51:18Z</time>
      </trkpt>
      <trkpt lat="47.20315" lon="-1.643">
        <ele>3.9</ele>
        <time>2013-09-27T17:51:21Z</time>
      </trkpt>
      <trkpt lat="47.20324" lon="-1.643">
        <ele>3.9</ele>
        <time>2013-09-27T17:51:23Z</time>
      </trkpt>
      <trkpt lat="47.20333" lon="-1.64295">
        <ele>4.4</ele>
        <time>2013-09-27T17:51:25Z</time>
      </trkpt>
      <trkpt lat="47.20342" lon="-1.64288">
        <ele>4.5</ele>
        <time>2013-09-27T17:51:27Z</time>
      </trkpt>
      <trkpt lat="47.20353" lon="-1.64279">
        <ele>4</ele>
        <time>2013-09-27T17:51:30Z</time>
      </trkpt>
      <trkpt lat="47.20361" lon="-1.64272">
        <ele>4</ele>
        <time>2013-09-27T17:51:33Z</time>
      </trkpt>
      <trkpt lat="47.2037" lon="-1.6427">
        <ele>4.1</ele>
        <time>2013-09-27T17:51:37Z</time>
      </trkpt>
      <trkpt lat="47.20379" lon="-1.64271">
        <ele>4.5</ele>
        <time>2013-09-27T17:51:45Z</time>
      </trkpt>
      <trkpt lat="47.2039" lon="-1.64272">
        <ele>5.6</ele>
        <time>2013-09-27T17:52:02Z</time>
      </trkpt>
      <trkpt lat="47.20399" lon="-1.64273">
        <ele>6.2</ele>
        <time>2013-09-27T17:52:06Z</time>
      </trkpt>
      <trkpt lat="47.20409" lon="-1.64282">
        <ele>6.5</ele>
        <time>2013-09-27T17:52:10Z</time>
      </trkpt>
      <trkpt lat="47.20417" lon="-1.64295">
        <ele>6.7</ele>
        <time>2013-09-27T17:52:14Z</time>
      </trkpt>
      <trkpt lat="47.20422" lon="-1.64307">
        <ele>7.1</ele>
        <time>2013-09-27T17:52:18Z</time>
      </trkpt>
      <trkpt lat="47.20429" lon="-1.64318">
        <ele>7.4</ele>
        <time>2013-09-27T17:52:23Z</time>
      </trkpt>
      <trkpt lat="47.20435" lon="-1.64332">
        <ele>8</ele>
        <time>2013-09-27T17:52:29Z</time>
      </trkpt>
      <trkpt lat="47.2044" lon="-1.64345">
        <ele>8.7</ele>
        <time>2013-09-27T17:52:33Z</time>
      </trkpt>
      <trkpt lat="47.20446" lon="-1.64357">
        <ele>9.2</ele>
        <time>2013-09-27T17:52:37Z</time>
      </trkpt>
      <trkpt lat="47.20453" lon="-1.64369">
        <ele>9.4</ele>
        <time>2013-09-27T17:52:40Z</time>
      </trkpt>
      <trkpt lat="47.2046" lon="-1.6438">
        <ele>9.6</ele>
        <time>2013-09-27T17:52:43Z</time>
      </trkpt>
      <trkpt lat="47.20468" lon="-1.64391">
        <ele>9.7</ele>
        <time>2013-09-27T17:52:46Z</time>
      </trkpt>
      <trkpt lat="47.20478" lon="-1.64405">
        <ele>9.9</ele>
        <time>2013-09-27T17:52:49Z</time>
      </trkpt>
      <trkpt lat="47.20486" lon="-1.64416">
        <ele>10.1</ele>
        <time>2013-09-27T17:52:52Z</time>
      </trkpt>
      <trkpt lat="47.20494" lon="-1.64429">
        <ele>10.4</ele>
        <time>2013-09-27T17:52:55Z</time>
      </trkpt>
      <trkpt lat="47.20502" lon="-1.6444">
        <ele>10.5</ele>
        <time>2013-09-27T17:52:58Z</time>
      </trkpt>
      <trkpt lat="47.20511" lon="-1.64452">
        <ele>10.7</ele>
        <time>2013-09-27T17:53:01Z</time>
      </trkpt>
      <trkpt lat="47.2052" lon="-1.64465">
        <ele>10.7</ele>
        <time>2013-09-27T17:53:04Z</time>
      </trkpt>
      <trkpt lat="47.20528" lon="-1.64475">
        <ele>10.5</ele>
        <time>2013-09-27T17:53:07Z</time>
      </trkpt>
      <trkpt lat="47.20535" lon="-1.64484">
        <ele>10.4</ele>
        <time>2013-09-27T17:53:09Z</time>
      </trkpt>
      <trkpt lat="47.20543" lon="-1.64496">
        <ele>10.4</ele>
        <time>2013-09-27T17:53:12Z</time>
      </trkpt>
      <trkpt lat="47.20552" lon="-1.64509">
        <ele>10.4</ele>
        <time>2013-09-27T17:53:15Z</time>
      </trkpt>
      <trkpt lat="47.20561" lon="-1.6452">
        <ele>10.4</ele>
        <time>2013-09-27T17:53:18Z</time>
      </trkpt>
      <trkpt lat="47.20568" lon="-1.64529">
        <ele>10.5</ele>
        <time>2013-09-27T17:53:21Z</time>
      </trkpt>
      <trkpt lat="47.20578" lon="-1.64538">
        <ele>10.4</ele>
        <time>2013-09-27T17:53:24Z</time>
      </trkpt>
      <trkpt lat="47.20587" lon="-1.64546">
        <ele>10.4</ele>
        <time>2013-09-27T17:53:28Z</time>
      </trkpt>
      <trkpt lat="47.20596" lon="-1.64558">
        <ele>10.2</ele>
        <time>2013-09-27T17:53:32Z</time>
      </trkpt>
      <trkpt lat="47.20605" lon="-1.64574">
        <ele>10</ele>
        <time>2013-09-27T17:53:35Z</time>
      </trkpt>
      <trkpt lat="47.20613" lon="-1.64588">
        <ele>9.7</ele>
        <time>2013-09-27T17:53:37Z</time>
      </trkpt>
      <trkpt lat="47.20623" lon="-1.64604">
        <ele>9</ele>
        <time>2013-09-27T17:53:39Z</time>
      </trkpt>
      <trkpt lat="47.20629" lon="-1.64615">
        <ele>9.1</ele>
        <time>2013-09-27T17:53:41Z</time>
      </trkpt>
      <trkpt lat="47.20637" lon="-1.64626">
        <ele>8.9</ele>
        <time>2013-09-27T17:53:43Z</time>
      </trkpt>
      <trkpt lat="47.20644" lon="-1.64637">
        <ele>8.3</ele>
        <time>2013-09-27T17:53:45Z</time>
      </trkpt>
      <trkpt lat="47.2065" lon="-1.64649">
        <ele>7.6</ele>
        <time>2013-09-27T17:53:47Z</time>
      </trkpt>
      <trkpt lat="47.20656" lon="-1.64662">
        <ele>7</ele>
        <time>2013-09-27T17:53:49Z</time>
      </trkpt>
      <trkpt lat="47.20663" lon="-1.6467">
        <ele>6.4</ele>
        <time>2013-09-27T17:53:51Z</time>
      </trkpt>
      <trkpt lat="47.20674" lon="-1.64666">
        <ele>6.3</ele>
        <time>2013-09-27T17:53:54Z</time>
      </trkpt>
      <trkpt lat="47.20683" lon="-1.64658">
        <ele>6.4</ele>
        <time>2013-09-27T17:53:57Z</time>
      </trkpt>
      <trkpt lat="47.20694" lon="-1.64649">
        <ele>7</ele>
        <time>2013-09-27T17:54:01Z</time>
      </trkpt>
      <trkpt lat="47.20705" lon="-1.64641">
        <ele>8</ele>
        <time>2013-09-27T17:54:04Z</time>
      </trkpt>
      <trkpt lat="47.20715" lon="-1.64633">
        <ele>8.2</ele>
        <time>2013-09-27T17:54:07Z</time>
      </trkpt>
      <trkpt lat="47.20725" lon="-1.64632">
        <ele>8.2</ele>
        <time>2013-09-27T17:54:10Z</time>
      </trkpt>
      <trkpt lat="47.20733" lon="-1.64643">
        <ele>8.3</ele>
        <time>2013-09-27T17:54:14Z</time>
      </trkpt>
      <trkpt lat="47.20737" lon="-1.64655">
        <ele>8.2</ele>
        <time>2013-09-27T17:54:18Z</time>
      </trkpt>
      <trkpt lat="47.20739" lon="-1.6464">
        <ele>8.3</ele>
        <time>2013-09-27T17:56:20Z</time>
      </trkpt>
      <trkpt lat="47.2074" lon="-1.64624">
        <ele>8.3</ele>
        <time>2013-09-27T17:56:25Z</time>
      </trkpt>
      <trkpt lat="47.20746" lon="-1.6461">
        <ele>8.1</ele>
        <time>2013-09-27T17:56:28Z</time>
      </trkpt>
      <trkpt lat="47.20755" lon="-1.646">
        <ele>8</ele>
        <time>2013-09-27T17:56:31Z</time>
      </trkpt>
      <trkpt lat="47.20765" lon="-1.6459">
        <ele>7.2</ele>
        <time>2013-09-27T17:56:34Z</time>
      </trkpt>
      <trkpt lat="47.20775" lon="-1.64579">
        <ele>5.5</ele>
        <time>2013-09-27T17:56:37Z</time>
      </trkpt>
      <trkpt lat="47.2078" lon="-1.64567">
        <ele>5.1</ele>
        <time>2013-09-27T17:56:40Z</time>
      </trkpt>
      <trkpt lat="47.20784" lon="-1.64553">
        <ele>5.1</ele>
        <time>2013-09-27T17:56:43Z</time>
      </trkpt>
      <trkpt lat="47.2079" lon="-1.64542">
        <ele>5.3</ele>
        <time>2013-09-27T17:56:45Z</time>
      </trkpt>
      <trkpt lat="47.20795" lon="-1.64532">
        <ele>6</ele>
        <time>2013-09-27T17:56:47Z</time>
      </trkpt>
      <trkpt lat="47.208" lon="-1.64518">
        <ele>6.7</ele>
        <time>2013-09-27T17:56:49Z</time>
      </trkpt>
      <trkpt lat="47.20803" lon="-1.64504">
        <ele>6.9</ele>
        <time>2013-09-27T17:56:51Z</time>
      </trkpt>
      <trkpt lat="47.20807" lon="-1.64489">
        <ele>6.8</ele>
        <time>2013-09-27T17:56:53Z</time>
      </trkpt>
      <trkpt lat="47.20808" lon="-1.64476">
        <ele>7.2</ele>
        <time>2013-09-27T17:56:55Z</time>
      </trkpt>
      <trkpt lat="47.20809" lon="-1.64459">
        <ele>8.1</ele>
        <time>2013-09-27T17:56:58Z</time>
      </trkpt>
      <trkpt lat="47.2081" lon="-1.6444">
        <ele>8.8</ele>
        <time>2013-09-27T17:57:01Z</time>
      </trkpt>
      <trkpt lat="47.20808" lon="-1.64423">
        <ele>9</ele>
        <time>2013-09-27T17:57:04Z</time>
      </trkpt>
      <trkpt lat="47.20803" lon="-1.64411">
        <ele>9.2</ele>
        <time>2013-09-27T17:57:07Z</time>
      </trkpt>
      <trkpt lat="47.208" lon="-1.64396">
        <ele>9.4</ele>
        <time>2013-09-27T17:57:10Z</time>
      </trkpt>
      <trkpt lat="47.20798" lon="-1.64381">
        <ele>9.7</ele>
        <time>2013-09-27T17:57:13Z</time>
      </trkpt>
      <trkpt lat="47.20794" lon="-1.64367">
        <ele>10.1</ele>
        <time>2013-09-27T17:57:18Z</time>
      </trkpt>
      <trkpt lat="47.20798" lon="-1.64354">
        <ele>10.1</ele>
        <time>2013-09-27T17:57:21Z</time>
      </trkpt>
      <trkpt lat="47.20807" lon="-1.64347">
        <ele>10.1</ele>
        <time>2013-09-27T17:57:24Z</time>
      </trkpt>
      <trkpt lat="47.20817" lon="-1.64341">
        <ele>10.2</ele>
        <time>2013-09-27T17:57:28Z</time>
      </trkpt>
      <trkpt lat="47.20827" lon="-1.64335">
        <ele>10.6</ele>
        <time>2013-09-27T17:57:32Z</time>
      </trkpt>
      <trkpt lat="47.20836" lon="-1.64328">
        <ele>11</ele>
        <time>2013-09-27T17:57:36Z</time>
      </trkpt>
      <trkpt lat="47.20847" lon="-1.64325">
        <ele>11.6</ele>
        <time>2013-09-27T17:57:41Z</time>
      </trkpt>
      <trkpt lat="47.20857" lon="-1.64319">
        <ele>12.2</ele>
        <time>2013-09-27T17:57:46Z</time>
      </trkpt>
      <trkpt lat="47.20866" lon="-1.64313">
        <ele>12.6</ele>
        <time>2013-09-27T17:57:51Z</time>
      </trkpt>
      <trkpt lat="47.20874" lon="-1.64305">
        <ele>13.1</ele>
        <time>2013-09-27T17:57:56Z</time>
      </trkpt>
      <trkpt lat="47.20882" lon="-1.64297">
        <ele>13.4</ele>
        <time>2013-09-27T17:58:01Z</time>
      </trkpt>
      <trkpt lat="47.20891" lon="-1.64287">
        <ele>13.6</ele>
        <time>2013-09-27T17:58:06Z</time>
      </trkpt>
      <trkpt lat="47.209" lon="-1.64284">
        <ele>15.2</ele>
        <time>2013-09-27T17:58:59Z</time>
      </trkpt>
      <trkpt lat="47.20906" lon="-1.64272">
        <ele>14.8</ele>
        <time>2013-09-27T17:59:07Z</time>
      </trkpt>
      <trkpt lat="47.20915" lon="-1.64263">
        <ele>15.2</ele>
        <time>2013-09-27T17:59:12Z</time>
      </trkpt>
      <trkpt lat="47.20922" lon="-1.64254">
        <ele>15.5</ele>
        <time>2013-09-27T17:59:16Z</time>
      </trkpt>
      <trkpt lat="47.2093" lon="-1.64244">
        <ele>15.8</ele>
        <time>2013-09-27T17:59:19Z</time>
      </trkpt>
      <trkpt lat="47.20939" lon="-1.64232">
        <ele>16.3</ele>
        <time>2013-09-27T17:59:23Z</time>
      </trkpt>
      <trkpt lat="47.20947" lon="-1.64222">
        <ele>16.8</ele>
        <time>2013-09-27T17:59:27Z</time>
      </trkpt>
      <trkpt lat="47.20951" lon="-1.64206">
        <ele>17.4</ele>
        <time>2013-09-27T17:59:31Z</time>
      </trkpt>
      <trkpt lat="47.20946" lon="-1.64189">
        <ele>17.7</ele>
        <time>2013-09-27T17:59:34Z</time>
      </trkpt>
      <trkpt lat="47.20939" lon="-1.64175">
        <ele>18</ele>
        <time>2013-09-27T17:59:37Z</time>
      </trkpt>
      <trkpt lat="47.20932" lon="-1.64162">
        <ele>18.4</ele>
        <time>2013-09-27T17:59:41Z</time>
      </trkpt>
      <trkpt lat="47.20925" lon="-1.64149">
        <ele>18.6</ele>
        <time>2013-09-27T17:59:45Z</time>
      </trkpt>
      <trkpt lat="47.20919" lon="-1.64138">
        <ele>18.8</ele>
        <time>2013-09-27T17:59:48Z</time>
      </trkpt>
      <trkpt lat="47.20912" lon="-1.64124">
        <ele>19.1</ele>
        <time>2013-09-27T17:59:51Z</time>
      </trkpt>
      <trkpt lat="47.20906" lon="-1.64111">
        <ele>19.4</ele>
        <time>2013-09-27T17:59:54Z</time>
      </trkpt>
      <trkpt lat="47.20899" lon="-1.64096">
        <ele>19.9</ele>
        <time>2013-09-27T17:59:57Z</time>
      </trkpt>
      <trkpt lat="47.20896" lon="-1.64083">
        <ele>20.3</ele>
        <time>2013-09-27T18:00:00Z</time>
      </trkpt>
      <trkpt lat="47.20901" lon="-1.6407">
        <ele>20.7</ele>
        <time>2013-09-27T18:00:03Z</time>
      </trkpt>
      <trkpt lat="47.2091" lon="-1.64063">
        <ele>21</ele>
        <time>2013-09-27T18:00:07Z</time>
      </trkpt>
      <trkpt lat="47.20901" lon="-1.64067">
        <ele>22.6</ele>
        <time>2013-09-27T18:01:35Z</time>
      </trkpt>
      <trkpt lat="47.209" lon="-1.64082">
        <ele>21.8</ele>
        <time>2013-09-27T18:03:37Z</time>
      </trkpt>
      <trkpt lat="47.20891" lon="-1.64072">
        <ele>23.9</ele>
        <time>2013-09-27T18:04:00Z</time>
      </trkpt>
      <trkpt lat="47.20885" lon="-1.6406">
        <ele>24.1</ele>
        <time>2013-09-27T18:04:03Z</time>
      </trkpt>
      <trkpt lat="47.20879" lon="-1.64047">
        <ele>24.5</ele>
        <time>2013-09-27T18:04:06Z</time>
      </trkpt>
      <trkpt lat="47.20875" lon="-1.64035">
        <ele>25</ele>
        <time>2013-09-27T18:04:09Z</time>
      </trkpt>
      <trkpt lat="47.20882" lon="-1.64021">
        <ele>25</ele>
        <time>2013-09-27T18:04:13Z</time>
      </trkpt>
      <trkpt lat="47.2089" lon="-1.64011">
        <ele>24.9</ele>
        <time>2013-09-27T18:04:17Z</time>
      </trkpt>
      <trkpt lat="47.20897" lon="-1.64001">
        <ele>24.7</ele>
        <time>2013-09-27T18:04:21Z</time>
      </trkpt>
      <trkpt lat="47.20891" lon="-1.64013">
        <ele>24</ele>
        <time>2013-09-27T18:04:33Z</time>
      </trkpt>
      <trkpt lat="47.20881" lon="-1.64021">
        <ele>24</ele>
        <time>2013-09-27T18:04:36Z</time>
      </trkpt>
      <trkpt lat="47.20873" lon="-1.64015">
        <ele>24</ele>
        <time>2013-09-27T18:04:40Z</time>
      </trkpt>
      <trkpt lat="47.20868" lon="-1.64002">
        <ele>23.9</ele>
        <time>2013-09-27T18:04:43Z</time>
      </trkpt>
      <trkpt lat="47.20867" lon="-1.63988">
        <ele>23.7</ele>
        <time>2013-09-27T18:04:46Z</time>
      </trkpt>
      <trkpt lat="47.20876" lon="-1.63975">
        <ele>23.4</ele>
        <time>2013-09-27T18:04:50Z</time>
      </trkpt>
      <trkpt lat="47.20884" lon="-1.63959">
        <ele>22.4</ele>
        <time>2013-09-27T18:04:53Z</time>
      </trkpt>
      <trkpt lat="47.2089" lon="-1.63947">
        <ele>20.9</ele>
        <time>2013-09-27T18:04:55Z</time>
      </trkpt>
      <trkpt lat="47.20894" lon="-1.63932">
        <ele>18.8</ele>
        <time>2013-09-27T18:04:58Z</time>
      </trkpt>
      <trkpt lat="47.20889" lon="-1.6392">
        <ele>15.7</ele>
        <time>2013-09-27T18:05:00Z</time>
      </trkpt>
      <trkpt lat="47.20886" lon="-1.63907">
        <ele>14.3</ele>
        <time>2013-09-27T18:05:02Z</time>
      </trkpt>
      <trkpt lat="47.20892" lon="-1.63895">
        <ele>14.1</ele>
        <time>2013-09-27T18:05:05Z</time>
      </trkpt>
      <trkpt lat="47.20902" lon="-1.63893">
        <ele>13.9</ele>
        <time>2013-09-27T18:05:08Z</time>
      </trkpt>
      <trkpt lat="47.20912" lon="-1.63907">
        <ele>12.4</ele>
        <time>2013-09-27T18:05:11Z</time>
      </trkpt>
      <trkpt lat="47.20919" lon="-1.63917">
        <ele>11.4</ele>
        <time>2013-09-27T18:05:13Z</time>
      </trkpt>
      <trkpt lat="47.20927" lon="-1.6393">
        <ele>11</ele>
        <time>2013-09-27T18:05:16Z</time>
      </trkpt>
      <trkpt lat="47.20935" lon="-1.63944">
        <ele>11</ele>
        <time>2013-09-27T18:05:19Z</time>
      </trkpt>
      <trkpt lat="47.20943" lon="-1.63956">
        <ele>11</ele>
        <time>2013-09-27T18:05:22Z</time>
      </trkpt>
      <trkpt lat="47.20952" lon="-1.63963">
        <ele>11.1</ele>
        <time>2013-09-27T18:05:25Z</time>
      </trkpt>
      <trkpt lat="47.20962" lon="-1.63963">
        <ele>11.5</ele>
        <time>2013-09-27T18:05:29Z</time>
      </trkpt>
      <trkpt lat="47.20971" lon="-1.63958">
        <ele>12.6</ele>
        <time>2013-09-27T18:05:37Z</time>
      </trkpt>
      <trkpt lat="47.20981" lon="-1.63951">
        <ele>13.9</ele>
        <time>2013-09-27T18:05:43Z</time>
      </trkpt>
      <trkpt lat="47.2099" lon="-1.63942">
        <ele>14.8</ele>
        <time>2013-09-27T18:05:47Z</time>
      </trkpt>
      <trkpt lat="47.20997" lon="-1.63934">
        <ele>15.3</ele>
        <time>2013-09-27T18:05:50Z</time>
      </trkpt>
      <trkpt lat="47.21005" lon="-1.63924">
        <ele>16.2</ele>
        <time>2013-09-27T18:05:54Z</time>
      </trkpt>
      <trkpt lat="47.21016" lon="-1.63916">
        <ele>16.8</ele>
        <time>2013-09-27T18:05:58Z</time>
      </trkpt>
      <trkpt lat="47.21027" lon="-1.63911">
        <ele>17.4</ele>
        <time>2013-09-27T18:06:02Z</time>
      </trkpt>
      <trkpt lat="47.21037" lon="-1.63907">
        <ele>18.1</ele>
        <time>2013-09-27T18:06:06Z</time>
      </trkpt>
      <trkpt lat="47.21046" lon="-1.63901">
        <ele>18.8</ele>
        <time>2013-09-27T18:06:10Z</time>
      </trkpt>
      <trkpt lat="47.21056" lon="-1.63894">
        <ele>19.2</ele>
        <time>2013-09-27T18:06:14Z</time>
      </trkpt>
      <trkpt lat="47.21065" lon="-1.63885">
        <ele>19.7</ele>
        <time>2013-09-27T18:06:18Z</time>
      </trkpt>
      <trkpt lat="47.21072" lon="-1.63875">
        <ele>20.1</ele>
        <time>2013-09-27T18:06:21Z</time>
      </trkpt>
      <trkpt lat="47.21078" lon="-1.63865">
        <ele>20.6</ele>
        <time>2013-09-27T18:06:24Z</time>
      </trkpt>
      <trkpt lat="47.21085" lon="-1.63856">
        <ele>21</ele>
        <time>2013-09-27T18:06:27Z</time>
      </trkpt>
      <trkpt lat="47.21094" lon="-1.6385">
        <ele>21.3</ele>
        <time>2013-09-27T18:06:30Z</time>
      </trkpt>
      <trkpt lat="47.21103" lon="-1.63843">
        <ele>21.6</ele>
        <time>2013-09-27T18:06:33Z</time>
      </trkpt>
      <trkpt lat="47.21115" lon="-1.63835">
        <ele>21.8</ele>
        <time>2013-09-27T18:06:36Z</time>
      </trkpt>
      <trkpt lat="47.21128" lon="-1.63827">
        <ele>22</ele>
        <time>2013-09-27T18:06:39Z</time>
      </trkpt>
      <trkpt lat="47.21136" lon="-1.63822">
        <ele>22.2</ele>
        <time>2013-09-27T18:06:42Z</time>
      </trkpt>
      <trkpt lat="47.21145" lon="-1.63817">
        <ele>22.5</ele>
        <time>2013-09-27T18:06:48Z</time>
      </trkpt>
      <trkpt lat="47.21154" lon="-1.63811">
        <ele>22.8</ele>
        <time>2013-09-27T18:06:52Z</time>
      </trkpt>
      <trkpt lat="47.21163" lon="-1.63804">
        <ele>23</ele>
        <time>2013-09-27T18:06:55Z</time>
      </trkpt>
      <trkpt lat="47.21171" lon="-1.63798">
        <ele>23.7</ele>
        <time>2013-09-27T18:06:57Z</time>
      </trkpt>
      <trkpt lat="47.21183" lon="-1.6379">
        <ele>24.1</ele>
        <time>2013-09-27T18:07:00Z</time>
      </trkpt>
      <trkpt lat="47.21194" lon="-1.63779">
        <ele>24.6</ele>
        <time>2013-09-27T18:07:03Z</time>
      </trkpt>
      <trkpt lat="47.21205" lon="-1.63769">
        <ele>25.2</ele>
        <time>2013-09-27T18:07:05Z</time>
      </trkpt>
      <trkpt lat="47.21215" lon="-1.6376">
        <ele>25.4</ele>
        <time>2013-09-27T18:07:07Z</time>
      </trkpt>
      <trkpt lat="47.21224" lon="-1.63751">
        <ele>25.4</ele>
        <time>2013-09-27T18:07:10Z</time>
      </trkpt>
      <trkpt lat="47.21225" lon="-1.63767">
        <ele>25.5</ele>
        <time>2013-09-27T18:07:17Z</time>
      </trkpt>
      <trkpt lat="47.21227" lon="-1.63782">
        <ele>25.6</ele>
        <time>2013-09-27T18:07:21Z</time>
      </trkpt>
      <trkpt lat="47.21229" lon="-1.63797">
        <ele>25.6</ele>
        <time>2013-09-27T18:07:25Z</time>
      </trkpt>
      <trkpt lat="47.21232" lon="-1.63812">
        <ele>25.5</ele>
        <time>2013-09-27T18:07:30Z</time>
      </trkpt>
      <trkpt lat="47.21236" lon="-1.63826">
        <ele>25.4</ele>
        <time>2013-09-27T18:07:35Z</time>
      </trkpt>
      <trkpt lat="47.21242" lon="-1.63838">
        <ele>25.1</ele>
        <time>2013-09-27T18:07:40Z</time>
      </trkpt>
      <trkpt lat="47.21246" lon="-1.63852">
        <ele>25.1</ele>
        <time>2013-09-27T18:07:44Z</time>
      </trkpt>
      <trkpt lat="47.21251" lon="-1.63866">
        <ele>25.4</ele>
        <time>2013-09-27T18:07:49Z</time>
      </trkpt>
      <trkpt lat="47.21255" lon="-1.63878">
        <ele>25.7</ele>
        <time>2013-09-27T18:07:53Z</time>
      </trkpt>
      <trkpt lat="47.21264" lon="-1.63884">
        <ele>26.2</ele>
        <time>2013-09-27T18:07:58Z</time>
      </trkpt>
      <trkpt lat="47.21271" lon="-1.63894">
        <ele>26.5</ele>
        <time>2013-09-27T18:08:02Z</time>
      </trkpt>
      <trkpt lat="47.21282" lon="-1.63897">
        <ele>26.8</ele>
        <time>2013-09-27T18:08:07Z</time>
      </trkpt>
      <trkpt lat="47.2129" lon="-1.63887">
        <ele>27</ele>
        <time>2013-09-27T18:08:10Z</time>
      </trkpt>
      <trkpt lat="47.213" lon="-1.63876">
        <ele>27.3</ele>
        <time>2013-09-27T18:08:14Z</time>
      </trkpt>
      <trkpt lat="47.21307" lon="-1.63868">
        <ele>27.5</ele>
        <time>2013-09-27T18:08:17Z</time>
      </trkpt>
      <trkpt lat="47.21317" lon="-1.63858">
        <ele>27.7</ele>
        <time>2013-09-27T18:08:20Z</time>
      </trkpt>
      <trkpt lat="47.2133" lon="-1.63848">
        <ele>29.6</ele>
        <time>2013-09-27T18:08:23Z</time>
      </trkpt>
      <trkpt lat="47.21338" lon="-1.63837">
        <ele>30.2</ele>
        <time>2013-09-27T18:08:26Z</time>
      </trkpt>
      <trkpt lat="47.21347" lon="-1.63828">
        <ele>30.1</ele>
        <time>2013-09-27T18:08:29Z</time>
      </trkpt>
      <trkpt lat="47.21355" lon="-1.63821">
        <ele>28.6</ele>
        <time>2013-09-27T18:08:31Z</time>
      </trkpt>
      <trkpt lat="47.21362" lon="-1.6381">
        <ele>27.7</ele>
        <time>2013-09-27T18:08:33Z</time>
      </trkpt>
      <trkpt lat="47.21365" lon="-1.63795">
        <ele>27.1</ele>
        <time>2013-09-27T18:08:36Z</time>
      </trkpt>
      <trkpt lat="47.21361" lon="-1.63783">
        <ele>27</ele>
        <time>2013-09-27T18:08:39Z</time>
      </trkpt>
      <trkpt lat="47.21356" lon="-1.63769">
        <ele>27</ele>
        <time>2013-09-27T18:08:41Z</time>
      </trkpt>
      <trkpt lat="47.21353" lon="-1.63754">
        <ele>27.4</ele>
        <time>2013-09-27T18:08:43Z</time>
      </trkpt>
      <trkpt lat="47.2135" lon="-1.6374">
        <ele>28.3</ele>
        <time>2013-09-27T18:08:45Z</time>
      </trkpt>
      <trkpt lat="47.21345" lon="-1.63725">
        <ele>28.5</ele>
        <time>2013-09-27T18:08:48Z</time>
      </trkpt>
      <trkpt lat="47.2134" lon="-1.6371">
        <ele>28.8</ele>
        <time>2013-09-27T18:08:52Z</time>
      </trkpt>
      <trkpt lat="47.21336" lon="-1.63696">
        <ele>29.1</ele>
        <time>2013-09-27T18:08:57Z</time>
      </trkpt>
      <trkpt lat="47.21333" lon="-1.63683">
        <ele>29</ele>
        <time>2013-09-27T18:09:00Z</time>
      </trkpt>
      <trkpt lat="47.21327" lon="-1.6367">
        <ele>28.6</ele>
        <time>2013-09-27T18:09:03Z</time>
      </trkpt>
      <trkpt lat="47.21319" lon="-1.63659">
        <ele>28.2</ele>
        <time>2013-09-27T18:09:06Z</time>
      </trkpt>
      <trkpt lat="47.2131" lon="-1.63645">
        <ele>26.7</ele>
        <time>2013-09-27T18:09:10Z</time>
      </trkpt>
      <trkpt lat="47.21301" lon="-1.63632">
        <ele>25.5</ele>
        <time>2013-09-27T18:09:13Z</time>
      </trkpt>
      <trkpt lat="47.21299" lon="-1.63618">
        <ele>25.7</ele>
        <time>2013-09-27T18:09:15Z</time>
      </trkpt>
      <trkpt lat="47.21298" lon="-1.63605">
        <ele>25.8</ele>
        <time>2013-09-27T18:09:17Z</time>
      </trkpt>
      <trkpt lat="47.21298" lon="-1.63589">
        <ele>26</ele>
        <time>2013-09-27T18:09:20Z</time>
      </trkpt>
      <trkpt lat="47.21298" lon="-1.63574">
        <ele>26.2</ele>
        <time>2013-09-27T18:09:23Z</time>
      </trkpt>
      <trkpt lat="47.21296" lon="-1.63557">
        <ele>26.4</ele>
        <time>2013-09-27T18:09:26Z</time>
      </trkpt>
      <trkpt lat="47.21296" lon="-1.6354">
        <ele>28.1</ele>
        <time>2013-09-27T18:09:29Z</time>
      </trkpt>
      <trkpt lat="47.21299" lon="-1.63523">
        <ele>29.1</ele>
        <time>2013-09-27T18:09:32Z</time>
      </trkpt>
      <trkpt lat="47.21303" lon="-1.63508">
        <ele>29.2</ele>
        <time>2013-09-27T18:09:35Z</time>
      </trkpt>
      <trkpt lat="47.21302" lon="-1.63493">
        <ele>29.4</ele>
        <time>2013-09-27T18:09:38Z</time>
      </trkpt>
      <trkpt lat="47.21294" lon="-1.63481">
        <ele>30.1</ele>
        <time>2013-09-27T18:09:41Z</time>
      </trkpt>
      <trkpt lat="47.21286" lon="-1.63466">
        <ele>31.3</ele>
        <time>2013-09-27T18:09:44Z</time>
      </trkpt>
      <trkpt lat="47.2128" lon="-1.63449">
        <ele>31</ele>
        <time>2013-09-27T18:09:47Z</time>
      </trkpt>
      <trkpt lat="47.21274" lon="-1.63433">
        <ele>30.8</ele>
        <time>2013-09-27T18:09:50Z</time>
      </trkpt>
      <trkpt lat="47.21268" lon="-1.6342">
        <ele>30.9</ele>
        <time>2013-09-27T18:09:53Z</time>
      </trkpt>
      <trkpt lat="47.21259" lon="-1.63408">
        <ele>30.9</ele>
        <time>2013-09-27T18:09:56Z</time>
      </trkpt>
      <trkpt lat="47.21249" lon="-1.63404">
        <ele>31</ele>
        <time>2013-09-27T18:09:59Z</time>
      </trkpt>
      <trkpt lat="47.21238" lon="-1.63405">
        <ele>31.1</ele>
        <time>2013-09-27T18:10:02Z</time>
      </trkpt>
      <trkpt lat="47.21226" lon="-1.63409">
        <ele>31.2</ele>
        <time>2013-09-27T18:10:05Z</time>
      </trkpt>
      <trkpt lat="47.21217" lon="-1.63409">
        <ele>31.4</ele>
        <time>2013-09-27T18:10:09Z</time>
      </trkpt>
      <trkpt lat="47.21208" lon="-1.634">
        <ele>31.4</ele>
        <time>2013-09-27T18:10:12Z</time>
      </trkpt>
      <trkpt lat="47.21199" lon="-1.63388">
        <ele>31.3</ele>
        <time>2013-09-27T18:10:15Z</time>
      </trkpt>
      <trkpt lat="47.2119" lon="-1.63376">
        <ele>30.9</ele>
        <time>2013-09-27T18:10:18Z</time>
      </trkpt>
      <trkpt lat="47.21187" lon="-1.6336">
        <ele>28.7</ele>
        <time>2013-09-27T18:10:20Z</time>
      </trkpt>
      <trkpt lat="47.21184" lon="-1.63344">
        <ele>27.8</ele>
        <time>2013-09-27T18:10:22Z</time>
      </trkpt>
      <trkpt lat="47.21185" lon="-1.6333">
        <ele>27.6</ele>
        <time>2013-09-27T18:10:25Z</time>
      </trkpt>
      <trkpt lat="47.21195" lon="-1.63325">
        <ele>26.7</ele>
        <time>2013-09-27T18:11:01Z</time>
      </trkpt>
      <trkpt lat="47.21205" lon="-1.63324">
        <ele>26.3</ele>
        <time>2013-09-27T18:11:07Z</time>
      </trkpt>
      <trkpt lat="47.21215" lon="-1.63325">
        <ele>26.2</ele>
        <time>2013-09-27T18:11:13Z</time>
      </trkpt>
      <trkpt lat="47.21225" lon="-1.63325">
        <ele>26.3</ele>
        <time>2013-09-27T18:11:19Z</time>
      </trkpt>
      <trkpt lat="47.21233" lon="-1.6333">
        <ele>26.6</ele>
        <time>2013-09-27T18:11:27Z</time>
      </trkpt>
      <trkpt lat="47.2124" lon="-1.63341">
        <ele>27.3</ele>
        <time>2013-09-27T18:11:34Z</time>
      </trkpt>
      <trkpt lat="47.21247" lon="-1.63354">
        <ele>27.8</ele>
        <time>2013-09-27T18:11:40Z</time>
      </trkpt>
      <trkpt lat="47.21252" lon="-1.63367">
        <ele>27.9</ele>
        <time>2013-09-27T18:11:45Z</time>
      </trkpt>
      <trkpt lat="47.21253" lon="-1.6338">
        <ele>28</ele>
        <time>2013-09-27T18:11:50Z</time>
      </trkpt>
      <trkpt lat="47.21256" lon="-1.63393">
        <ele>28.1</ele>
        <time>2013-09-27T18:11:54Z</time>
      </trkpt>
      <trkpt lat="47.21261" lon="-1.63407">
        <ele>28.4</ele>
        <time>2013-09-27T18:11:59Z</time>
      </trkpt>
      <trkpt lat="47.21267" lon="-1.6342">
        <ele>28.8</ele>
        <time>2013-09-27T18:12:04Z</time>
      </trkpt>
      <trkpt lat="47.21273" lon="-1.63432">
        <ele>29.2</ele>
        <time>2013-09-27T18:12:08Z</time>
      </trkpt>
      <trkpt lat="47.2128" lon="-1.63446">
        <ele>29.5</ele>
        <time>2013-09-27T18:12:12Z</time>
      </trkpt>
      <trkpt lat="47.21285" lon="-1.63459">
        <ele>29.7</ele>
        <time>2013-09-27T18:12:15Z</time>
      </trkpt>
      <trkpt lat="47.21288" lon="-1.63475">
        <ele>30.3</ele>
        <time>2013-09-27T18:12:19Z</time>
      </trkpt>
      <trkpt lat="47.21295" lon="-1.63486">
        <ele>30.7</ele>
        <time>2013-09-27T18:12:23Z</time>
      </trkpt>
      <trkpt lat="47.21303" lon="-1.63493">
        <ele>30.9</ele>
        <time>2013-09-27T18:12:26Z</time>
      </trkpt>
      <trkpt lat="47.21309" lon="-1.63504">
        <ele>31.1</ele>
        <time>2013-09-27T18:12:30Z</time>
      </trkpt>
      <trkpt lat="47.21309" lon="-1.6352">
        <ele>31.4</ele>
        <time>2013-09-27T18:12:34Z</time>
      </trkpt>
      <trkpt lat="47.21304" lon="-1.63537">
        <ele>32.6</ele>
        <time>2013-09-27T18:12:37Z</time>
      </trkpt>
      <trkpt lat="47.21303" lon="-1.63552">
        <ele>32.7</ele>
        <time>2013-09-27T18:12:40Z</time>
      </trkpt>
      <trkpt lat="47.21303" lon="-1.63568">
        <ele>32.8</ele>
        <time>2013-09-27T18:12:43Z</time>
      </trkpt>
      <trkpt lat="47.21303" lon="-1.63586">
        <ele>32.9</ele>
        <time>2013-09-27T18:12:46Z</time>
      </trkpt>
      <trkpt lat="47.21302" lon="-1.63603">
        <ele>33</ele>
        <time>2013-09-27T18:12:49Z</time>
      </trkpt>
      <trkpt lat="47.21305" lon="-1.63619">
        <ele>33.3</ele>
        <time>2013-09-27T18:12:52Z</time>
      </trkpt>
      <trkpt lat="47.21308" lon="-1.63636">
        <ele>36</ele>
        <time>2013-09-27T18:12:55Z</time>
      </trkpt>
      <trkpt lat="47.21315" lon="-1.63652">
        <ele>36.5</ele>
        <time>2013-09-27T18:12:58Z</time>
      </trkpt>
      <trkpt lat="47.21323" lon="-1.63664">
        <ele>36.4</ele>
        <time>2013-09-27T18:13:01Z</time>
      </trkpt>
      <trkpt lat="47.21333" lon="-1.63667">
        <ele>36.1</ele>
        <time>2013-09-27T18:13:04Z</time>
      </trkpt>
      <trkpt lat="47.21343" lon="-1.63663">
        <ele>35.8</ele>
        <time>2013-09-27T18:13:07Z</time>
      </trkpt>
      <trkpt lat="47.21352" lon="-1.63657">
        <ele>35.5</ele>
        <time>2013-09-27T18:13:10Z</time>
      </trkpt>
      <trkpt lat="47.2136" lon="-1.63651">
        <ele>35.1</ele>
        <time>2013-09-27T18:13:13Z</time>
      </trkpt>
      <trkpt lat="47.2137" lon="-1.63646">
        <ele>34.9</ele>
        <time>2013-09-27T18:13:16Z</time>
      </trkpt>
      <trkpt lat="47.2138" lon="-1.63639">
        <ele>34.6</ele>
        <time>2013-09-27T18:13:37Z</time>
      </trkpt>
      <trkpt lat="47.21389" lon="-1.63636">
        <ele>34.3</ele>
        <time>2013-09-27T18:13:43Z</time>
      </trkpt>
      <trkpt lat="47.21387" lon="-1.63621">
        <ele>32.6</ele>
        <time>2013-09-27T18:14:16Z</time>
      </trkpt>
      <trkpt lat="47.21385" lon="-1.63607">
        <ele>32</ele>
        <time>2013-09-27T18:14:19Z</time>
      </trkpt>
      <trkpt lat="47.2138" lon="-1.63593">
        <ele>31.5</ele>
        <time>2013-09-27T18:14:22Z</time>
      </trkpt>
      <trkpt lat="47.21387" lon="-1.63603">
        <ele>31</ele>
        <time>2013-09-27T18:14:33Z</time>
      </trkpt>
      <trkpt lat="47.21392" lon="-1.63616">
        <ele>31</ele>
        <time>2013-09-27T18:14:36Z</time>
      </trkpt>
      <trkpt lat="47.21397" lon="-1.63628">
        <ele>31.1</ele>
        <time>2013-09-27T18:14:39Z</time>
      </trkpt>
      <trkpt lat="47.21403" lon="-1.6364">
        <ele>31.1</ele>
        <time>2013-09-27T18:14:42Z</time>
      </trkpt>
      <trkpt lat="47.21409" lon="-1.63654">
        <ele>31.2</ele>
        <time>2013-09-27T18:14:45Z</time>
      </trkpt>
      <trkpt lat="47.21414" lon="-1.63666">
        <ele>31.5</ele>
        <time>2013-09-27T18:14:48Z</time>
      </trkpt>
      <trkpt lat="47.2142" lon="-1.63679">
        <ele>31.7</ele>
        <time>2013-09-27T18:14:51Z</time>
      </trkpt>
      <trkpt lat="47.21426" lon="-1.63693">
        <ele>32</ele>
        <time>2013-09-27T18:14:54Z</time>
      </trkpt>
      <trkpt lat="47.21433" lon="-1.63705">
        <ele>32.2</ele>
        <time>2013-09-27T18:14:57Z</time>
      </trkpt>
      <trkpt lat="47.21439" lon="-1.63718">
        <ele>32.4</ele>
        <time>2013-09-27T18:15:00Z</time>
      </trkpt>
      <trkpt lat="47.21446" lon="-1.63732">
        <ele>32.6</ele>
        <time>2013-09-27T18:15:03Z</time>
      </trkpt>
      <trkpt lat="47.21453" lon="-1.63745">
        <ele>32.8</ele>
        <time>2013-09-27T18:15:06Z</time>
      </trkpt>
      <trkpt lat="47.21459" lon="-1.63761">
        <ele>33.4</ele>
        <time>2013-09-27T18:15:09Z</time>
      </trkpt>
      <trkpt lat="47.21466" lon="-1.63776">
        <ele>31.7</ele>
        <time>2013-09-27T18:15:12Z</time>
      </trkpt>
      <trkpt lat="47.21472" lon="-1.63789">
        <ele>31.3</ele>
        <time>2013-09-27T18:15:15Z</time>
      </trkpt>
      <trkpt lat="47.21479" lon="-1.63803">
        <ele>32.5</ele>
        <time>2013-09-27T18:15:18Z</time>
      </trkpt>
      <trkpt lat="47.2149" lon="-1.63813">
        <ele>33.6</ele>
        <time>2013-09-27T18:15:21Z</time>
      </trkpt>
      <trkpt lat="47.215" lon="-1.63821">
        <ele>34.2</ele>
        <time>2013-09-27T18:15:24Z</time>
      </trkpt>
      <trkpt lat="47.21509" lon="-1.63817">
        <ele>34.1</ele>
        <time>2013-09-27T18:15:27Z</time>
      </trkpt>
      <trkpt lat="47.21515" lon="-1.63803">
        <ele>34.1</ele>
        <time>2013-09-27T18:15:30Z</time>
      </trkpt>
      <trkpt lat="47.2152" lon="-1.6379">
        <ele>34</ele>
        <time>2013-09-27T18:15:33Z</time>
      </trkpt>
      <trkpt lat="47.21527" lon="-1.63778">
        <ele>33.7</ele>
        <time>2013-09-27T18:15:36Z</time>
      </trkpt>
      <trkpt lat="47.21535" lon="-1.63766">
        <ele>32.8</ele>
        <time>2013-09-27T18:15:39Z</time>
      </trkpt>
      <trkpt lat="47.21546" lon="-1.63757">
        <ele>32.7</ele>
        <time>2013-09-27T18:15:42Z</time>
      </trkpt>
      <trkpt lat="47.21557" lon="-1.63752">
        <ele>32.6</ele>
        <time>2013-09-27T18:15:45Z</time>
      </trkpt>
      <trkpt lat="47.21568" lon="-1.63746">
        <ele>32.5</ele>
        <time>2013-09-27T18:15:48Z</time>
      </trkpt>
      <trkpt lat="47.21578" lon="-1.63737">
        <ele>31.9</ele>
        <time>2013-09-27T18:15:51Z</time>
      </trkpt>
      <trkpt lat="47.21587" lon="-1.63724">
        <ele>31.5</ele>
        <time>2013-09-27T18:15:54Z</time>
      </trkpt>
      <trkpt lat="47.21593" lon="-1.63706">
        <ele>31.5</ele>
        <time>2013-09-27T18:15:57Z</time>
      </trkpt>
      <trkpt lat="47.21597" lon="-1.63691">
        <ele>31.5</ele>
        <time>2013-09-27T18:16:00Z</time>
      </trkpt>
      <trkpt lat="47.21602" lon="-1.63677">
        <ele>31.5</ele>
        <time>2013-09-27T18:16:03Z</time>
      </trkpt>
      <trkpt lat="47.2161" lon="-1.63671">
        <ele>31.2</ele>
        <time>2013-09-27T18:16:06Z</time>
      </trkpt>
      <trkpt lat="47.2162" lon="-1.6367">
        <ele>31</ele>
        <time>2013-09-27T18:16:09Z</time>
      </trkpt>
      <trkpt lat="47.21629" lon="-1.63657">
        <ele>30.9</ele>
        <time>2013-09-27T18:16:12Z</time>
      </trkpt>
      <trkpt lat="47.21635" lon="-1.6364">
        <ele>32</ele>
        <time>2013-09-27T18:16:15Z</time>
      </trkpt>
      <trkpt lat="47.21642" lon="-1.63624">
        <ele>33.4</ele>
        <time>2013-09-27T18:16:18Z</time>
      </trkpt>
      <trkpt lat="47.21648" lon="-1.63608">
        <ele>33.9</ele>
        <time>2013-09-27T18:16:21Z</time>
      </trkpt>
      <trkpt lat="47.21653" lon="-1.63591">
        <ele>35</ele>
        <time>2013-09-27T18:16:24Z</time>
      </trkpt>
      <trkpt lat="47.21657" lon="-1.63573">
        <ele>35</ele>
        <time>2013-09-27T18:16:27Z</time>
      </trkpt>
      <trkpt lat="47.21657" lon="-1.6356">
        <ele>34.4</ele>
        <time>2013-09-27T18:16:29Z</time>
      </trkpt>
      <trkpt lat="47.21657" lon="-1.63546">
        <ele>33.9</ele>
        <time>2013-09-27T18:16:31Z</time>
      </trkpt>
      <trkpt lat="47.21657" lon="-1.6353">
        <ele>33.6</ele>
        <time>2013-09-27T18:16:33Z</time>
      </trkpt>
      <trkpt lat="47.21657" lon="-1.63514">
        <ele>33.6</ele>
        <time>2013-09-27T18:16:35Z</time>
      </trkpt>
      <trkpt lat="47.21657" lon="-1.63498">
        <ele>33.6</ele>
        <time>2013-09-27T18:16:37Z</time>
      </trkpt>
      <trkpt lat="47.21657" lon="-1.6348">
        <ele>33.4</ele>
        <time>2013-09-27T18:16:39Z</time>
      </trkpt>
      <trkpt lat="47.21657" lon="-1.63462">
        <ele>33.2</ele>
        <time>2013-09-27T18:16:41Z</time>
      </trkpt>
      <trkpt lat="47.21657" lon="-1.63445">
        <ele>32.2</ele>
        <time>2013-09-27T18:16:43Z</time>
      </trkpt>
      <trkpt lat="47.21657" lon="-1.63427">
        <ele>31.6</ele>
        <time>2013-09-27T18:16:45Z</time>
      </trkpt>
      <trkpt lat="47.21659" lon="-1.63409">
        <ele>31.3</ele>
        <time>2013-09-27T18:16:47Z</time>
      </trkpt>
      <trkpt lat="47.21662" lon="-1.63392">
        <ele>31.4</ele>
        <time>2013-09-27T18:16:49Z</time>
      </trkpt>
      <trkpt lat="47.21664" lon="-1.63376">
        <ele>31.4</ele>
        <time>2013-09-27T18:16:51Z</time>
      </trkpt>
      <trkpt lat="47.21666" lon="-1.6336">
        <ele>30.9</ele>
        <time>2013-09-27T18:16:53Z</time>
      </trkpt>
      <trkpt lat="47.2167" lon="-1.63342">
        <ele>30.7</ele>
        <time>2013-09-27T18:16:55Z</time>
      </trkpt>
      <trkpt lat="47.21672" lon="-1.63325">
        <ele>30.5</ele>
        <time>2013-09-27T18:16:57Z</time>
      </trkpt>
      <trkpt lat="47.21674" lon="-1.63307">
        <ele>30.4</ele>
        <time>2013-09-27T18:16:59Z</time>
      </trkpt>
      <trkpt lat="47.21674" lon="-1.63289">
        <ele>29.6</ele>
        <time>2013-09-27T18:17:01Z</time>
      </trkpt>
      <trkpt lat="47.21674" lon="-1.6327">
        <ele>30.1</ele>
        <time>2013-09-27T18:17:03Z</time>
      </trkpt>
      <trkpt lat="47.21673" lon="-1.63249">
        <ele>30.6</ele>
        <time>2013-09-27T18:17:05Z</time>
      </trkpt>
      <trkpt lat="47.21672" lon="-1.63229">
        <ele>31.3</ele>
        <time>2013-09-27T18:17:07Z</time>
      </trkpt>
      <trkpt lat="47.21672" lon="-1.63209">
        <ele>31.8</ele>
        <time>2013-09-27T18:17:09Z</time>
      </trkpt>
      <trkpt lat="47.21674" lon="-1.6319">
        <ele>31.5</ele>
        <time>2013-09-27T18:17:11Z</time>
      </trkpt>
      <trkpt lat="47.21685" lon="-1.63178">
        <ele>30.3</ele>
        <time>2013-09-27T18:17:13Z</time>
      </trkpt>
      <trkpt lat="47.217" lon="-1.63173">
        <ele>29.6</ele>
        <time>2013-09-27T18:17:15Z</time>
      </trkpt>
      <trkpt lat="47.21711" lon="-1.63169">
        <ele>29.6</ele>
        <time>2013-09-27T18:17:17Z</time>
      </trkpt>
      <trkpt lat="47.21722" lon="-1.63169">
        <ele>30.8</ele>
        <time>2013-09-27T18:17:19Z</time>
      </trkpt>
      <trkpt lat="47.21733" lon="-1.63169">
        <ele>31.7</ele>
        <time>2013-09-27T18:17:21Z</time>
      </trkpt>
      <trkpt lat="47.21744" lon="-1.6317">
        <ele>32.5</ele>
        <time>2013-09-27T18:17:23Z</time>
      </trkpt>
      <trkpt lat="47.21758" lon="-1.6317">
        <ele>32.9</ele>
        <time>2013-09-27T18:17:25Z</time>
      </trkpt>
      <trkpt lat="47.2177" lon="-1.63169">
        <ele>34.1</ele>
        <time>2013-09-27T18:17:27Z</time>
      </trkpt>
      <trkpt lat="47.21782" lon="-1.63167">
        <ele>34.6</ele>
        <time>2013-09-27T18:17:29Z</time>
      </trkpt>
      <trkpt lat="47.21793" lon="-1.63166">
        <ele>34.9</ele>
        <time>2013-09-27T18:17:31Z</time>
      </trkpt>
      <trkpt lat="47.21804" lon="-1.63165">
        <ele>35.4</ele>
        <time>2013-09-27T18:17:33Z</time>
      </trkpt>
      <trkpt lat="47.21816" lon="-1.63164">
        <ele>35.2</ele>
        <time>2013-09-27T18:17:35Z</time>
      </trkpt>
      <trkpt lat="47.21826" lon="-1.63163">
        <ele>35.1</ele>
        <time>2013-09-27T18:17:37Z</time>
      </trkpt>
      <trkpt lat="47.21837" lon="-1.63161">
        <ele>35.6</ele>
        <time>2013-09-27T18:17:39Z</time>
      </trkpt>
      <trkpt lat="47.21846" lon="-1.63158">
        <ele>36.3</ele>
        <time>2013-09-27T18:17:41Z</time>
      </trkpt>
      <trkpt lat="47.21854" lon="-1.63153">
        <ele>37</ele>
        <time>2013-09-27T18:17:43Z</time>
      </trkpt>
      <trkpt lat="47.21863" lon="-1.63148">
        <ele>37.5</ele>
        <time>2013-09-27T18:17:45Z</time>
      </trkpt>
      <trkpt lat="47.21875" lon="-1.63141">
        <ele>38.6</ele>
        <time>2013-09-27T18:17:48Z</time>
      </trkpt>
      <trkpt lat="47.21888" lon="-1.63133">
        <ele>39.9</ele>
        <time>2013-09-27T18:17:51Z</time>
      </trkpt>
      <trkpt lat="47.21897" lon="-1.63128">
        <ele>39.8</ele>
        <time>2013-09-27T18:17:53Z</time>
      </trkpt>
      <trkpt lat="47.21909" lon="-1.6312">
        <ele>39.8</ele>
        <time>2013-09-27T18:17:56Z</time>
      </trkpt>
      <trkpt lat="47.21918" lon="-1.63114">
        <ele>39.6</ele>
        <time>2013-09-27T18:17:58Z</time>
      </trkpt>
      <trkpt lat="47.2193" lon="-1.63107">
        <ele>39.8</ele>
        <time>2013-09-27T18:18:01Z</time>
      </trkpt>
      <trkpt lat="47.21941" lon="-1.63099">
        <ele>40.4</ele>
        <time>2013-09-27T18:18:04Z</time>
      </trkpt>
      <trkpt lat="47.21954" lon="-1.63091">
        <ele>41.5</ele>
        <time>2013-09-27T18:18:07Z</time>
      </trkpt>
      <trkpt lat="47.21965" lon="-1.63083">
        <ele>41.7</ele>
        <time>2013-09-27T18:18:10Z</time>
      </trkpt>
      <trkpt lat="47.21977" lon="-1.63074">
        <ele>41.3</ele>
        <time>2013-09-27T18:18:13Z</time>
      </trkpt>
      <trkpt lat="47.21987" lon="-1.63067">
        <ele>40.5</ele>
        <time>2013-09-27T18:18:16Z</time>
      </trkpt>
      <trkpt lat="47.21999" lon="-1.63058">
        <ele>40</ele>
        <time>2013-09-27T18:18:19Z</time>
      </trkpt>
      <trkpt lat="47.22007" lon="-1.63052">
        <ele>39.9</ele>
        <time>2013-09-27T18:18:21Z</time>
      </trkpt>
      <trkpt lat="47.22015" lon="-1.63045">
        <ele>39.8</ele>
        <time>2013-09-27T18:18:23Z</time>
      </trkpt>
      <trkpt lat="47.22023" lon="-1.63039">
        <ele>39.9</ele>
        <time>2013-09-27T18:18:25Z</time>
      </trkpt>
      <trkpt lat="47.22031" lon="-1.63033">
        <ele>40.2</ele>
        <time>2013-09-27T18:18:27Z</time>
      </trkpt>
      <trkpt lat="47.2204" lon="-1.63028">
        <ele>40.6</ele>
        <time>2013-09-27T18:18:29Z</time>
      </trkpt>
      <trkpt lat="47.22049" lon="-1.63022">
        <ele>40.2</ele>
        <time>2013-09-27T18:18:31Z</time>
      </trkpt>
      <trkpt lat="47.22058" lon="-1.63016">
        <ele>40.2</ele>
        <time>2013-09-27T18:18:33Z</time>
      </trkpt>
      <trkpt lat="47.22066" lon="-1.6301">
        <ele>40.5</ele>
        <time>2013-09-27T18:18:35Z</time>
      </trkpt>
      <trkpt lat="47.22074" lon="-1.63003">
        <ele>40.4</ele>
        <time>2013-09-27T18:18:37Z</time>
      </trkpt>
      <trkpt lat="47.22084" lon="-1.62995">
        <ele>40.2</ele>
        <time>2013-09-27T18:18:41Z</time>
      </trkpt>
      <trkpt lat="47.22085" lon="-1.62982">
        <ele>40.1</ele>
        <time>2013-09-27T18:18:44Z</time>
      </trkpt>
      <trkpt lat="47.22081" lon="-1.62964">
        <ele>39.5</ele>
        <time>2013-09-27T18:18:47Z</time>
      </trkpt>
      <trkpt lat="47.22078" lon="-1.62951">
        <ele>39</ele>
        <time>2013-09-27T18:18:49Z</time>
      </trkpt>
      <trkpt lat="47.22075" lon="-1.62938">
        <ele>38.7</ele>
        <time>2013-09-27T18:18:51Z</time>
      </trkpt>
      <trkpt lat="47.22073" lon="-1.62925">
        <ele>37.9</ele>
        <time>2013-09-27T18:18:53Z</time>
      </trkpt>
      <trkpt lat="47.22069" lon="-1.62908">
        <ele>36.8</ele>
        <time>2013-09-27T18:18:56Z</time>
      </trkpt>
      <trkpt lat="47.22064" lon="-1.6289">
        <ele>36.3</ele>
        <time>2013-09-27T18:18:59Z</time>
      </trkpt>
      <trkpt lat="47.2206" lon="-1.62876">
        <ele>36.2</ele>
        <time>2013-09-27T18:19:01Z</time>
      </trkpt>
      <trkpt lat="47.22056" lon="-1.62862">
        <ele>35.9</ele>
        <time>2013-09-27T18:19:03Z</time>
      </trkpt>
      <trkpt lat="47.22053" lon="-1.62846">
        <ele>35.7</ele>
        <time>2013-09-27T18:19:05Z</time>
      </trkpt>
      <trkpt lat="47.2205" lon="-1.62832">
        <ele>35.3</ele>
        <time>2013-09-27T18:19:07Z</time>
      </trkpt>
      <trkpt lat="47.22046" lon="-1.62817">
        <ele>34.8</ele>
        <time>2013-09-27T18:19:09Z</time>
      </trkpt>
      <trkpt lat="47.22042" lon="-1.62802">
        <ele>34.3</ele>
        <time>2013-09-27T18:19:11Z</time>
      </trkpt>
      <trkpt lat="47.22039" lon="-1.62786">
        <ele>33.5</ele>
        <time>2013-09-27T18:19:13Z</time>
      </trkpt>
      <trkpt lat="47.22034" lon="-1.62769">
        <ele>33.3</ele>
        <time>2013-09-27T18:19:15Z</time>
      </trkpt>
      <trkpt lat="47.22031" lon="-1.62755">
        <ele>33.3</ele>
        <time>2013-09-27T18:19:17Z</time>
      </trkpt>
      <trkpt lat="47.22027" lon="-1.6274">
        <ele>34.2</ele>
        <time>2013-09-27T18:19:19Z</time>
      </trkpt>
      <trkpt lat="47.22023" lon="-1.62724">
        <ele>35</ele>
        <time>2013-09-27T18:19:21Z</time>
      </trkpt>
      <trkpt lat="47.22018" lon="-1.62705">
        <ele>35.7</ele>
        <time>2013-09-27T18:19:23Z</time>
      </trkpt>
      <trkpt lat="47.22015" lon="-1.62685">
        <ele>35.1</ele>
        <time>2013-09-27T18:19:25Z</time>
      </trkpt>
      <trkpt lat="47.22013" lon="-1.62669">
        <ele>36.6</ele>
        <time>2013-09-27T18:19:27Z</time>
      </trkpt>
      <trkpt lat="47.22009" lon="-1.62648">
        <ele>36.8</ele>
        <time>2013-09-27T18:19:29Z</time>
      </trkpt>
      <trkpt lat="47.22006" lon="-1.6263">
        <ele>36.6</ele>
        <time>2013-09-27T18:19:31Z</time>
      </trkpt>
      <trkpt lat="47.22003" lon="-1.62614">
        <ele>36.6</ele>
        <time>2013-09-27T18:19:33Z</time>
      </trkpt>
      <trkpt lat="47.22001" lon="-1.62596">
        <ele>37.1</ele>
        <time>2013-09-27T18:19:35Z</time>
      </trkpt>
      <trkpt lat="47.21998" lon="-1.62578">
        <ele>37.7</ele>
        <time>2013-09-27T18:19:37Z</time>
      </trkpt>
      <trkpt lat="47.21995" lon="-1.62562">
        <ele>38.5</ele>
        <time>2013-09-27T18:19:39Z</time>
      </trkpt>
      <trkpt lat="47.21992" lon="-1.62548">
        <ele>39.2</ele>
        <time>2013-09-27T18:19:41Z</time>
      </trkpt>
      <trkpt lat="47.21989" lon="-1.62534">
        <ele>39.7</ele>
        <time>2013-09-27T18:19:43Z</time>
      </trkpt>
      <trkpt lat="47.21985" lon="-1.62518">
        <ele>40.3</ele>
        <time>2013-09-27T18:19:45Z</time>
      </trkpt>
      <trkpt lat="47.21982" lon="-1.62499">
        <ele>40.7</ele>
        <time>2013-09-27T18:19:47Z</time>
      </trkpt>
      <trkpt lat="47.21979" lon="-1.62482">
        <ele>40.4</ele>
        <time>2013-09-27T18:19:49Z</time>
      </trkpt>
      <trkpt lat="47.21976" lon="-1.62464">
        <ele>39.4</ele>
        <time>2013-09-27T18:19:52Z</time>
      </trkpt>
      <trkpt lat="47.21974" lon="-1.6245">
        <ele>39.2</ele>
        <time>2013-09-27T18:19:54Z</time>
      </trkpt>
      <trkpt lat="47.2197" lon="-1.62432">
        <ele>39.3</ele>
        <time>2013-09-27T18:19:57Z</time>
      </trkpt>
      <trkpt lat="47.21966" lon="-1.62414">
        <ele>39.8</ele>
        <time>2013-09-27T18:20:00Z</time>
      </trkpt>
      <trkpt lat="47.21963" lon="-1.62402">
        <ele>40.7</ele>
        <time>2013-09-27T18:20:02Z</time>
      </trkpt>
      <trkpt lat="47.21957" lon="-1.62386">
        <ele>41.1</ele>
        <time>2013-09-27T18:20:05Z</time>
      </trkpt>
      <trkpt lat="47.21954" lon="-1.62371">
        <ele>40.8</ele>
        <time>2013-09-27T18:20:08Z</time>
      </trkpt>
      <trkpt lat="47.21954" lon="-1.62355">
        <ele>40.8</ele>
        <time>2013-09-27T18:20:11Z</time>
      </trkpt>
      <trkpt lat="47.21951" lon="-1.62336">
        <ele>41.8</ele>
        <time>2013-09-27T18:20:14Z</time>
      </trkpt>
      <trkpt lat="47.21949" lon="-1.62323">
        <ele>42.2</ele>
        <time>2013-09-27T18:20:16Z</time>
      </trkpt>
      <trkpt lat="47.21946" lon="-1.62309">
        <ele>42.1</ele>
        <time>2013-09-27T18:20:18Z</time>
      </trkpt>
      <trkpt lat="47.21943" lon="-1.62295">
        <ele>41.5</ele>
        <time>2013-09-27T18:20:20Z</time>
      </trkpt>
      <trkpt lat="47.21941" lon="-1.62281">
        <ele>41.4</ele>
        <time>2013-09-27T18:20:22Z</time>
      </trkpt>
      <trkpt lat="47.21939" lon="-1.62268">
        <ele>41.3</ele>
        <time>2013-09-27T18:20:24Z</time>
      </trkpt>
      <trkpt lat="47.21936" lon="-1.6225">
        <ele>41.2</ele>
        <time>2013-09-27T18:20:27Z</time>
      </trkpt>
      <trkpt lat="47.21932" lon="-1.62232">
        <ele>40.7</ele>
        <time>2013-09-27T18:20:30Z</time>
      </trkpt>
      <trkpt lat="47.21929" lon="-1.62213">
        <ele>40.4</ele>
        <time>2013-09-27T18:20:33Z</time>
      </trkpt>
      <trkpt lat="47.21928" lon="-1.62194">
        <ele>40.8</ele>
        <time>2013-09-27T18:20:36Z</time>
      </trkpt>
      <trkpt lat="47.21935" lon="-1.62183">
        <ele>40.9</ele>
        <time>2013-09-27T18:20:39Z</time>
      </trkpt>
      <trkpt lat="47.21943" lon="-1.62177">
        <ele>40.8</ele>
        <time>2013-09-27T18:20:42Z</time>
      </trkpt>
      <trkpt lat="47.21949" lon="-1.62166">
        <ele>40.8</ele>
        <time>2013-09-27T18:20:45Z</time>
      </trkpt>
      <trkpt lat="47.21954" lon="-1.62153">
        <ele>40.9</ele>
        <time>2013-09-27T18:20:48Z</time>
      </trkpt>
      <trkpt lat="47.21965" lon="-1.62145">
        <ele>39.5</ele>
        <time>2013-09-27T18:20:51Z</time>
      </trkpt>
      <trkpt lat="47.21977" lon="-1.6214">
        <ele>38.3</ele>
        <time>2013-09-27T18:20:54Z</time>
      </trkpt>
      <trkpt lat="47.21986" lon="-1.62136">
        <ele>37.6</ele>
        <time>2013-09-27T18:20:56Z</time>
      </trkpt>
      <trkpt lat="47.21996" lon="-1.62133">
        <ele>37.7</ele>
        <time>2013-09-27T18:20:58Z</time>
      </trkpt>
      <trkpt lat="47.22005" lon="-1.6213">
        <ele>38.4</ele>
        <time>2013-09-27T18:21:00Z</time>
      </trkpt>
      <trkpt lat="47.22017" lon="-1.62125">
        <ele>41</ele>
        <time>2013-09-27T18:21:03Z</time>
      </trkpt>
      <trkpt lat="47.22028" lon="-1.6212">
        <ele>42.2</ele>
        <time>2013-09-27T18:21:06Z</time>
      </trkpt>
      <trkpt lat="47.2204" lon="-1.62115">
        <ele>42.3</ele>
        <time>2013-09-27T18:21:09Z</time>
      </trkpt>
      <trkpt lat="47.22049" lon="-1.6211">
        <ele>41.8</ele>
        <time>2013-09-27T18:21:11Z</time>
      </trkpt>
      <trkpt lat="47.22059" lon="-1.62104">
        <ele>41.3</ele>
        <time>2013-09-27T18:21:13Z</time>
      </trkpt>
      <trkpt lat="47.2207" lon="-1.62096">
        <ele>41.3</ele>
        <time>2013-09-27T18:21:16Z</time>
      </trkpt>
      <trkpt lat="47.22081" lon="-1.6209">
        <ele>41.7</ele>
        <time>2013-09-27T18:21:19Z</time>
      </trkpt>
      <trkpt lat="47.22093" lon="-1.62084">
        <ele>43.9</ele>
        <time>2013-09-27T18:21:22Z</time>
      </trkpt>
      <trkpt lat="47.22102" lon="-1.62079">
        <ele>45</ele>
        <time>2013-09-27T18:21:24Z</time>
      </trkpt>
      <trkpt lat="47.22115" lon="-1.62073">
        <ele>45.4</ele>
        <time>2013-09-27T18:21:27Z</time>
      </trkpt>
      <trkpt lat="47.22127" lon="-1.62067">
        <ele>45.2</ele>
        <time>2013-09-27T18:21:30Z</time>
      </trkpt>
      <trkpt lat="47.22139" lon="-1.62062">
        <ele>45.6</ele>
        <time>2013-09-27T18:21:33Z</time>
      </trkpt>
      <trkpt lat="47.2215" lon="-1.62054">
        <ele>45</ele>
        <time>2013-09-27T18:21:36Z</time>
      </trkpt>
      <trkpt lat="47.22159" lon="-1.62042">
        <ele>45.1</ele>
        <time>2013-09-27T18:21:38Z</time>
      </trkpt>
      <trkpt lat="47.22163" lon="-1.62027">
        <ele>45.9</ele>
        <time>2013-09-27T18:21:40Z</time>
      </trkpt>
      <trkpt lat="47.22165" lon="-1.62014">
        <ele>46.6</ele>
        <time>2013-09-27T18:21:42Z</time>
      </trkpt>
      <trkpt lat="47.22165" lon="-1.62">
        <ele>46.9</ele>
        <time>2013-09-27T18:21:44Z</time>
      </trkpt>
      <trkpt lat="47.22164" lon="-1.61985">
        <ele>47.2</ele>
        <time>2013-09-27T18:21:46Z</time>
      </trkpt>
      <trkpt lat="47.22161" lon="-1.61969">
        <ele>47.2</ele>
        <time>2013-09-27T18:21:49Z</time>
      </trkpt>
      <trkpt lat="47.22158" lon="-1.61949">
        <ele>48.9</ele>
        <time>2013-09-27T18:21:52Z</time>
      </trkpt>
      <trkpt lat="47.22156" lon="-1.61936">
        <ele>48.2</ele>
        <time>2013-09-27T18:21:54Z</time>
      </trkpt>
      <trkpt lat="47.22153" lon="-1.61918">
        <ele>47.5</ele>
        <time>2013-09-27T18:21:57Z</time>
      </trkpt>
      <trkpt lat="47.22151" lon="-1.61903">
        <ele>47.5</ele>
        <time>2013-09-27T18:22:00Z</time>
      </trkpt>
      <trkpt lat="47.22147" lon="-1.61889">
        <ele>47.5</ele>
        <time>2013-09-27T18:22:03Z</time>
      </trkpt>
      <trkpt lat="47.22144" lon="-1.61876">
        <ele>47.3</ele>
        <time>2013-09-27T18:22:06Z</time>
      </trkpt>
      <trkpt lat="47.22141" lon="-1.61862">
        <ele>46.9</ele>
        <time>2013-09-27T18:22:10Z</time>
      </trkpt>
      <trkpt lat="47.2214" lon="-1.61847">
        <ele>46.9</ele>
        <time>2013-09-27T18:22:14Z</time>
      </trkpt>
      <trkpt lat="47.2214" lon="-1.61831">
        <ele>47</ele>
        <time>2013-09-27T18:22:18Z</time>
      </trkpt>
      <trkpt lat="47.22143" lon="-1.61817">
        <ele>47.3</ele>
        <time>2013-09-27T18:22:22Z</time>
      </trkpt>
      <trkpt lat="47.22152" lon="-1.61808">
        <ele>47.8</ele>
        <time>2013-09-27T18:22:26Z</time>
      </trkpt>
      <trkpt lat="47.22158" lon="-1.61795">
        <ele>48.3</ele>
        <time>2013-09-27T18:22:31Z</time>
      </trkpt>
      <trkpt lat="47.22167" lon="-1.6179">
        <ele>48.8</ele>
        <time>2013-09-27T18:22:35Z</time>
      </trkpt>
      <trkpt lat="47.22175" lon="-1.61783">
        <ele>49.4</ele>
        <time>2013-09-27T18:22:39Z</time>
      </trkpt>
      <trkpt lat="47.22169" lon="-1.61768">
        <ele>50</ele>
        <time>2013-09-27T18:22:44Z</time>
      </trkpt>
      <trkpt lat="47.2216" lon="-1.61758">
        <ele>50.5</ele>
        <time>2013-09-27T18:22:47Z</time>
      </trkpt>
      <trkpt lat="47.22152" lon="-1.61747">
        <ele>50.7</ele>
        <time>2013-09-27T18:22:50Z</time>
      </trkpt>
      <trkpt lat="47.22145" lon="-1.61737">
        <ele>50.8</ele>
        <time>2013-09-27T18:22:53Z</time>
      </trkpt>
      <trkpt lat="47.22137" lon="-1.61726">
        <ele>51.1</ele>
        <time>2013-09-27T18:22:56Z</time>
      </trkpt>
      <trkpt lat="47.2213" lon="-1.61715">
        <ele>51.5</ele>
        <time>2013-09-27T18:23:00Z</time>
      </trkpt>
      <trkpt lat="47.22123" lon="-1.61701">
        <ele>51.9</ele>
        <time>2013-09-27T18:23:04Z</time>
      </trkpt>
      <trkpt lat="47.22116" lon="-1.61689">
        <ele>51.9</ele>
        <time>2013-09-27T18:23:06Z</time>
      </trkpt>
      <trkpt lat="47.22108" lon="-1.61674">
        <ele>51.9</ele>
        <time>2013-09-27T18:23:09Z</time>
      </trkpt>
      <trkpt lat="47.22103" lon="-1.61657">
        <ele>52</ele>
        <time>2013-09-27T18:23:15Z</time>
      </trkpt>
      <trkpt lat="47.22101" lon="-1.6164">
        <ele>52.2</ele>
        <time>2013-09-27T18:23:19Z</time>
      </trkpt>
      <trkpt lat="47.22101" lon="-1.61627">
        <ele>52.2</ele>
        <time>2013-09-27T18:23:23Z</time>
      </trkpt>
      <trkpt lat="47.22094" lon="-1.61612">
        <ele>52.2</ele>
        <time>2013-09-27T18:23:27Z</time>
      </trkpt>
      <trkpt lat="47.22089" lon="-1.61601">
        <ele>52.1</ele>
        <time>2013-09-27T18:23:30Z</time>
      </trkpt>
      <trkpt lat="47.22084" lon="-1.6159">
        <ele>52</ele>
        <time>2013-09-27T18:23:33Z</time>
      </trkpt>
      <trkpt lat="47.22079" lon="-1.61577">
        <ele>52</ele>
        <time>2013-09-27T18:23:36Z</time>
      </trkpt>
      <trkpt lat="47.22072" lon="-1.61562">
        <ele>51.8</ele>
        <time>2013-09-27T18:23:39Z</time>
      </trkpt>
      <trkpt lat="47.22067" lon="-1.6155">
        <ele>51.7</ele>
        <time>2013-09-27T18:23:42Z</time>
      </trkpt>
      <trkpt lat="47.22062" lon="-1.61539">
        <ele>51.9</ele>
        <time>2013-09-27T18:23:45Z</time>
      </trkpt>
      <trkpt lat="47.22057" lon="-1.61528">
        <ele>52.4</ele>
        <time>2013-09-27T18:23:48Z</time>
      </trkpt>
      <trkpt lat="47.22053" lon="-1.61514">
        <ele>52.8</ele>
        <time>2013-09-27T18:23:52Z</time>
      </trkpt>
      <trkpt lat="47.22047" lon="-1.61504">
        <ele>54.2</ele>
        <time>2013-09-27T18:23:54Z</time>
      </trkpt>
      <trkpt lat="47.2204" lon="-1.61491">
        <ele>55.6</ele>
        <time>2013-09-27T18:23:57Z</time>
      </trkpt>
      <trkpt lat="47.22036" lon="-1.61473">
        <ele>55.3</ele>
        <time>2013-09-27T18:24:01Z</time>
      </trkpt>
      <trkpt lat="47.22034" lon="-1.61459">
        <ele>55.1</ele>
        <time>2013-09-27T18:24:04Z</time>
      </trkpt>
      <trkpt lat="47.2203" lon="-1.61443">
        <ele>54.9</ele>
        <time>2013-09-27T18:24:08Z</time>
      </trkpt>
      <trkpt lat="47.22027" lon="-1.61429">
        <ele>54.4</ele>
        <time>2013-09-27T18:24:12Z</time>
      </trkpt>
      <trkpt lat="47.22029" lon="-1.61415">
        <ele>53.9</ele>
        <time>2013-09-27T18:24:18Z</time>
      </trkpt>
      <trkpt lat="47.22038" lon="-1.61404">
        <ele>53.4</ele>
        <time>2013-09-27T18:24:23Z</time>
      </trkpt>
      <trkpt lat="47.22036" lon="-1.61391">
        <ele>53.2</ele>
        <time>2013-09-27T18:24:34Z</time>
      </trkpt>
      <trkpt lat="47.22042" lon="-1.61377">
        <ele>53.4</ele>
        <time>2013-09-27T18:24:41Z</time>
      </trkpt>
      <trkpt lat="47.22052" lon="-1.6137">
        <ele>53.4</ele>
        <time>2013-09-27T18:24:45Z</time>
      </trkpt>
      <trkpt lat="47.22059" lon="-1.61362">
        <ele>52.9</ele>
        <time>2013-09-27T18:24:54Z</time>
      </trkpt>
      <trkpt lat="47.22061" lon="-1.61348">
        <ele>52.7</ele>
        <time>2013-09-27T18:24:58Z</time>
      </trkpt>
      <trkpt lat="47.22063" lon="-1.61334">
        <ele>52.2</ele>
        <time>2013-09-27T18:25:02Z</time>
      </trkpt>
      <trkpt lat="47.22069" lon="-1.61319">
        <ele>51.9</ele>
        <time>2013-09-27T18:25:06Z</time>
      </trkpt>
      <trkpt lat="47.22069" lon="-1.61304">
        <ele>51.6</ele>
        <time>2013-09-27T18:25:09Z</time>
      </trkpt>
      <trkpt lat="47.22069" lon="-1.61287">
        <ele>51.6</ele>
        <time>2013-09-27T18:25:13Z</time>
      </trkpt>
      <trkpt lat="47.22069" lon="-1.6127">
        <ele>51.4</ele>
        <time>2013-09-27T18:25:17Z</time>
      </trkpt>
      <trkpt lat="47.22068" lon="-1.61257">
        <ele>51.1</ele>
        <time>2013-09-27T18:25:20Z</time>
      </trkpt>
      <trkpt lat="47.22065" lon="-1.61239">
        <ele>50.4</ele>
        <time>2013-09-27T18:25:23Z</time>
      </trkpt>
      <trkpt lat="47.22064" lon="-1.61221">
        <ele>50.2</ele>
        <time>2013-09-27T18:25:27Z</time>
      </trkpt>
      <trkpt lat="47.22066" lon="-1.61208">
        <ele>49.9</ele>
        <time>2013-09-27T18:25:30Z</time>
      </trkpt>
      <trkpt lat="47.22071" lon="-1.61194">
        <ele>49.8</ele>
        <time>2013-09-27T18:25:34Z</time>
      </trkpt>
      <trkpt lat="47.22082" lon="-1.61196">
        <ele>49.8</ele>
        <time>2013-09-27T18:25:38Z</time>
      </trkpt>
      <trkpt lat="47.22091" lon="-1.61206">
        <ele>50</ele>
        <time>2013-09-27T18:25:41Z</time>
      </trkpt>
      <trkpt lat="47.22101" lon="-1.61218">
        <ele>50.1</ele>
        <time>2013-09-27T18:25:44Z</time>
      </trkpt>
      <trkpt lat="47.22109" lon="-1.61226">
        <ele>51.2</ele>
        <time>2013-09-27T18:25:46Z</time>
      </trkpt>
      <trkpt lat="47.22119" lon="-1.61239">
        <ele>52.3</ele>
        <time>2013-09-27T18:25:49Z</time>
      </trkpt>
      <trkpt lat="47.22126" lon="-1.61249">
        <ele>53.2</ele>
        <time>2013-09-27T18:25:51Z</time>
      </trkpt>
      <trkpt lat="47.22134" lon="-1.61259">
        <ele>53.9</ele>
        <time>2013-09-27T18:25:53Z</time>
      </trkpt>
      <trkpt lat="47.22141" lon="-1.61268">
        <ele>54.5</ele>
        <time>2013-09-27T18:25:55Z</time>
      </trkpt>
      <trkpt lat="47.2215" lon="-1.61279">
        <ele>55.2</ele>
        <time>2013-09-27T18:25:58Z</time>
      </trkpt>
      <trkpt lat="47.22159" lon="-1.61289">
        <ele>55.4</ele>
        <time>2013-09-27T18:26:01Z</time>
      </trkpt>
      <trkpt lat="47.22167" lon="-1.61299">
        <ele>55.5</ele>
        <time>2013-09-27T18:26:04Z</time>
      </trkpt>
      <trkpt lat="47.22179" lon="-1.61303">
        <ele>55.4</ele>
        <time>2013-09-27T18:26:07Z</time>
      </trkpt>
      <trkpt lat="47.22191" lon="-1.61303">
        <ele>55.2</ele>
        <time>2013-09-27T18:26:10Z</time>
      </trkpt>
      <trkpt lat="47.22203" lon="-1.61298">
        <ele>55.1</ele>
        <time>2013-09-27T18:26:13Z</time>
      </trkpt>
      <trkpt lat="47.22213" lon="-1.61293">
        <ele>55</ele>
        <time>2013-09-27T18:26:16Z</time>
      </trkpt>
      <trkpt lat="47.22225" lon="-1.61286">
        <ele>54.5</ele>
        <time>2013-09-27T18:26:19Z</time>
      </trkpt>
      <trkpt lat="47.22237" lon="-1.61278">
        <ele>54.7</ele>
        <time>2013-09-27T18:26:22Z</time>
      </trkpt>
      <trkpt lat="47.22249" lon="-1.61273">
        <ele>54.8</ele>
        <time>2013-09-27T18:26:25Z</time>
      </trkpt>
      <trkpt lat="47.2226" lon="-1.61268">
        <ele>54.7</ele>
        <time>2013-09-27T18:26:29Z</time>
      </trkpt>
      <trkpt lat="47.2227" lon="-1.61263">
        <ele>54.6</ele>
        <time>2013-09-27T18:26:32Z</time>
      </trkpt>
      <trkpt lat="47.22277" lon="-1.61255">
        <ele>54.4</ele>
        <time>2013-09-27T18:26:35Z</time>
      </trkpt>
      <trkpt lat="47.22281" lon="-1.6124">
        <ele>54.3</ele>
        <time>2013-09-27T18:26:38Z</time>
      </trkpt>
      <trkpt lat="47.22279" lon="-1.61223">
        <ele>53.2</ele>
        <time>2013-09-27T18:26:41Z</time>
      </trkpt>
      <trkpt lat="47.22278" lon="-1.61207">
        <ele>52</ele>
        <time>2013-09-27T18:26:43Z</time>
      </trkpt>
      <trkpt lat="47.22275" lon="-1.61189">
        <ele>51.3</ele>
        <time>2013-09-27T18:26:45Z</time>
      </trkpt>
      <trkpt lat="47.22272" lon="-1.6117">
        <ele>50.4</ele>
        <time>2013-09-27T18:26:47Z</time>
      </trkpt>
      <trkpt lat="47.22271" lon="-1.6115">
        <ele>50.5</ele>
        <time>2013-09-27T18:26:49Z</time>
      </trkpt>
      <trkpt lat="47.22269" lon="-1.6113">
        <ele>51.2</ele>
        <time>2013-09-27T18:26:51Z</time>
      </trkpt>
      <trkpt lat="47.22266" lon="-1.61106">
        <ele>51</ele>
        <time>2013-09-27T18:26:53Z</time>
      </trkpt>
      <trkpt lat="47.22263" lon="-1.61094">
        <ele>50.9</ele>
        <time>2013-09-27T18:26:54Z</time>
      </trkpt>
      <trkpt lat="47.2226" lon="-1.61081">
        <ele>51</ele>
        <time>2013-09-27T18:26:55Z</time>
      </trkpt>
      <trkpt lat="47.22256" lon="-1.61068">
        <ele>51.3</ele>
        <time>2013-09-27T18:26:56Z</time>
      </trkpt>
      <trkpt lat="47.22253" lon="-1.61054">
        <ele>51.5</ele>
        <time>2013-09-27T18:26:57Z</time>
      </trkpt>
      <trkpt lat="47.22249" lon="-1.6104">
        <ele>51.4</ele>
        <time>2013-09-27T18:26:58Z</time>
      </trkpt>
      <trkpt lat="47.22247" lon="-1.61027">
        <ele>51.5</ele>
        <time>2013-09-27T18:26:59Z</time>
      </trkpt>
      <trkpt lat="47.22243" lon="-1.61013">
        <ele>51.6</ele>
        <time>2013-09-27T18:27:00Z</time>
      </trkpt>
      <trkpt lat="47.22239" lon="-1.61">
        <ele>51.5</ele>
        <time>2013-09-27T18:27:01Z</time>
      </trkpt>
      <trkpt lat="47.22236" lon="-1.60987">
        <ele>51.3</ele>
        <time>2013-09-27T18:27:02Z</time>
      </trkpt>
      <trkpt lat="47.22232" lon="-1.60974">
        <ele>50.8</ele>
        <time>2013-09-27T18:27:03Z</time>
      </trkpt>
      <trkpt lat="47.22225" lon="-1.6095">
        <ele>49.7</ele>
        <time>2013-09-27T18:27:05Z</time>
      </trkpt>
      <trkpt lat="47.22216" lon="-1.60927">
        <ele>47.7</ele>
        <time>2013-09-27T18:27:07Z</time>
      </trkpt>
      <trkpt lat="47.22208" lon="-1.60905">
        <ele>46.4</ele>
        <time>2013-09-27T18:27:09Z</time>
      </trkpt>
      <trkpt lat="47.22201" lon="-1.60882">
        <ele>44.7</ele>
        <time>2013-09-27T18:27:11Z</time>
      </trkpt>
      <trkpt lat="47.22195" lon="-1.60861">
        <ele>43.7</ele>
        <time>2013-09-27T18:27:13Z</time>
      </trkpt>
      <trkpt lat="47.2219" lon="-1.60844">
        <ele>43.8</ele>
        <time>2013-09-27T18:27:15Z</time>
      </trkpt>
      <trkpt lat="47.22186" lon="-1.6083">
        <ele>43</ele>
        <time>2013-09-27T18:27:17Z</time>
      </trkpt>
      <trkpt lat="47.22182" lon="-1.60818">
        <ele>42.7</ele>
        <time>2013-09-27T18:27:20Z</time>
      </trkpt>
      <trkpt lat="47.22177" lon="-1.60807">
        <ele>42.3</ele>
        <time>2013-09-27T18:27:26Z</time>
      </trkpt>
      <trkpt lat="47.22179" lon="-1.60792">
        <ele>41.7</ele>
        <time>2013-09-27T18:27:31Z</time>
      </trkpt>
      <trkpt lat="47.22184" lon="-1.60778">
        <ele>41.8</ele>
        <time>2013-09-27T18:27:35Z</time>
      </trkpt>
      <trkpt lat="47.22191" lon="-1.60765">
        <ele>42.2</ele>
        <time>2013-09-27T18:27:40Z</time>
      </trkpt>
      <trkpt lat="47.22198" lon="-1.60755">
        <ele>42.3</ele>
        <time>2013-09-27T18:27:43Z</time>
      </trkpt>
      <trkpt lat="47.22208" lon="-1.6075">
        <ele>42.2</ele>
        <time>2013-09-27T18:27:47Z</time>
      </trkpt>
      <trkpt lat="47.22219" lon="-1.60743">
        <ele>42.1</ele>
        <time>2013-09-27T18:27:51Z</time>
      </trkpt>
      <trkpt lat="47.22229" lon="-1.60736">
        <ele>42.1</ele>
        <time>2013-09-27T18:27:54Z</time>
      </trkpt>
      <trkpt lat="47.22237" lon="-1.60731">
        <ele>42</ele>
        <time>2013-09-27T18:27:57Z</time>
      </trkpt>
      <trkpt lat="47.22247" lon="-1.60721">
        <ele>41.9</ele>
        <time>2013-09-27T18:28:01Z</time>
      </trkpt>
      <trkpt lat="47.22255" lon="-1.60708">
        <ele>41.7</ele>
        <time>2013-09-27T18:28:04Z</time>
      </trkpt>
      <trkpt lat="47.22264" lon="-1.60697">
        <ele>39.8</ele>
        <time>2013-09-27T18:28:07Z</time>
      </trkpt>
      <trkpt lat="47.22274" lon="-1.60687">
        <ele>39.1</ele>
        <time>2013-09-27T18:28:10Z</time>
      </trkpt>
      <trkpt lat="47.22283" lon="-1.60684">
        <ele>38.9</ele>
        <time>2013-09-27T18:28:14Z</time>
      </trkpt>
      <trkpt lat="47.22295" lon="-1.60691">
        <ele>39</ele>
        <time>2013-09-27T18:28:18Z</time>
      </trkpt>
      <trkpt lat="47.22306" lon="-1.60697">
        <ele>39.1</ele>
        <time>2013-09-27T18:28:21Z</time>
      </trkpt>
      <trkpt lat="47.22317" lon="-1.60703">
        <ele>39.2</ele>
        <time>2013-09-27T18:28:24Z</time>
      </trkpt>
      <trkpt lat="47.22328" lon="-1.60709">
        <ele>39.3</ele>
        <time>2013-09-27T18:28:27Z</time>
      </trkpt>
      <trkpt lat="47.22337" lon="-1.60713">
        <ele>39.5</ele>
        <time>2013-09-27T18:28:30Z</time>
      </trkpt>
      <trkpt lat="47.22348" lon="-1.60718">
        <ele>40.5</ele>
        <time>2013-09-27T18:28:33Z</time>
      </trkpt>
      <trkpt lat="47.22361" lon="-1.60721">
        <ele>40.5</ele>
        <time>2013-09-27T18:28:36Z</time>
      </trkpt>
      <trkpt lat="47.22373" lon="-1.60724">
        <ele>40.4</ele>
        <time>2013-09-27T18:28:39Z</time>
      </trkpt>
      <trkpt lat="47.22385" lon="-1.60723">
        <ele>40.4</ele>
        <time>2013-09-27T18:28:42Z</time>
      </trkpt>
      <trkpt lat="47.22395" lon="-1.6072">
        <ele>40.4</ele>
        <time>2013-09-27T18:28:45Z</time>
      </trkpt>
      <trkpt lat="47.22408" lon="-1.60714">
        <ele>40.5</ele>
        <time>2013-09-27T18:28:48Z</time>
      </trkpt>
      <trkpt lat="47.22419" lon="-1.60709">
        <ele>40.4</ele>
        <time>2013-09-27T18:28:51Z</time>
      </trkpt>
      <trkpt lat="47.2243" lon="-1.60704">
        <ele>40.4</ele>
        <time>2013-09-27T18:28:54Z</time>
      </trkpt>
      <trkpt lat="47.2244" lon="-1.60699">
        <ele>40.4</ele>
        <time>2013-09-27T18:28:57Z</time>
      </trkpt>
      <trkpt lat="47.22452" lon="-1.60694">
        <ele>40.3</ele>
        <time>2013-09-27T18:29:00Z</time>
      </trkpt>
      <trkpt lat="47.22461" lon="-1.60691">
        <ele>40.2</ele>
        <time>2013-09-27T18:29:03Z</time>
      </trkpt>
      <trkpt lat="47.2247" lon="-1.60687">
        <ele>40.1</ele>
        <time>2013-09-27T18:29:06Z</time>
      </trkpt>
      <trkpt lat="47.2248" lon="-1.60682">
        <ele>40.3</ele>
        <time>2013-09-27T18:29:10Z</time>
      </trkpt>
      <trkpt lat="47.22491" lon="-1.60678">
        <ele>40.4</ele>
        <time>2013-09-27T18:29:14Z</time>
      </trkpt>
      <trkpt lat="47.22503" lon="-1.60675">
        <ele>40.5</ele>
        <time>2013-09-27T18:29:17Z</time>
      </trkpt>
      <trkpt lat="47.22514" lon="-1.60671">
        <ele>40.5</ele>
        <time>2013-09-27T18:29:20Z</time>
      </trkpt>
      <trkpt lat="47.22526" lon="-1.60667">
        <ele>40.9</ele>
        <time>2013-09-27T18:29:23Z</time>
      </trkpt>
      <trkpt lat="47.22536" lon="-1.60669">
        <ele>41.2</ele>
        <time>2013-09-27T18:29:25Z</time>
      </trkpt>
      <trkpt lat="47.22545" lon="-1.60673">
        <ele>40.9</ele>
        <time>2013-09-27T18:29:27Z</time>
      </trkpt>
      <trkpt lat="47.22554" lon="-1.6068">
        <ele>41.2</ele>
        <time>2013-09-27T18:29:29Z</time>
      </trkpt>
      <trkpt lat="47.22562" lon="-1.60695">
        <ele>42</ele>
        <time>2013-09-27T18:29:31Z</time>
      </trkpt>
      <trkpt lat="47.22567" lon="-1.60708">
        <ele>42.8</ele>
        <time>2013-09-27T18:29:33Z</time>
      </trkpt>
      <trkpt lat="47.22572" lon="-1.60721">
        <ele>43</ele>
        <time>2013-09-27T18:29:35Z</time>
      </trkpt>
      <trkpt lat="47.22577" lon="-1.60733">
        <ele>43.3</ele>
        <time>2013-09-27T18:29:37Z</time>
      </trkpt>
      <trkpt lat="47.22581" lon="-1.60745">
        <ele>43.4</ele>
        <time>2013-09-27T18:29:39Z</time>
      </trkpt>
      <trkpt lat="47.22585" lon="-1.60758">
        <ele>43.6</ele>
        <time>2013-09-27T18:29:41Z</time>
      </trkpt>
      <trkpt lat="47.2259" lon="-1.60771">
        <ele>43.8</ele>
        <time>2013-09-27T18:29:43Z</time>
      </trkpt>
      <trkpt lat="47.22594" lon="-1.60783">
        <ele>44.2</ele>
        <time>2013-09-27T18:29:45Z</time>
      </trkpt>
      <trkpt lat="47.22599" lon="-1.60799">
        <ele>45</ele>
        <time>2013-09-27T18:29:48Z</time>
      </trkpt>
      <trkpt lat="47.22606" lon="-1.60815">
        <ele>45.8</ele>
        <time>2013-09-27T18:29:51Z</time>
      </trkpt>
      <trkpt lat="47.22616" lon="-1.60825">
        <ele>46</ele>
        <time>2013-09-27T18:29:54Z</time>
      </trkpt>
      <trkpt lat="47.22627" lon="-1.60832">
        <ele>46.3</ele>
        <time>2013-09-27T18:29:57Z</time>
      </trkpt>
      <trkpt lat="47.22636" lon="-1.60837">
        <ele>46.3</ele>
        <time>2013-09-27T18:29:59Z</time>
      </trkpt>
      <trkpt lat="47.22645" lon="-1.60834">
        <ele>46.6</ele>
        <time>2013-09-27T18:30:03Z</time>
      </trkpt>
      <trkpt lat="47.22654" lon="-1.60836">
        <ele>46.7</ele>
        <time>2013-09-27T18:30:06Z</time>
      </trkpt>
      <trkpt lat="47.22665" lon="-1.6084">
        <ele>46.9</ele>
        <time>2013-09-27T18:30:09Z</time>
      </trkpt>
      <trkpt lat="47.22674" lon="-1.60845">
        <ele>47</ele>
        <time>2013-09-27T18:30:12Z</time>
      </trkpt>
      <trkpt lat="47.22683" lon="-1.60852">
        <ele>47.1</ele>
        <time>2013-09-27T18:30:15Z</time>
      </trkpt>
      <trkpt lat="47.22694" lon="-1.60857">
        <ele>47.2</ele>
        <time>2013-09-27T18:30:18Z</time>
      </trkpt>
      <trkpt lat="47.22706" lon="-1.60861">
        <ele>47.1</ele>
        <time>2013-09-27T18:30:21Z</time>
      </trkpt>
      <trkpt lat="47.22716" lon="-1.60865">
        <ele>47.2</ele>
        <time>2013-09-27T18:30:24Z</time>
      </trkpt>
      <trkpt lat="47.22727" lon="-1.6087">
        <ele>47.1</ele>
        <time>2013-09-27T18:30:27Z</time>
      </trkpt>
      <trkpt lat="47.22737" lon="-1.60876">
        <ele>47</ele>
        <time>2013-09-27T18:30:30Z</time>
      </trkpt>
      <trkpt lat="47.22749" lon="-1.60881">
        <ele>46.9</ele>
        <time>2013-09-27T18:30:33Z</time>
      </trkpt>
      <trkpt lat="47.2276" lon="-1.60885">
        <ele>45.7</ele>
        <time>2013-09-27T18:30:36Z</time>
      </trkpt>
      <trkpt lat="47.22771" lon="-1.6089">
        <ele>44.3</ele>
        <time>2013-09-27T18:30:39Z</time>
      </trkpt>
      <trkpt lat="47.22781" lon="-1.60895">
        <ele>43.4</ele>
        <time>2013-09-27T18:30:42Z</time>
      </trkpt>
      <trkpt lat="47.2279" lon="-1.60899">
        <ele>43.3</ele>
        <time>2013-09-27T18:30:44Z</time>
      </trkpt>
      <trkpt lat="47.22799" lon="-1.60903">
        <ele>42.7</ele>
        <time>2013-09-27T18:30:46Z</time>
      </trkpt>
      <trkpt lat="47.2281" lon="-1.60908">
        <ele>42.6</ele>
        <time>2013-09-27T18:30:49Z</time>
      </trkpt>
      <trkpt lat="47.22823" lon="-1.60913">
        <ele>44.2</ele>
        <time>2013-09-27T18:30:52Z</time>
      </trkpt>
      <trkpt lat="47.22837" lon="-1.60914">
        <ele>45.4</ele>
        <time>2013-09-27T18:30:55Z</time>
      </trkpt>
      <trkpt lat="47.22846" lon="-1.60911">
        <ele>45.3</ele>
        <time>2013-09-27T18:30:57Z</time>
      </trkpt>
      <trkpt lat="47.22856" lon="-1.609">
        <ele>45.1</ele>
        <time>2013-09-27T18:31:00Z</time>
      </trkpt>
      <trkpt lat="47.22863" lon="-1.6089">
        <ele>45</ele>
        <time>2013-09-27T18:31:03Z</time>
      </trkpt>
      <trkpt lat="47.2287" lon="-1.60879">
        <ele>44.8</ele>
        <time>2013-09-27T18:31:06Z</time>
      </trkpt>
      <trkpt lat="47.2288" lon="-1.60867">
        <ele>44.8</ele>
        <time>2013-09-27T18:31:09Z</time>
      </trkpt>
      <trkpt lat="47.22888" lon="-1.60857">
        <ele>44.5</ele>
        <time>2013-09-27T18:31:12Z</time>
      </trkpt>
      <trkpt lat="47.22898" lon="-1.60846">
        <ele>44.3</ele>
        <time>2013-09-27T18:31:15Z</time>
      </trkpt>
      <trkpt lat="47.22907" lon="-1.60835">
        <ele>43.7</ele>
        <time>2013-09-27T18:31:18Z</time>
      </trkpt>
      <trkpt lat="47.22914" lon="-1.60827">
        <ele>43.6</ele>
        <time>2013-09-27T18:31:20Z</time>
      </trkpt>
      <trkpt lat="47.2292" lon="-1.60811">
        <ele>43.5</ele>
        <time>2013-09-27T18:31:23Z</time>
      </trkpt>
      <trkpt lat="47.22928" lon="-1.60798">
        <ele>43</ele>
        <time>2013-09-27T18:31:26Z</time>
      </trkpt>
      <trkpt lat="47.22939" lon="-1.60796">
        <ele>42.9</ele>
        <time>2013-09-27T18:31:29Z</time>
      </trkpt>
      <trkpt lat="47.22951" lon="-1.60801">
        <ele>42.8</ele>
        <time>2013-09-27T18:31:32Z</time>
      </trkpt>
      <trkpt lat="47.22962" lon="-1.60806">
        <ele>42.8</ele>
        <time>2013-09-27T18:31:36Z</time>
      </trkpt>
      <trkpt lat="47.22972" lon="-1.60804">
        <ele>42.8</ele>
        <time>2013-09-27T18:31:39Z</time>
      </trkpt>
      <trkpt lat="47.22983" lon="-1.60798">
        <ele>42.8</ele>
        <time>2013-09-27T18:31:42Z</time>
      </trkpt>
      <trkpt lat="47.22992" lon="-1.60793">
        <ele>41.8</ele>
        <time>2013-09-27T18:31:44Z</time>
      </trkpt>
      <trkpt lat="47.23003" lon="-1.60784">
        <ele>40.8</ele>
        <time>2013-09-27T18:31:46Z</time>
      </trkpt>
      <trkpt lat="47.23016" lon="-1.60775">
        <ele>39.9</ele>
        <time>2013-09-27T18:31:48Z</time>
      </trkpt>
      <trkpt lat="47.23027" lon="-1.60768">
        <ele>39.9</ele>
        <time>2013-09-27T18:31:50Z</time>
      </trkpt>
      <trkpt lat="47.2304" lon="-1.60768">
        <ele>40.6</ele>
        <time>2013-09-27T18:31:53Z</time>
      </trkpt>
      <trkpt lat="47.23051" lon="-1.60768">
        <ele>40.5</ele>
        <time>2013-09-27T18:31:56Z</time>
      </trkpt>
      <trkpt lat="47.23062" lon="-1.60765">
        <ele>40.4</ele>
        <time>2013-09-27T18:31:59Z</time>
      </trkpt>
      <trkpt lat="47.23074" lon="-1.60759">
        <ele>39.4</ele>
        <time>2013-09-27T18:32:02Z</time>
      </trkpt>
      <trkpt lat="47.23082" lon="-1.60747">
        <ele>39</ele>
        <time>2013-09-27T18:32:04Z</time>
      </trkpt>
      <trkpt lat="47.23081" lon="-1.60729">
        <ele>38.9</ele>
        <time>2013-09-27T18:32:07Z</time>
      </trkpt>
      <trkpt lat="47.23079" lon="-1.60716">
        <ele>38.8</ele>
        <time>2013-09-27T18:32:09Z</time>
      </trkpt>
      <trkpt lat="47.23075" lon="-1.60699">
        <ele>38.6</ele>
        <time>2013-09-27T18:32:12Z</time>
      </trkpt>
      <trkpt lat="47.23072" lon="-1.60684">
        <ele>38.1</ele>
        <time>2013-09-27T18:32:15Z</time>
      </trkpt>
      <trkpt lat="47.23076" lon="-1.60671">
        <ele>37.8</ele>
        <time>2013-09-27T18:32:22Z</time>
      </trkpt>
      <trkpt lat="47.23072" lon="-1.60658">
        <ele>37.5</ele>
        <time>2013-09-27T18:32:34Z</time>
      </trkpt>
      <trkpt lat="47.23076" lon="-1.60658">
        <ele>36.1</ele>
        <time>2013-09-27T18:32:54Z</time>
      </trkpt>
      <trkpt lat="47.23076" lon="-1.60658">
        <ele>36.1</ele>
        <time>2013-09-27T18:32:54Z</time>
      </trkpt>
    </trkseg>
  </trk>
</gpx>